[[{"header":{"parameterUnit":"m.s-1","parameterCategory":1,"la1":30.6,"la2":28.766,"lo1":-90.7593,"lo2":-88.6598,"dy":0.0162,"dx":0.0183,"nx":116,"ny":114,"refTime":"2024-04-28T18:00:00:Z","depth":0,"parameterNumber":2,"parameterNumberName":"U-component_of_WINDS"},"data":[0.0,0.0,0.0,0.0,0.0,0.0,0.0,0.0,0.0,0.0,0.0,0.0,0.0,0.0,0.0,0.0,0.0,0.0,0.0,0.0,0.0,0.0,0.0,0.0,0.0,0.0,0.0,0.0,0.0,0.0,0.0,0.0,0.0,0.0,0.0,0.0,0.0,0.0,0.0,0.0,0.0,0.0,0.0,0.0,0.0,0.0,0.0,0.0,0.0,0.0,0.0,0.0,0.0,0.0,0.0,0.0,0.0,0.0,0.0,0.0,0.0,0.0,0.0,0.0,0.0,0.0,0.0,0.0,0.0,0.0,0.0,0.0,0.0,0.0,0.0,0.0,0.0,0.0,0.0,0.0,0.0,0.0,0.0,0.0,0.0,0.0,0.0,0.0,0.0,0.0,0.0,0.0,0.0,0.0,0.0,0.0,0.0,0.0,0.0,0.0,0.0,0.0,0.0,0.0,0.0,0.0,0.0,0.0,0.0,0.0,0.0,0.0,0.0,0.0,0.0,0.0,0.0,0.0,0.0,0.0,0.0,0.0,0.0,0.0,0.0,0.0,0.0,0.0,0.0,0.0,0.0,0.0,0.0,0.0,0.0,0.0,0.0,0.0,0.0,0.0,0.0,0.0,0.0,0.0,0.0,0.0,0.0,0.0,0.0,0.0,0.0,0.0,0.0,0.0,0.0,0.0,0.0,0.0,0.0,0.0,0.0,0.0,0.0,0.0,0.0,0.0,0.0,0.0,0.0,0.0,0.0,0.0,0.0,0.0,0.0,0.0,0.0,0.0,0.0,0.0,0.0,0.0,0.0,0.0,0.0,0.0,0.0,0.0,0.0,0.0,0.0,0.0,0.0,0.0,0.0,0.0,0.0,0.0,0.0,0.0,0.0,0.0,0.0,0.0,0.0,0.0,0.0,0.0,0.0,0.0,0.0,0.0,0.0,0.0,0.0,0.0,0.0,0.0,0.0,0.0,0.0,0.0,0.0,0.0,0.0,0.0,0.0,0.0,0.0,0.0,0.0,0.0,0.0,0.0,0.0,0.0,0.0,0.0,0.0,0.0,0.0,0.0,0.0,0.0,0.0,0.0,0.0,0.0,0.0,0.0,0.0,0.0,0.0,0.0,0.0,0.0,0.0,0.0,0.0,0.0,0.0,0.0,0.0,0.0,0.0,0.0,0.0,0.0,0.0,0.0,0.0,0.0,0.0,0.0,0.0,0.0,0.0,0.0,0.0,0.0,0.0,0.0,0.0,0.0,0.0,0.0,0.0,0.0,0.0,0.0,0.0,0.0,0.0,0.0,0.0,0.0,0.0,0.0,0.0,0.0,0.0,0.0,0.0,0.0,0.0,0.0,0.0,0.0,0.0,0.0,0.0,0.0,0.0,0.0,0.0,0.0,0.0,0.0,0.0,0.0,0.0,0.0,0.0,0.0,0.0,0.0,0.0,0.0,0.0,0.0,0.0,0.0,0.0,0.0,0.0,0.0,0.0,0.0,0.0,0.0,0.0,0.0,0.0,0.0,0.0,0.0,0.0,0.0,0.0,0.0,0.0,0.0,0.0,0.0,0.0,0.0,0.0,0.0,0.0,0.0,0.0,0.0,0.0,0.0,0.0,0.0,0.0,0.0,0.0,0.0,0.0,0.0,0.0,0.0,0.0,0.0,0.0,0.0,0.0,0.0,0.0,0.0,0.0,0.0,0.0,0.0,0.0,0.0,0.0,0.0,0.0,0.0,0.0,0.0,0.0,0.0,0.0,0.0,0.0,0.0,0.0,0.0,0.0,0.0,0.0,0.0,0.0,0.0,0.0,0.0,0.0,0.0,0.0,0.0,0.0,0.0,0.0,0.0,0.0,0.0,0.0,0.0,0.0,0.0,0.0,0.0,0.0,0.0,0.0,0.0,0.0,0.0,0.0,0.0,0.0,0.0,0.0,0.0,0.0,0.0,0.0,0.0,0.0,0.0,0.0,0.0,0.0,0.0,0.0,0.0,0.0,0.0,0.0,0.0,0.0,0.0,0.0,0.0,0.0,0.0,0.0,0.0,0.0,0.0,0.0,0.0,0.0,0.0,0.0,0.0,0.0,0.0,0.0,0.0,0.0,0.0,0.0,0.0,0.0,0.0,0.0,0.0,0.0,0.0,0.0,0.0,0.0,0.0,0.0,0.0,0.0,0.0,0.0,0.0,0.0,0.0,0.0,0.0,0.0,0.0,0.0,0.0,0.0,0.0,0.0,0.0,0.0,0.0,0.0,0.0,0.0,0.0,0.0,0.0,0.0,0.0,0.0,0.0,0.0,0.0,0.0,0.0,0.0,0.0,0.0,0.0,0.0,0.0,0.0,0.0,0.0,0.0,0.0,0.0,0.0,0.0,0.0,0.0,0.0,0.0,0.0,0.0,0.0,0.0,0.0,0.0,0.0,0.0,0.0,0.0,0.0,0.0,0.0,0.0,0.0,0.0,0.0,0.0,0.0,0.0,0.0,0.0,0.0,0.0,0.0,0.0,0.0,0.0,0.0,0.0,0.0,0.0,0.0,0.0,0.0,0.0,0.0,0.0,0.0,0.0,0.0,0.0,0.0,0.0,0.0,0.0,0.0,0.0,0.0,0.0,0.0,0.0,0.0,0.0,0.0,0.0,0.0,0.0,0.0,0.0,0.0,0.0,0.0,0.0,0.0,0.0,0.0,0.0,0.0,0.0,0.0,0.0,0.0,0.0,0.0,0.0,0.0,0.0,0.0,0.0,0.0,0.0,0.0,0.0,0.0,0.0,0.0,0.0,0.0,0.0,0.0,0.0,0.0,0.0,0.0,0.0,0.0,0.0,0.0,0.0,0.0,0.0,0.0,0.0,0.0,0.0,0.0,0.0,0.0,0.0,0.0,0.0,0.0,0.0,0.0,0.0,0.0,0.0,0.0,0.0,0.0,0.0,0.0,0.0,0.0,0.0,0.0,0.0,0.0,0.0,0.0,0.0,0.0,0.0,0.0,0.0,0.0,0.0,0.0,0.0,0.0,0.0,0.0,0.0,0.0,0.0,0.0,0.0,0.0,0.0,0.0,0.0,0.0,0.0,0.0,0.0,0.0,0.0,0.0,0.0,0.0,0.0,0.0,0.0,0.0,0.0,0.0,0.0,0.0,0.0,0.0,0.0,0.0,0.0,0.0,0.0,0.0,0.0,0.0,0.0,0.0,0.0,0.0,0.0,0.0,0.0,0.0,0.0,0.0,0.0,0.0,0.0,0.0,0.0,0.0,0.0,0.0,0.0,0.0,0.0,0.0,0.0,0.0,0.0,0.0,0.0,0.0,0.0,0.0,0.0,0.0,0.0,0.0,0.0,0.0,0.0,0.0,0.0,0.0,0.0,0.0,0.0,0.0,0.0,0.0,0.0,0.0,0.0,0.0,0.0,0.0,0.0,0.0,0.0,0.0,0.0,0.0,0.0,0.0,0.0,0.0,0.0,0.0,0.0,0.0,0.0,0.0,0.0,0.0,0.0,0.0,0.0,0.0,0.0,0.0,0.0,0.0,0.0,0.0,0.0,0.0,0.0,0.0,0.0,0.0,0.0,0.0,0.0,0.0,0.0,0.0,0.0,0.0,0.0,0.0,0.0,0.0,0.0,0.0,0.0,0.0,0.0,0.0,0.0,0.0,0.0,0.0,0.0,0.0,0.0,0.0,0.0,0.0,0.0,0.0,0.0,0.0,0.0,0.0,0.0,0.0,0.0,0.0,0.0,0.0,0.0,0.0,0.0,0.0,0.0,0.0,0.0,0.0,0.0,0.0,0.0,0.0,0.0,0.0,0.0,0.0,0.0,0.0,0.0,0.0,0.0,0.0,0.0,0.0,0.0,0.0,0.0,0.0,0.0,0.0,0.0,0.0,0.0,0.0,0.0,0.0,0.0,0.0,0.0,0.0,0.0,0.0,0.0,0.0,0.0,0.0,0.0,0.0,0.0,0.0,0.0,0.0,0.0,0.0,0.0,0.0,0.0,0.0,0.0,0.0,0.0,0.0,0.0,0.0,0.0,0.0,0.0,0.0,0.0,0.0,0.0,0.0,0.0,0.0,0.0,0.0,0.0,0.0,0.0,0.0,0.0,0.0,0.0,0.0,0.0,0.0,0.0,0.0,0.0,0.0,0.0,0.0,0.0,0.0,0.0,0.0,0.0,0.0,0.0,0.0,0.0,0.0,0.0,0.0,0.0,0.0,0.0,0.0,0.0,0.0,0.0,0.0,0.0,0.0,0.0,0.0,0.0,0.0,0.0,0.0,0.0,0.0,0.0,0.0,0.0,0.0,0.0,0.0,0.0,0.0,0.0,0.0,0.0,0.0,0.0,0.0,0.0,0.0,0.0,0.0,0.0,0.0,0.0,0.0,0.0,0.0,0.0,0.0,0.0,0.0,0.0,0.0,0.0,0.0,0.0,0.0,0.0,0.0,0.0,0.0,0.0,0.0,0.0,0.0,0.0,0.0,0.0,0.0,0.0,0.0,0.0,0.0,0.0,0.0,0.0,0.0,0.0,0.0,0.0,0.0,0.0,0.0,0.0,0.0,0.0,0.0,0.0,0.0,0.0,0.0,0.0,0.0,0.0,0.0,0.0,0.0,0.0,0.0,0.0,0.0,0.0,0.0,0.0,0.0,0.0,0.0,0.0,0.0,0.0,0.0,0.0,0.0,0.0,0.0,0.0,0.0,0.0,0.0,0.0,0.0,0.0,0.0,0.0,0.0,0.0,0.0,0.0,0.0,0.0,0.0,0.0,0.0,0.0,0.0,0.0,0.0,0.0,0.0,0.0,0.0,0.0,0.0,0.0,0.0,0.0,0.0,0.0,0.0,0.0,0.0,0.0,0.0,0.0,0.0,0.0,0.0,0.0,0.0,0.0,0.0,0.0,0.0,0.0,0.0,0.0,0.0,0.0,0.0,0.0,0.0,0.0,0.0,0.0,0.0,0.0,0.0,0.0,0.0,0.0,0.0,0.0,0.0,0.0,0.0,0.0,0.0,0.0,0.0,0.0,0.0,0.0,0.0,0.0,0.0,0.0,0.0,0.0,0.0,0.0,0.0,0.0,0.0,0.0,0.0,0.0,0.0,0.0,0.0,0.0,0.0,0.0,0.0,0.0,0.0,0.0,0.0,0.0,0.0,0.0,0.0,0.0,0.0,0.0,0.0,0.0,0.0,0.0,0.0,0.0,0.0,0.0,0.0,0.0,0.0,0.0,0.0,0.0,0.0,0.0,0.0,0.0,0.0,0.0,0.0,0.0,0.0,0.0,0.0,0.0,0.0,0.0,0.0,0.0,0.0,0.0,0.0,0.0,0.0,0.0,0.0,0.0,0.0,0.0,0.0,0.0,0.0,0.0,0.0,0.0,0.0,0.0,0.0,0.0,0.0,0.0,0.0,0.0,0.0,0.0,0.0,0.0,0.0,0.0,0.0,0.0,0.0,0.0,0.0,0.0,0.0,0.0,0.0,0.0,0.0,0.0,0.0,0.0,0.0,0.0,0.0,0.0,0.0,0.0,0.0,0.0,0.0,0.0,0.0,0.0,0.0,0.0,0.0,0.0,0.0,0.0,0.0,0.0,0.0,0.0,0.0,0.0,0.0,0.0,0.0,0.0,0.0,0.0,0.0,0.0,0.0,0.0,0.0,0.0,0.0,0.0,0.0,0.0,0.0,0.0,0.0,0.0,0.0,0.0,0.0,0.0,0.0,0.0,0.0,0.0,0.0,0.0,0.0,0.0,0.0,0.0,0.0,0.0,0.0,0.0,0.0,0.0,0.0,0.0,0.0,0.0,0.0,0.0,0.0,0.0,0.0,0.0,0.0,0.0,0.0,0.0,0.0,0.0,0.0,0.0,0.0,0.0,0.0,0.0,0.0,0.0,0.0,0.0,0.0,0.0,0.0,0.0,0.0,0.0,0.0,0.0,0.0,0.0,0.0,0.0,0.0,0.0,0.0,0.0,0.0,0.0,0.0,0.0,0.0,0.0,0.0,0.0,0.0,0.0,0.0,0.0,0.0,0.0,0.0,0.0,0.0,0.0,0.0,0.0,0.0,0.0,0.0,0.0,0.0,0.0,0.0,0.0,0.0,0.0,0.0,0.0,-0.528,0.0,0.0,0.0,0.0,0.0,0.0,0.0,0.0,0.0,0.0,0.0,0.0,0.0,0.0,0.0,0.0,0.0,0.0,0.0,0.0,0.0,0.0,0.0,0.0,-0.5765,-0.6337,-0.6502,-0.7326,-0.7932,-0.8201,0.0,0.0,0.0,0.0,0.0,-0.7742,-0.7742,-0.7742,-0.7742,-0.7338,-0.6684,-0.5844,-0.6594,-0.6832,-0.6639,0.0,0.0,0.0,0.0,0.0,0.0,0.0,0.0,0.0,0.0,0.0,0.0,0.0,0.0,0.0,0.0,0.0,0.0,0.0,0.0,0.0,0.0,0.0,0.0,0.0,0.0,0.0,0.0,0.0,0.0,0.0,0.0,0.0,0.0,0.0,0.0,0.0,0.0,0.0,0.0,0.0,0.0,0.0,0.0,0.0,0.0,0.0,0.0,0.0,0.0,0.0,0.0,0.0,0.0,0.0,0.0,0.0,0.0,0.0,0.0,0.0,0.0,0.0,0.0,0.0,0.0,0.0,0.0,0.0,0.0,0.0,-0.5617,0.0,0.0,0.0,0.0,0.0,0.0,0.0,0.0,0.0,0.0,0.0,0.0,0.0,0.0,0.0,0.0,0.0,0.0,0.0,0.0,0.0,-0.5578,-0.5753,-0.6692,-0.732,-0.7427,-0.8317,-0.8968,-0.9266,-0.9851,-0.9985,-0.955,-0.953,-0.9204,-0.8479,-0.8447,-0.8382,-0.8221,-0.734,-0.6625,-0.6115,-0.754,-0.8332,-0.8586,-0.9466,0.0,0.0,0.0,0.0,0.0,0.0,0.0,0.0,0.0,0.0,0.0,0.0,0.0,0.0,0.0,0.0,0.0,0.0,0.0,0.0,0.0,0.0,0.0,0.0,0.0,0.0,0.0,0.0,0.0,0.0,0.0,0.0,0.0,0.0,0.0,0.0,0.0,0.0,0.0,0.0,0.0,0.0,0.0,0.0,0.0,0.0,0.0,0.0,0.0,0.0,0.0,0.0,0.0,0.0,0.0,0.0,0.0,0.0,0.0,0.0,0.0,0.0,0.0,-0.9958,-0.9506,-0.8661,-0.8511,-0.8839,-0.9428,-0.7954,-0.7126,-0.6701,-0.5101,0.0,0.0,0.0,0.0,0.0,0.0,0.0,0.0,0.0,0.0,0.0,0.0,0.0,0.0,0.0,0.0,0.0,0.0,0.0,-0.5853,-0.6793,-0.7577,-0.823,-0.8703,-0.9454,-1.0028,-1.0387,-1.047,-1.0483,-1.0428,-1.0428,-1.0364,-1.0263,-1.0263,-0.9881,-0.9139,-0.8253,-0.8156,-0.8786,-0.9011,-0.9137,-0.9231,-1.009,-1.0058,-0.9396,0.0,0.0,0.0,0.0,0.0,0.0,0.0,0.0,0.0,0.0,0.0,0.0,0.0,0.0,0.0,0.0,0.0,0.0,0.0,0.0,0.0,0.0,0.0,0.0,0.0,0.0,0.0,0.0,0.0,0.0,0.0,0.0,0.0,0.0,0.0,0.0,0.0,0.0,0.0,0.0,0.0,-1.1517,-1.2516,0.0,0.0,0.0,0.0,0.0,0.0,0.0,0.0,0.0,0.0,0.0,0.0,0.0,-1.2856,-1.2856,-1.3545,-1.3416,-1.2512,-1.2512,-1.2104,-1.1291,-1.0566,-1.0333,-1.0428,-1.0193,0.0,-0.7643,-0.6668,0.0,0.0,0.0,0.0,0.0,0.0,0.0,0.0,0.0,0.0,0.0,0.0,0.0,0.0,0.0,0.0,0.0,0.0,0.0,0.0,0.0,-0.7917,-0.8437,-0.8169,-0.8623,-0.9202,-0.9843,-0.9881,-1.0079,-1.0593,-1.0593,-1.0593,-1.0593,-1.0593,-1.0174,-0.9306,-0.8909,-0.8678,-0.8581,-0.9075,-0.9306,-0.9338,-1.0206,-1.0403,-1.0047,-1.0428,0.0,0.0,0.0,0.0,0.0,0.0,0.0,0.0,0.0,0.0,0.0,0.0,0.0,0.0,0.0,0.0,0.0,0.0,0.0,0.0,0.0,0.0,0.0,0.0,0.0,0.0,0.0,0.0,0.0,0.0,0.0,0.0,0.0,0.0,0.0,0.0,0.0,0.0,0.0,-0.9579,-1.0791,-1.2158,-1.202,-1.2034,0.0,0.0,0.0,0.0,0.0,0.0,0.0,0.0,0.0,-1.6377,-1.5569,-1.5127,-1.5127,-1.5009,-1.4528,-1.3738,-1.3738,-1.326,-1.2397,-1.2054,-1.157,-1.1035,-1.0875,-1.036,-0.9563,-0.8538,-0.7673,-0.6917,0.0,0.0,0.0,0.0,-0.4573,-0.4294,0.0,0.0,0.0,0.0,0.0,0.0,0.0,0.0,0.0,0.0,0.0,0.0,-0.7407,-0.8023,-0.8238,-0.7678,-0.8058,-0.8613,-0.9274,-0.9498,-0.9913,-1.0561,-1.0593,-1.0593,-1.0593,-1.0364,-1.0047,-0.9626,-0.9402,-0.9069,-0.8672,-0.9332,-0.9748,-0.9964,-1.0604,-1.08,-1.0593,-1.0593,-1.0593,-1.0593,0.0,0.0,0.0,0.0,0.0,0.0,0.0,0.0,0.0,0.0,0.0,0.0,0.0,0.0,0.0,0.0,0.0,0.0,0.0,0.0,0.0,0.0,0.0,0.0,0.0,0.0,0.0,0.0,0.0,0.0,0.0,0.0,0.0,0.0,0.0,0.0,0.0,-0.9895,-1.0656,-1.2025,-1.2453,-1.2743,0.0,0.0,0.0,0.0,0.0,0.0,-1.6806,-1.7255,-1.7686,-1.8062,-1.7441,-1.6986,-1.6778,-1.6122,-1.5395,-1.4607,-1.4607,-1.4115,-1.3235,-1.3016,-1.2504,-1.1751,-1.1296,-1.1102,-1.1042,-1.0025,-0.9498,-0.9236,-0.8581,-0.778,-0.6941,-0.6941,-0.6542,-0.6103,0.0,0.0,0.0,0.0,0.0,0.0,0.0,0.0,0.0,0.0,0.0,-0.7412,-0.8581,-0.801,-0.7683,-0.7959,-0.8737,-0.9242,-0.9306,-1.0079,-1.0555,-1.0593,-1.0593,-1.0593,-1.0593,-0.9786,-0.9754,-1.053,-0.969,-0.969,-1.046,-1.0523,-1.0951,-1.1679,-1.171,-1.132,-1.0593,-1.0593,-1.0593,-1.0593,-1.0593,0.0,0.0,0.0,0.0,0.0,0.0,0.0,0.0,0.0,0.0,0.0,0.0,0.0,0.0,0.0,0.0,0.0,0.0,0.0,0.0,0.0,0.0,0.0,0.0,0.0,0.0,0.0,0.0,0.0,0.0,0.0,0.0,0.0,0.0,0.0,0.0,0.0,0.0,-1.3273,-1.4172,0.0,0.0,0.0,0.0,-1.7796,-1.7958,-1.8291,-1.9097,-1.916,-1.8824,-1.8047,-1.7955,-1.7533,-1.6719,-1.6665,-1.6233,-1.545,-1.545,-1.4997,-1.4213,-1.331,-1.2882,-1.2774,-1.1812,-1.1369,-1.1329,-1.0763,-1.0047,-0.9306,-0.9242,-0.871,-0.7924,-0.7924,-0.7892,-0.7989,0.0,0.0,0.0,0.0,0.0,-0.5218,-0.546,-0.6501,-0.7271,-0.7351,-0.7794,-0.7864,-0.7195,-0.7528,-0.7646,-0.7205,-0.7962,-0.8716,-0.9274,-0.9594,-1.0009,-1.0593,-1.0593,-1.0593,-1.0593,-1.0301,-1.0301,-1.0593,-1.0301,-1.0301,-1.0593,-1.0593,-1.1157,-1.2196,-1.2196,-1.247,-1.2929,-1.2367,-1.2151,-1.2151,-1.2151,-1.2461,0.0,0.0,0.0,0.0,0.0,0.0,0.0,0.0,0.0,0.0,0.0,0.0,0.0,0.0,0.0,0.0,0.0,0.0,0.0,0.0,0.0,0.0,0.0,0.0,0.0,0.0,0.0,0.0,0.0,0.0,0.0,0.0,0.0,0.0,0.0,0.0,0.0,-1.4739,-1.5588,0.0,-1.7434,-1.7316,-1.7749,-1.9034,-1.9739,-1.9943,-1.9582,-2.045,-2.0572,-1.9698,-1.9126,-1.8687,-1.8373,-1.7803,-1.7383,-1.7097,-1.6499,-1.6042,-1.5736,-1.4818,-1.4367,-1.4359,-1.3776,-1.3511,-1.3438,-1.2469,-1.1897,-1.1579,-1.1265,-1.1361,-1.151,-1.0719,-1.0777,-1.1121,0.0,0.0,0.0,-0.4491,-0.5054,-0.5597,-0.5842,-0.7185,-0.7999,-0.7464,-0.7961,-0.7959,-0.6904,-0.7256,-0.7437,-0.7177,-0.7924,-0.8678,-0.9274,-0.9562,-0.9983,-1.0561,-1.0593,-1.0593,-1.0593,-1.0593,-1.0593,-1.0593,-1.1005,-1.1206,-1.1213,-1.1656,-1.2421,-1.3437,-1.3437,-1.4053,-1.5068,-1.4501,-1.3932,-1.3434,-1.3434,-1.3765,-1.423,0.0,0.0,0.0,0.0,0.0,0.0,0.0,0.0,0.0,0.0,0.0,0.0,0.0,0.0,0.0,0.0,0.0,0.0,0.0,0.0,0.0,0.0,0.0,0.0,0.0,0.0,0.0,0.0,0.0,0.0,0.0,0.0,0.0,0.0,0.0,-1.4918,-1.5652,-1.6733,-1.7799,-1.8765,-1.8909,-1.9457,-2.0734,-2.1463,-2.1554,-2.0892,-2.1768,-2.1772,-2.0655,-2.0042,-1.9464,-1.8888,-1.8303,-1.8008,-1.7974,-1.7354,-1.707,-1.7035,-1.6114,-1.5685,-1.5641,-1.5116,-1.4869,-1.4818,-1.4013,-1.385,-1.4032,-1.2867,-1.2821,-1.3316,-1.2822,-1.2987,-1.3278,0.0,-0.4491,-0.4491,-0.4491,-0.5085,-0.5792,-0.6512,-0.7539,-0.8267,-0.8364,-0.7862,-0.7625,-0.7936,-0.7242,-0.7079,-0.7962,-0.8844,-0.9338,-0.9338,-1.0142,-1.0593,-1.0593,-1.0593,-1.0593,-1.0593,-1.06,-1.0638,-1.067,-1.185,-1.2425,-1.2497,-1.3729,-1.4746,-1.5533,-1.5533,-1.5978,-1.6746,-1.6746,-1.5836,-1.4411,-1.4386,-1.4844,-1.5574,0.0,0.0,0.0,0.0,0.0,0.0,0.0,0.0,0.0,0.0,0.0,0.0,0.0,0.0,0.0,0.0,0.0,0.0,0.0,0.0,0.0,0.0,0.0,0.0,0.0,0.0,0.0,0.0,0.0,0.0,0.0,0.0,0.0,-1.4571,-1.5078,-1.5707,-1.6092,-1.7613,-1.8828,-1.9273,-2.0138,-2.1322,-2.2914,-2.3078,-2.3035,-2.2944,-2.2975,-2.2249,-2.0558,-2.0526,-1.9694,-1.8027,-1.8027,-1.8037,-1.8047,-1.8013,-1.8013,-1.8013,-1.7072,-1.6673,-1.6638,-1.5727,-1.5338,-1.5338,-1.5338,-1.586,-1.6383,-1.3956,-1.299,-1.3158,-1.4024,-1.4312,-1.4312,-0.446,-0.4491,-0.4491,-0.4491,-0.5496,-0.6447,-0.6888,-0.8279,-0.892,-0.7873,-0.7824,-0.7666,-0.7107,-0.7405,-0.7994,-0.8877,-0.9748,-1.0238,-1.0238,-1.0466,-1.0593,-1.0593,-1.0593,-1.0593,-1.0593,-1.0801,-1.1226,-1.1897,-1.2482,-1.3096,-1.3778,-1.4139,-1.4875,-1.5942,-1.5942,-1.6557,-1.7623,-1.7623,-1.7379,-1.6934,-1.6308,-1.6381,-1.6894,0.0,0.0,0.0,0.0,0.0,0.0,0.0,0.0,0.0,0.0,0.0,0.0,0.0,0.0,0.0,0.0,0.0,0.0,0.0,0.0,0.0,0.0,0.0,0.0,0.0,0.0,0.0,0.0,0.0,0.0,0.0,-1.5825,-1.6433,-1.6036,-1.6747,-1.7807,-1.9178,-1.9748,-2.0581,-2.1887,-2.2255,-2.2082,-2.1353,-2.2402,-2.2009,-1.9519,-2.0611,-2.0494,-1.8754,-1.8721,-1.8612,-1.8432,-1.8432,-1.8623,-1.8936,-1.8233,-1.8269,-1.89,-1.797,-1.7924,-1.8557,-1.8296,-1.8187,-1.8178,-1.8165,-1.7923,-1.7379,-1.5721,-1.5519,-1.6083,-1.5405,-1.4802,-1.4378,-0.4436,-0.4491,-0.4491,-0.4491,-0.566,-0.6718,-0.7054,-0.8587,-0.9185,-0.769,-0.7788,-0.7795,-0.7307,-0.7697,-0.8511,-0.9722,-1.0301,-1.0593,-1.0593,-1.0593,-1.0593,-1.0593,-1.0926,-1.0989,-1.0767,-1.1254,-1.1661,-1.1994,-1.3106,-1.3944,-1.4472,-1.5411,-1.6218,-1.6885,-1.6885,-1.7307,-1.8008,-1.8008,-1.8008,-1.7969,-1.7438,-1.7422,-1.7646,-1.7646,-1.7803,-1.8008,-1.8008,-1.7647,-1.7285,-1.7828,0.0,0.0,0.0,0.0,0.0,0.0,0.0,0.0,0.0,0.0,0.0,0.0,0.0,0.0,0.0,0.0,0.0,0.0,0.0,0.0,0.0,0.0,0.0,0.0,-1.6576,-1.7182,-1.7182,-1.7969,-1.9044,-2.043,-2.059,-2.0974,-2.1959,-2.2372,-2.2187,-2.1239,-2.2372,-2.2237,-2.0257,-2.1328,-2.139,-2.0016,-1.9771,-1.9634,-1.9525,-1.911,-1.9043,-1.9287,-1.8765,-1.8756,-1.9287,-1.8719,-1.8792,-1.9287,-1.9287,-1.9287,-1.9287,-1.9291,-1.9245,0.0,0.0,0.0,0.0,0.0,-1.6265,-1.5933,-0.4377,-0.4491,-0.4491,-0.4491,-0.566,-0.6723,-0.7089,-0.8519,-0.9073,-0.7726,-0.774,-0.7897,-0.7994,-0.7994,-0.8705,-1.046,-1.0593,-1.0593,-1.0593,-1.0593,-1.0593,-1.0593,-1.1317,-1.1499,-1.1022,-1.1884,-1.2156,-1.1772,-1.3881,-1.4984,-1.5129,-1.7082,-1.8008,-1.8008,-1.8008,-1.8008,-1.8008,-1.8008,-1.8008,-1.8008,-1.8008,-1.8008,-1.8008,-1.8008,-1.8008,-1.8008,-1.8008,-1.794,-1.7862,-1.7974,0.0,0.0,0.0,0.0,0.0,0.0,0.0,0.0,0.0,0.0,0.0,0.0,0.0,0.0,0.0,0.0,0.0,0.0,0.0,0.0,0.0,0.0,0.0,0.0,-1.7389,-1.8008,-1.8008,-1.8754,-1.9595,-2.0365,-2.0526,-2.0655,-2.0751,-2.1522,-2.2013,-2.1908,-2.272,-2.3105,-2.291,0.0,0.0,0.0,0.0,-2.1666,-2.0874,-1.999,-1.9521,-1.9434,-1.9434,-1.9434,-1.9434,-1.9434,-1.9434,-1.9434,-1.9434,-1.9434,-1.947,-1.957,-2.0175,-2.0882,-1.9474,-1.8331,-1.7504,-1.7969,-1.8154,-1.8154,-0.446,-0.4491,-0.4491,-0.4491,-0.566,-0.6779,-0.7324,-0.8129,-0.8466,-0.7973,-0.7344,-0.7209,-0.7929,-0.7994,-0.8705,-1.046,-1.0593,-1.0593,-1.0593,-1.0593,-1.0593,-1.0593,-1.0975,-1.1125,-1.0989,-1.2364,-1.3397,-1.4068,-1.5532,-1.6631,-1.7353,-1.7799,-1.8008,-1.8008,-1.8008,-1.8008,-1.8008,-1.8008,-1.8008,-1.8008,-1.8008,-1.8008,-1.8008,-1.8008,-1.8008,-1.8008,-1.8008,-1.7501,-1.6991,-1.7759,-1.7501,-1.6957,-1.7535,-1.7862,0.0,0.0,0.0,0.0,0.0,0.0,0.0,0.0,0.0,0.0,0.0,0.0,0.0,0.0,0.0,0.0,0.0,0.0,0.0,-1.6558,-1.7389,-1.8008,-1.8008,-1.8754,-1.9365,-1.9529,-2.0171,-2.0878,-2.1585,-2.2384,-2.261,-2.1939,-2.309,-2.3198,-2.1807,-2.293,-2.3181,-2.232,-2.2207,-2.1901,-2.1302,-2.1084,-2.0764,-2.0351,0.0,0.0,-2.0351,-2.0351,-2.0351,-2.0351,-2.0351,-2.0351,-2.0389,-2.1148,-2.1886,-2.236,-2.0952,-1.9768,-1.8923,-1.9,-1.9043,-1.9043,-0.4491,-0.4491,-0.4491,-0.4491,-0.5797,-0.7005,-0.7431,-0.8503,-0.9096,-0.8698,-0.8258,-0.8156,-0.8613,-0.8646,-0.9166,-1.0491,-1.0593,-1.0593,-1.0593,-1.0593,-1.0876,-1.1468,-1.1546,-1.1996,-1.2811,-1.3553,-1.4268,-1.496,-1.6044,-1.6853,-1.732,-1.7794,-1.8008,-1.8008,-1.8008,-1.8008,-1.8008,-1.8008,-1.8008,-1.8008,-1.8008,-1.8008,-1.8008,-1.8008,-1.8008,-1.8008,-1.8008,-1.7681,-1.7354,-1.7828,-1.7681,-1.7285,-1.7285,-1.7613,-1.7998,0.0,0.0,0.0,0.0,0.0,0.0,0.0,0.0,0.0,0.0,0.0,0.0,0.0,0.0,-1.534,-1.5825,0.0,-1.674,-1.7207,-1.7681,-1.8008,-1.8008,-1.8361,-1.8977,-1.9846,-2.0719,-2.1428,-2.1846,-2.2887,-2.3214,-2.2365,-2.3594,-2.403,-2.3153,-2.4008,-2.4366,-2.3905,-2.3722,-2.3229,-2.2466,-2.1951,-2.134,-2.0605,-2.0605,-2.0605,-2.0605,-2.0605,-2.0605,-2.0605,-2.0605,-2.0857,-2.1375,-2.2339,-2.2635,-2.2371,-2.1659,-2.1108,-2.0744,-2.0744,-2.0744,-2.0744,-0.4491,-0.4491,-0.4491,-0.4491,-0.5931,-0.719,-0.7447,-0.8824,-0.9723,-0.9334,-0.9139,-0.9107,-0.9274,-0.9306,-0.9658,-1.0523,-1.0744,-1.0776,-1.0624,-1.0593,-1.1065,-1.2079,-1.226,-1.2997,-1.4396,-1.4753,-1.5109,-1.5473,-1.6393,-1.6888,-1.6888,-1.7647,-1.8008,-1.8008,-1.8008,-1.8008,-1.8008,-1.8008,-1.8008,-1.8008,-1.8008,-1.8008,-1.8008,-1.8008,-1.8008,-1.8008,-1.8008,-1.8008,-1.8008,-1.8008,-1.8008,-1.7872,-1.7104,-1.7389,-1.8032,-1.8137,-1.8293,0.0,0.0,0.0,0.0,0.0,0.0,0.0,0.0,0.0,-1.5728,-1.5728,-1.5728,-1.5974,-1.674,-1.6888,-1.7166,-1.7968,-1.8135,-1.8164,-1.8252,-1.8551,-1.9303,-2.0708,-2.1243,-2.1614,-2.191,-2.3089,-2.3656,-2.3152,-2.4258,-2.4873,-2.471,-2.5373,-2.5581,-2.5185,-2.5246,-2.4624,-2.322,-2.259,-2.1707,-2.0605,-2.0789,-2.0789,-2.0605,-2.0789,-2.0789,-2.0605,-2.0789,-2.1298,-2.2065,-2.3073,-2.3147,-2.259,-2.259,-2.2636,-2.2696,-2.2303,-2.2268,-2.2442,-0.4491,-0.4491,-0.4491,-0.4491,-0.5931,-0.719,-0.7447,-0.8331,-0.9019,-0.9265,-0.8619,-0.8452,-0.9204,-0.9306,-0.9658,-1.0523,-1.1257,-1.1351,-1.0656,-1.0593,-1.0784,-1.114,-1.224,-1.3021,-1.3461,-1.5385,-1.6383,-1.6428,-1.7398,-1.7828,-1.7872,-1.794,-1.8008,-1.8008,-1.8008,-1.8008,-1.8008,-1.8008,-1.8008,-1.8008,-1.8008,-1.8008,-1.8008,-1.8008,-1.8008,-1.8008,-1.8008,-1.8008,-1.8008,-1.8008,-1.8008,-1.7974,-1.7862,-1.7906,-1.8134,-1.8934,-1.9481,-2.0043,-2.0941,-2.1074,-2.0808,-1.9931,-1.929,-1.8623,0.0,0.0,-1.7691,-1.7691,-1.7691,-1.7725,-1.7828,-1.7828,-1.7988,-1.8471,-1.8529,-1.8666,-1.9092,-2.0551,-2.164,-2.1811,-2.0823,-2.0624,-2.1868,-2.2814,-2.3715,-2.4526,-2.5144,-2.5144,-2.432,-2.5629,-2.5589,-2.38,-2.5428,-2.4981,-2.2215,-2.2925,-2.2414,-2.0605,-2.1451,-2.1413,-2.0644,-2.1441,-2.1375,-2.0644,-2.1479,-2.1886,-2.2065,-2.3073,-2.3963,-2.4671,-2.4671,-2.4672,-2.446,-2.2687,-2.2576,-2.3346,-0.4491,-0.4563,-0.4624,-0.4624,-0.5694,-0.6821,-0.7512,-0.8017,-0.8747,-0.9901,-0.93,-0.9102,-0.9945,-1.0047,-1.0206,-1.0561,-1.0895,-1.0958,-1.0624,-1.0754,-1.1197,-1.2059,-1.2784,-1.3788,-1.5202,-1.6131,-1.6853,-1.7398,-1.7794,-1.8008,-1.8008,-1.8008,-1.8008,-1.8008,-1.8008,-1.8008,-1.8008,-1.8008,-1.8008,-1.8008,-1.8008,-1.8008,-1.8008,-1.8008,-1.8008,-1.8076,-1.8553,-1.8754,0.0,-1.8754,-1.8754,-1.8654,-1.8168,-1.8574,-1.9403,-2.0267,-2.0895,-2.1315,-2.1397,-2.1385,-2.1218,-2.0578,-2.0468,-2.0257,-1.9335,-1.9379,-1.9469,-1.8891,-1.875,-1.875,-1.875,-1.875,-1.8809,0.0,-1.9494,-1.9945,-2.014,-2.1296,-2.2228,-2.2485,-2.1991,-2.2182,-2.3501,-2.4244,-2.4805,-2.5227,-2.5787,-2.5965,-2.5541,-2.6155,-2.5838,-2.4409,-2.5182,-2.4469,-2.2027,-2.268,-2.2677,-2.1937,-2.1937,-2.2049,-2.2276,-2.2049,-2.171,-2.1449,-2.3041,-2.3369,-2.2786,-2.3214,-2.4023,-2.4955,-2.4377,-2.4868,-2.5813,-2.4943,-2.4505,-2.4445,-0.4545,-0.4644,-0.4718,-0.4799,-0.5408,-0.631,-0.7531,-0.8069,-0.8903,-1.0396,-1.0047,-0.9888,-1.053,-1.0807,-1.0832,-1.0624,-1.0807,-1.0832,-1.0624,-1.0861,-1.1448,-1.2422,-1.3018,-1.4209,-1.6166,-1.6463,-1.707,-1.8008,-1.8008,-1.8008,-1.8008,-1.8008,-1.8008,-1.8008,-1.8008,-1.8008,-1.8008,-1.8008,-1.8008,-1.8008,-1.8008,-1.8008,-1.8008,-1.8008,-1.8008,-1.811,-1.8977,-1.9299,-1.9353,-1.9744,-1.9886,-1.9775,-1.9318,-1.9839,-2.0856,-2.1721,-2.2522,-2.3106,-2.2884,-2.2676,0.0,-2.1768,-2.1794,-2.1732,-2.0777,-2.0885,-2.0921,-1.9919,-1.9919,-1.9945,-1.9396,-1.9739,-2.0057,-1.9899,-2.073,-2.1414,-2.1543,-2.2356,-2.3097,-2.3428,-2.3722,-2.4256,-2.5178,-2.5365,-2.5542,-2.5837,-2.626,-2.6383,-2.6094,-2.6349,-2.5908,-2.4636,-2.5254,-2.4533,-2.2227,-2.2949,-2.3086,-2.2606,-2.2382,-2.2574,-2.3041,-2.2267,-2.204,-2.2431,-2.4219,-2.4709,-2.4215,-2.4502,-2.4943,-2.5354,-2.4943,-2.532,-2.6205,-2.6754,-2.647,-2.5948,-0.4653,-0.4687,-0.4779,-0.5036,-0.5121,-0.5714,-0.7432,-0.8581,-0.9594,-1.0466,-1.0593,-1.0561,-1.0593,-1.1288,-1.1437,-1.0688,-1.132,-1.1437,-1.0649,-1.0861,-1.1122,-1.1444,-1.2638,-1.3902,-1.5226,-1.614,-1.707,-1.8008,-1.8008,-1.8008,-1.8008,-1.8008,-1.8008,-1.8008,-1.8008,-1.8008,-1.8008,-1.8008,-1.8008,-1.8008,-1.8008,-1.8008,-1.8008,-1.8008,-1.8008,-1.811,-1.8977,-1.9299,-1.9505,-2.0875,-2.1341,-2.1419,-2.1924,-2.2093,-2.2309,-2.3166,-2.4429,-2.5619,-2.6205,-2.5941,-2.5257,-2.4386,-2.3823,-2.3211,-2.2343,-2.215,-2.1886,-2.0966,-2.147,-2.154,-1.963,-2.085,-2.1937,-2.1406,-2.2168,-2.2979,-2.3366,-2.429,-2.4933,-2.4945,-2.5779,-2.6393,0.0,-2.5592,-2.5417,-2.6393,-2.6487,-2.606,-2.5087,-2.599,-2.5569,-2.3599,-2.5924,-2.5778,-2.2709,-2.4182,-2.3931,-2.1948,-2.2828,-2.2798,-2.1967,-2.1926,-2.2462,-2.3503,-2.4563,-2.5562,-2.6602,-2.7545,-2.7372,-2.6536,-2.757,-2.6776,-2.5304,-2.7286,-2.801,-2.8023,-0.468,-0.485,-0.4982,-0.5079,-0.5216,-0.5701,-0.6847,-0.6848,-0.7218,-0.8672,-0.9396,0.0,0.0,0.0,0.0,0.0,-1.0839,-1.0946,-1.0868,-1.1122,-1.141,-1.171,-1.2913,-1.3777,-1.4207,-1.579,-1.674,-1.707,-1.7681,-1.8008,-1.8008,-1.8008,-1.8008,-1.8008,-1.8008,-1.8008,-1.8008,-1.8008,-1.8008,-1.8008,-1.8008,-1.8008,-1.8008,-1.8008,-1.8008,-1.8202,0.0,-2.038,-2.0776,-2.1229,-2.201,-2.2733,-2.2309,-2.2857,-2.3845,-2.5108,-2.5843,-2.616,-2.5971,-2.5737,-2.5444,-2.4773,-2.4744,-2.4633,-2.3741,-2.3804,-2.3792,-2.2781,-2.2853,-2.2842,-2.22,-2.2625,-2.3005,-2.2809,-2.364,-2.433,-2.4469,-2.5358,-2.599,-2.599,-2.628,0.0,0.0,0.0,0.0,-2.6452,-2.6499,-2.6349,-2.6025,-2.6664,-2.639,-2.5068,-2.6212,-2.604,-2.4371,-2.5121,-2.5565,-2.5605,-2.5488,-2.4875,-2.3812,-2.3812,-2.3612,-2.3358,-2.5204,-2.5765,-2.5499,-2.6571,-2.727,-2.7584,-2.7975,-2.7651,-2.7128,-2.7858,-2.8104,-2.811,0.0,-0.4968,-0.5117,-0.5203,-0.5327,0.0,0.0,0.0,0.0,0.0,0.0,0.0,0.0,0.0,0.0,0.0,0.0,-1.0713,-1.0975,-1.1599,-1.2067,-1.2382,-1.3566,-1.4378,-1.4728,-1.5965,-1.674,-1.7104,-1.7681,-1.8008,-1.8008,-1.8008,-1.8008,-1.8008,-1.8008,-1.8008,-1.8008,-1.8008,-1.8008,-1.8008,-1.8008,-1.8008,-1.8008,-1.8008,-1.8008,0.0,-1.9628,-2.0676,-2.1518,-2.2329,-2.3346,-2.4193,-2.3854,-2.4345,-2.5279,-2.6236,-2.6499,-2.6411,-2.6034,-2.59,-2.5858,-2.5485,-2.5661,-2.5765,-2.5152,-2.5303,-2.5252,-2.4228,-2.4325,-2.4361,-2.3624,-2.4108,-2.4433,-2.4072,-2.4886,-2.5558,-2.5558,-2.6094,-2.6499,-2.6499,-2.6499,-2.6499,0.0,0.0,0.0,-2.6499,-2.6499,-2.6575,-2.6776,-2.7128,-2.7094,-2.6639,-2.715,-2.6938,-2.5965,-2.6393,-2.6805,-2.7135,-2.6694,-2.6099,-2.542,-2.542,-2.521,-2.4957,-2.6461,-2.6666,-2.6025,-2.6789,-2.7035,-2.7012,-2.7804,-2.7855,-2.7602,-2.8438,-2.8727,-2.867,0.0,0.0,-0.5189,0.0,0.0,0.0,0.0,0.0,0.0,0.0,0.0,0.0,0.0,0.0,0.0,0.0,0.0,0.0,-1.0995,-1.221,-1.3033,-1.3302,-1.4524,-1.5623,-1.6498,-1.6567,-1.7035,-1.794,-1.7974,-1.8008,-1.8008,-1.8008,-1.8008,-1.8008,-1.8008,-1.8008,-1.8008,-1.8008,-1.8008,-1.8008,-1.8008,-1.8008,-1.8008,-1.8008,-1.8042,-1.8168,-1.9011,-2.0215,-2.1795,-2.3981,-2.5151,-2.5737,-2.6323,-2.6499,-2.6499,-2.6499,-2.6499,-2.6499,-2.6499,-2.6499,-2.6499,-2.6499,-2.6499,-2.6499,-2.6499,-2.6499,-2.6245,-2.5264,-2.5838,-2.5908,0.0,0.0,-2.6198,-2.5229,-2.5886,-2.6499,-2.6555,-2.6555,-2.6555,0.0,0.0,0.0,0.0,0.0,0.0,-2.6593,0.0,-2.6763,-2.7256,-2.7344,-2.7607,-2.8134,-2.865,-2.8446,-2.7436,-2.7925,-2.7695,-2.6689,-2.6595,-2.6595,-2.6595,-2.6524,-2.7046,-2.8004,-2.8096,-2.8096,-2.8096,-2.8176,-2.6942,-2.5157,-2.7267,-2.74,-2.6678,-2.8843,-2.9624,-2.9495,0.0,0.0,0.0,0.0,0.0,0.0,0.0,0.0,0.0,0.0,0.0,0.0,0.0,0.0,0.0,0.0,0.0,0.0,-1.1283,-1.2292,-1.3104,-1.3596,-1.4617,-1.5305,-1.5544,-1.6245,-1.6706,-1.6957,-1.7647,-1.8008,-1.8008,-1.8008,-1.8008,-1.8008,-1.8008,-1.8008,-1.8008,-1.8008,-1.8008,-1.8008,-1.8008,-1.8008,-1.8008,-1.8008,-1.8395,-1.9011,-1.921,-2.061,-2.2539,-2.3499,-2.4924,-2.6298,-2.6449,-2.6499,-2.6499,-2.6499,-2.6499,-2.6499,-2.6499,-2.6499,-2.6499,-2.6499,-2.6499,-2.6499,-2.6499,-2.6499,-2.6418,-2.6164,-2.6314,-2.6349,0.0,0.0,0.0,-2.6164,-2.6349,0.0,-2.7317,-2.7384,0.0,-2.7384,0.0,-2.7162,-2.6555,-2.704,0.0,0.0,-2.7496,-2.7165,-2.7268,-2.8059,-2.8537,-2.8675,-2.9277,-2.945,-2.9155,-2.9303,-2.9236,-2.8961,-2.8108,-2.7683,-2.7643,-2.6842,-2.6637,-2.6964,-2.7763,-2.8096,-2.8176,-2.9028,-2.853,-2.7308,-2.7884,-2.6942,-2.542,-2.6801,-2.7342,-2.7424,0.0,0.0,0.0,0.0,0.0,0.0,0.0,0.0,0.0,0.0,0.0,0.0,0.0,0.0,0.0,0.0,0.0,0.0,0.0,-1.2732,-1.3776,-1.4319,-1.5693,-1.6446,-1.6446,-1.6932,-1.7217,-1.7217,-1.7759,-1.8008,-1.8008,-1.8008,-1.8008,-1.8008,-1.8008,-1.8008,-1.8008,-1.8008,-1.8008,0.0,0.0,-1.8008,-1.8008,-1.8008,-1.8303,-1.8787,-1.9177,-2.0785,-2.2766,-2.3323,-2.467,-2.616,-2.6411,-2.6499,-2.6499,-2.6499,0.0,-2.6499,-2.6499,-2.6499,-2.6499,-2.6499,-2.6499,-2.6499,-2.6499,-2.6499,-2.6499,-2.6499,-2.6499,-2.6499,-2.6499,-2.6782,0.0,0.0,0.0,0.0,-2.7703,-2.7703,-2.7571,0.0,-2.7484,0.0,-2.6589,-2.7229,-2.7807,0.0,-2.7932,-2.8081,-2.863,-2.8809,-2.9001,-2.9302,-2.9616,-2.9792,-2.9792,-2.9792,-2.9792,-2.9792,-2.9157,-2.8858,-2.8819,-2.8199,-2.7971,-2.7971,0.0,-2.8557,-2.8136,-2.8806,-2.8398,-2.7441,-2.7936,-2.7348,-2.6315,-2.6953,-2.7197,-2.7209,0.0,0.0,0.0,0.0,0.0,0.0,0.0,0.0,0.0,0.0,-0.6268,-0.7177,0.0,0.0,0.0,0.0,0.0,0.0,0.0,0.0,-1.4487,-1.5174,-1.6872,-1.7862,-1.8008,-1.8008,-1.8008,-1.8008,-1.8008,-1.8008,-1.8008,-1.8008,-1.8008,-1.8008,-1.8008,-1.8008,-1.8008,-1.8008,-1.8008,-1.8008,-1.8008,-1.8008,-1.8008,0.0,-1.8076,-1.8303,-1.9177,-2.0729,-2.253,-2.3161,-2.4368,-2.5699,-2.6311,-2.6499,-2.6499,-2.6499,-2.6499,-2.6499,-2.6499,-2.6499,-2.6499,-2.6499,-2.6499,-2.6499,-2.6499,-2.6499,-2.6499,-2.6499,-2.6499,-2.6499,-2.6499,-2.7061,-2.7571,-2.767,0.0,-2.8652,-2.8117,-2.7953,-2.7604,-2.6905,-2.7351,-2.7384,-2.6589,-2.7229,-2.7657,-2.7614,-2.8218,-2.9092,-3.0128,-2.9574,-2.9441,-2.9985,-2.9856,-2.9792,-2.9792,-2.9792,-2.9792,-2.9792,-2.9792,-2.9792,-2.9792,-2.9792,-2.9792,-2.9792,-2.9792,-2.9236,-2.8347,-2.8347,-2.7695,-2.6801,-2.7723,-2.8016,-2.7884,-2.8056,-2.8096,-2.7976,0.0,0.0,0.0,0.0,0.0,0.0,0.0,0.0,0.0,-0.5395,-0.6793,-0.7832,0.0,0.0,0.0,0.0,0.0,0.0,0.0,0.0,0.0,-1.5147,-1.6254,-1.7217,-1.7974,-1.8008,-1.8008,-1.8008,-1.8008,-1.8008,-1.8008,-1.8008,-1.8008,-1.8008,-1.8008,-1.8008,-1.8008,-1.8008,-1.8008,-1.8008,-1.8008,-1.8008,-1.8008,-1.8008,0.0,0.0,-2.0074,-2.0614,-2.1147,-2.2421,-2.4063,-2.5699,-2.6311,-2.6499,-2.6499,-2.6499,-2.6499,-2.6499,-2.6499,-2.6499,-2.6499,-2.6499,-2.6499,-2.6499,-2.6499,-2.6499,0.0,-2.6499,-2.6499,-2.6499,-2.6499,-2.6624,-2.6939,-2.7571,-2.7835,-2.8363,-2.9659,-2.9223,-2.8716,0.0,-2.8051,-2.7384,-2.6589,-2.7229,0.0,0.0,0.0,-2.9233,-2.9137,-3.0206,-3.0865,-3.097,-3.0216,-2.9792,-2.9792,-2.9792,-2.9792,-2.9792,-2.9792,-2.9792,-2.9792,-2.9792,-2.9792,-2.9792,-2.9792,0.0,-2.9495,-2.9495,-2.8858,-2.7844,-2.8044,-2.7574,-2.6883,-2.7763,-2.8096,-2.8215,0.0,0.0,0.0,0.0,0.0,0.0,-0.5395,-0.5395,-0.5395,-0.5395,-0.6924,-0.7994,-0.7994,-0.9166,-1.011,0.0,0.0,0.0,0.0,0.0,0.0,0.0,-1.6105,-1.7035,-1.7974,-1.8008,-1.8008,-1.8008,0.0,-1.8008,-1.8008,-1.8008,-1.8008,-1.8008,-1.8008,-1.8008,-1.8008,-1.8008,-1.8008,-1.8008,-1.8008,-1.8008,-1.8008,0.0,0.0,0.0,0.0,-1.9529,-2.0151,-2.1556,-2.3128,-2.4697,-2.569,-2.6248,-2.6499,-2.6499,-2.6499,-2.6499,-2.6499,-2.6499,-2.6499,-2.6499,-2.6499,-2.6499,-2.6499,0.0,0.0,-2.6499,-2.6499,-2.6499,-2.6499,-2.685,0.0,-2.7637,-2.846,-2.9034,-2.8971,-2.8971,0.0,-2.8363,-2.7953,-2.7537,0.0,-2.8199,0.0,0.0,0.0,-2.9961,-3.0106,-3.0327,-3.0482,-3.0482,-3.0037,-2.9792,-2.9792,-2.9792,-2.9792,-2.9792,-2.9792,-2.9792,-2.9792,-2.9792,-2.9792,-2.9792,-2.9792,-2.9792,-2.9792,-2.9792,-2.9495,-2.8976,-2.8976,-2.8661,-2.8211,-2.8136,-2.8096,-2.8096,0.0,0.0,0.0,0.0,0.0,0.0,-0.5395,-0.5395,-0.5395,-0.5395,-0.6924,-0.7994,-0.7994,-0.8941,-0.9874,0.0,0.0,0.0,0.0,0.0,0.0,0.0,0.0,0.0,0.0,0.0,0.0,-1.8008,-1.8008,0.0,0.0,0.0,0.0,0.0,-1.8008,-1.8008,-1.8008,-1.8008,-1.8008,0.0,0.0,-1.8008,0.0,0.0,0.0,0.0,0.0,-1.8721,-1.9517,-2.1006,-2.2408,-2.3718,-2.5021,-2.59,-2.6499,-2.6499,-2.6499,-2.6499,-2.6499,-2.6499,-2.6499,-2.6499,-2.6499,-2.6499,-2.6499,-2.6499,0.0,-2.6499,-2.6499,-2.6499,-2.6499,-2.704,-2.7517,0.0,-2.8844,-2.9317,-2.8149,-2.8556,-2.8748,0.0,-2.7986,0.0,-2.7986,-2.9184,0.0,0.0,0.0,0.0,-3.1191,-3.0317,-2.9895,-3.0113,-2.9895,-2.9792,-2.9792,-2.9792,-2.9792,-2.9792,-2.9792,-2.9792,-2.9792,-2.9792,-2.9792,-2.9792,-2.9792,-2.9792,-2.9792,-2.9792,-2.9792,-2.9792,-2.9792,-2.9792,-2.9702,-2.8806,-2.8466,-2.8347,0.0,0.0,0.0,0.0,0.0,0.0,-0.5395,-0.5395,-0.5395,-0.5395,-0.6924,-0.7994,-0.7994,-0.9486,-1.0597,0.0,0.0,0.0,0.0,0.0,0.0,0.0,0.0,0.0,0.0,0.0,0.0,-1.8008,-1.8008,0.0,0.0,0.0,0.0,0.0,0.0,-1.8008,-1.8008,-1.8008,0.0,0.0,0.0,0.0,0.0,0.0,0.0,0.0,0.0,-1.9243,-1.9562,-2.1285,-2.2582,-2.3646,-2.4566,-2.5611,-2.6499,-2.6499,0.0,0.0,-2.6499,-2.6499,-2.6499,-2.6499,-2.6499,-2.6499,-2.6499,0.0,-2.6499,-2.6499,-2.6499,-2.6499,-2.6499,-2.6555,-2.685,-2.7571,-2.7835,-2.8149,-2.878,-2.8939,-2.8971,-2.8907,0.0,0.0,-2.8876,0.0,0.0,0.0,0.0,0.0,-3.1241,-3.0317,-3.0177,-3.1044,-3.0241,-2.9792,-2.9792,-2.9792,-2.9792,-2.9792,-2.9792,-2.9792,-2.9792,-2.9792,-2.9792,-2.9792,-2.9792,-2.9792,0.0,-2.9792,-2.9792,-2.9792,-2.9792,-2.9792,-2.9792,-2.9663,-2.9624,-2.9624,0.0,0.0,0.0,0.0,0.0,0.0,-0.5395,-0.5395,-0.5591,-0.6108,-0.7246,-0.8188,-0.8716,-1.0025,-1.0868,-1.0982,-1.1263,0.0,0.0,0.0,0.0,0.0,0.0,0.0,0.0,0.0,-1.7432,-1.8008,-1.8008,0.0,0.0,0.0,0.0,0.0,0.0,-1.8008,-1.8008,-1.8008,0.0,0.0,0.0,0.0,0.0,0.0,0.0,0.0,0.0,0.0,-1.8687,-1.9911,-2.1405,-2.2887,-2.3746,-2.5148,-2.6499,0.0,-2.6499,-2.6499,-2.6499,-2.6499,-2.6499,-2.6499,-2.6499,-2.6499,-2.6499,-2.6499,-2.6499,-2.6499,-2.6499,-2.6499,-2.6499,-2.6499,-2.6589,-2.6939,-2.7384,0.0,-2.7517,-2.792,-2.8395,-2.8939,-2.8524,0.0,0.0,0.0,0.0,0.0,0.0,0.0,-3.1278,-3.1365,-3.1402,-3.1217,-3.0833,-3.0381,-2.9792,-2.9792,-2.9792,-2.9792,-2.9792,-2.9792,-2.9792,-2.9792,-2.9792,-2.9792,-2.9792,-2.9792,0.0,-2.9792,-2.9792,-2.9792,-2.9792,-2.9792,-2.9792,-2.9792,-2.9792,-2.9792,0.0,0.0,0.0,0.0,0.0,-0.5395,-0.5395,-0.5395,-0.5719,-0.6593,-0.7522,-0.8456,-0.932,-1.0442,-1.1156,-1.1243,-1.1436,0.0,0.0,0.0,0.0,0.0,0.0,0.0,0.0,0.0,-1.6922,-1.7579,-1.7862,-1.8008,0.0,0.0,0.0,0.0,0.0,0.0,0.0,0.0,0.0,0.0,0.0,0.0,0.0,0.0,0.0,0.0,0.0,0.0,0.0,0.0,0.0,-2.24,-2.3535,-2.508,-2.6499,-2.6499,-2.6499,-2.6499,-2.6499,-2.6499,-2.6499,-2.6499,-2.6499,-2.6499,-2.6499,-2.6499,-2.6499,-2.6499,-2.6499,-2.6499,-2.6499,-2.6499,-2.6499,-2.6499,-2.6973,-2.7162,-2.6589,-2.7196,-2.792,0.0,0.0,0.0,0.0,0.0,0.0,0.0,0.0,0.0,-3.2105,-3.2393,-3.2177,-3.1217,-3.1217,-3.0871,-3.0203,-2.9934,-2.9792,-2.9792,-2.9792,-2.9792,-2.9792,-2.9792,-2.9792,-2.9792,-2.9792,-2.9792,0.0,-2.9792,-2.9792,-2.9792,-2.9792,-2.9792,-2.9792,-2.9792,-2.9792,-2.9792,0.0,0.0,0.0,0.0,0.0,-0.5395,-0.5395,-0.5395,-0.5719,-0.6593,-0.7679,-0.8728,-0.9616,-1.0702,-1.1543,-1.1873,-1.1899,0.0,0.0,0.0,0.0,0.0,0.0,0.0,-1.5199,-1.6105,-1.6602,-1.6593,-1.7545,-1.8008,-1.8008,-1.8008,-1.8008,-1.8008,0.0,0.0,0.0,0.0,0.0,0.0,0.0,0.0,-1.8008,0.0,0.0,0.0,0.0,0.0,0.0,0.0,0.0,0.0,0.0,-2.5573,-2.6499,-2.6499,-2.6499,-2.6499,-2.6499,-2.6499,-2.6499,-2.6499,-2.6499,-2.6499,-2.6499,-2.6499,-2.6499,-2.6499,-2.6499,-2.6499,-2.6499,-2.6499,-2.6499,-2.6499,-2.6499,0.0,-2.6499,-2.7196,0.0,0.0,0.0,0.0,0.0,0.0,0.0,0.0,0.0,0.0,-3.3993,-3.3101,-3.2177,-3.1217,-3.1217,-3.1217,-3.118,-3.0279,-2.9792,-2.9792,-2.9792,-2.9792,-2.9792,-2.9792,-2.9792,-2.9792,-2.9792,-2.9792,0.0,-2.9792,-2.9792,-2.9792,-2.9792,-2.9792,-2.9792,-2.9792,-2.9792,-2.9792,0.0,0.0,0.0,0.0,0.0,0.0,-0.5395,-0.5914,-0.6667,-0.7726,-0.8686,-0.9681,-1.0748,-1.1377,-1.1764,-1.1899,-1.1906,0.0,0.0,0.0,0.0,0.0,0.0,0.0,-1.4135,-1.4486,-1.4942,-1.5658,-1.5939,-1.6402,-1.7035,-1.7035,-1.7389,-1.8008,-1.8008,-1.8008,0.0,0.0,0.0,0.0,0.0,-1.8008,-1.8008,0.0,0.0,0.0,0.0,0.0,0.0,0.0,0.0,0.0,0.0,0.0,0.0,-2.5252,-2.5943,-2.6499,-2.6499,-2.6499,-2.6499,-2.6499,-2.6499,-2.6499,-2.6499,-2.6499,-2.6499,-2.6499,-2.6499,-2.6499,-2.6499,-2.6499,-2.6499,-2.6499,-2.6499,0.0,0.0,0.0,0.0,0.0,0.0,0.0,0.0,0.0,0.0,0.0,0.0,0.0,-3.2141,-3.2429,-3.2464,-3.2177,-3.1536,-3.0895,-3.0241,-2.9934,-2.9792,-2.9792,-2.9792,-2.9792,-2.9792,-2.9792,-2.9792,-2.9792,-2.9792,-2.9792,-2.9792,-2.9792,-2.9792,-2.9792,-2.9792,-2.9792,-2.9792,-2.9792,-2.9792,-2.9792,0.0,0.0,0.0,0.0,0.0,0.0,-0.5474,-0.6271,-0.723,-0.8318,-0.9393,-1.0451,-1.1466,-1.1857,-1.2067,-1.2067,-1.2067,0.0,0.0,0.0,0.0,0.0,0.0,0.0,-1.3164,-1.3528,-1.3991,-1.4629,-1.5021,-1.5685,-1.6602,-1.6602,-1.7104,-1.8008,-1.8008,-1.8008,0.0,0.0,0.0,0.0,-1.8008,-1.8008,-1.8008,0.0,0.0,0.0,0.0,0.0,0.0,0.0,0.0,0.0,0.0,0.0,0.0,0.0,-2.5441,-2.6025,-2.6383,-2.6499,-2.6499,-2.6499,-2.6499,-2.6499,-2.6499,-2.6499,-2.6499,-2.6499,-2.6499,-2.6499,-2.6499,-2.6499,-2.6499,-2.6499,-2.6499,0.0,0.0,0.0,0.0,0.0,0.0,0.0,0.0,0.0,0.0,0.0,0.0,0.0,-3.2321,-3.2464,-3.2749,-3.3136,-3.1852,-3.0932,-3.0317,-2.9972,-2.9792,-2.9792,-2.9792,-2.9792,-2.9792,-2.9792,-2.9792,-2.9792,-2.9792,-2.9792,0.0,-2.9792,-2.9792,-2.9792,-2.9792,-2.9792,-2.9792,-2.9792,-2.9792,-2.9792,0.0,0.0,0.0,0.0,0.0,0.0,-0.5686,-0.6559,-0.7582,-0.8624,-0.9875,-1.1006,-1.1826,-1.2138,-1.2305,-1.2305,-1.2305,0.0,0.0,0.0,0.0,0.0,0.0,-1.2305,-1.2305,-1.3164,-1.36,-1.36,-1.4522,-1.5473,-1.6384,-1.6463,-1.7001,-1.7896,-1.7974,-1.8008,-1.8008,-1.8008,-1.8008,-1.8008,-1.8008,-1.8008,0.0,0.0,0.0,0.0,0.0,0.0,0.0,0.0,0.0,0.0,0.0,0.0,0.0,0.0,0.0,0.0,0.0,-2.6499,-2.6499,-2.6499,-2.6499,-2.6499,-2.6499,-2.6499,0.0,-2.6499,-2.6499,-2.6499,-2.6499,-2.6499,-2.6499,-2.6499,-2.6499,0.0,0.0,0.0,0.0,0.0,0.0,0.0,0.0,0.0,0.0,0.0,0.0,0.0,-3.391,-3.3066,-3.2996,-3.3876,-3.2213,-3.1278,-3.1217,-3.0355,-2.9869,-2.9792,-2.9792,-2.9792,-2.9792,-2.9792,-2.9792,0.0,-2.9792,-2.9792,-2.9792,-2.9792,-2.9792,-2.9792,-2.9792,-2.9792,-2.9792,-2.9792,-2.9792,-2.9792,0.0,0.0,0.0,0.0,0.0,0.0,0.0,0.0,0.0,0.0,-1.0993,-1.1735,-1.2178,-1.2265,-1.2305,0.0,0.0,0.0,0.0,0.0,0.0,0.0,-1.2305,-1.2305,-1.2305,-1.2519,-1.2629,-1.2629,-1.2879,-1.3448,-1.4414,-1.5155,-1.6044,-1.6957,-1.7681,-1.8008,-1.8008,-1.8008,-1.8008,-1.8008,-1.8008,-1.8008,0.0,0.0,0.0,0.0,-1.8008,-1.8008,0.0,0.0,0.0,0.0,0.0,0.0,0.0,0.0,-2.4409,-2.5229,-2.6245,0.0,-2.6499,-2.6499,-2.6499,-2.6499,0.0,-2.6499,-2.6499,-2.6499,-2.6499,-2.6499,-2.6499,-2.6499,-2.6499,-2.6499,0.0,0.0,0.0,0.0,0.0,0.0,0.0,0.0,0.0,0.0,0.0,0.0,0.0,-3.3705,-3.2961,-3.2713,-3.2713,-3.2925,-3.25,-3.1924,-3.1217,-3.097,-3.052,-2.9792,-2.9792,-2.9792,-2.9792,-2.9792,-2.9792,-2.9792,-2.9792,-2.9792,-2.9792,-2.9792,-2.9792,-2.9792,-2.9792,-2.9792,-2.9792,-2.9792,-2.9792,-2.9792,0.0,0.0,0.0,0.0,0.0,0.0,0.0,0.0,0.0,0.0,-1.1514,-1.2131,-1.2285,-1.2305,-1.2305,0.0,0.0,0.0,0.0,0.0,0.0,-1.2305,-1.2305,-1.2305,-1.2305,-1.2305,-1.2305,-1.2305,-1.2305,-1.2769,-1.3709,-1.4279,-1.5261,-1.6636,-1.7579,-1.8008,-1.8008,-1.8008,-1.8008,-1.8008,-1.8008,0.0,0.0,0.0,0.0,0.0,-1.8008,-1.8008,0.0,-1.8519,-1.852,-1.8527,0.0,0.0,0.0,0.0,-2.3514,-2.4445,-2.4992,-2.5791,-2.6499,-2.6499,-2.6499,-2.6499,-2.6499,-2.6499,-2.6499,-2.6499,0.0,-2.6499,-2.6499,-2.6816,-2.6939,0.0,-2.7162,0.0,0.0,0.0,0.0,0.0,0.0,0.0,0.0,0.0,0.0,0.0,0.0,-3.4476,-3.3939,-3.3498,-3.3241,-3.3241,-3.282,-3.2357,-3.1852,-3.1426,-3.0932,-3.0457,-2.9998,-2.9792,-2.9792,-2.9792,-2.9792,-2.9792,-2.9792,-2.9792,-2.9792,-2.9792,-2.9792,-2.9792,-2.9792,-2.9792,-2.9792,-2.9792,-2.9495,-2.9106,0.0,0.0,0.0,0.0,0.0,0.0,0.0,0.0,0.0,0.0,0.0,0.0,0.0,0.0,0.0,0.0,0.0,0.0,0.0,0.0,-1.2305,-1.2305,-1.2305,-1.2305,-1.2305,-1.2305,-1.2305,-1.2305,-1.2305,-1.2703,-1.3491,-1.3637,-1.4665,-1.6428,-1.7364,-1.7794,-1.7794,-1.794,-1.8008,-1.8008,-1.8008,0.0,0.0,0.0,0.0,0.0,0.0,0.0,0.0,-1.8008,-1.8008,-1.8164,-1.9014,0.0,0.0,0.0,0.0,0.0,-2.3708,-2.4957,-2.628,-2.628,-2.6383,-2.6499,-2.6499,-2.6499,0.0,0.0,0.0,0.0,-2.6658,-2.7129,0.0,0.0,0.0,0.0,0.0,0.0,0.0,0.0,0.0,0.0,0.0,0.0,0.0,0.0,0.0,-3.5504,-3.5504,-3.4691,-3.4177,-3.3993,-3.3241,-3.2749,-3.2593,-3.1669,-3.1143,-3.097,-3.0177,-2.9792,-2.9792,-2.9792,-2.9792,-2.9792,0.0,0.0,-2.9792,-2.9792,-2.9792,-2.9792,-2.9792,-2.9792,-2.9792,-2.9792,-2.9197,-2.8466,0.0,0.0,0.0,0.0,0.0,0.0,0.0,0.0,0.0,0.0,0.0,0.0,0.0,0.0,0.0,0.0,0.0,0.0,0.0,-1.2305,-1.2305,-1.2305,-1.2305,-1.2305,-1.2305,-1.2305,-1.2305,-1.2305,-1.2305,-1.2372,-1.2519,-1.331,-1.4307,-1.5446,-1.6393,-1.6819,-1.6853,-1.7647,-1.8008,-1.8008,-1.8008,0.0,0.0,0.0,0.0,0.0,0.0,0.0,0.0,-1.8008,-1.8008,-1.8164,-1.9014,0.0,0.0,0.0,0.0,0.0,-2.4528,-2.5004,-2.5229,-2.5229,-2.5873,-2.6499,-2.6499,-2.6499,-2.6499,0.0,0.0,0.0,0.0,-2.7074,-2.6871,0.0,0.0,0.0,0.0,0.0,0.0,0.0,0.0,0.0,0.0,0.0,0.0,0.0,0.0,-3.5504,-3.5504,-3.5359,-3.4872,-3.4027,-3.3842,-3.338,-3.2593,-3.1669,-3.0796,-2.9998,-2.9869,-2.9792,-2.9792,-2.9792,-2.9792,-2.9792,0.0,-2.9792,-2.9792,-2.9792,-2.9792,-2.9792,-2.9792,-2.9792,-2.9792,-2.9792,-2.9702,-2.9443,0.0,0.0,0.0,0.0,0.0,0.0,0.0,0.0,0.0,0.0,0.0,0.0,0.0,0.0,0.0,0.0,0.0,0.0,-1.2305,-1.2305,-1.2305,-1.2305,-1.2305,-1.2305,-1.2305,-1.2305,-1.2305,-1.2305,-1.2305,-1.2305,-1.2335,-1.3273,-1.3954,-1.4422,-1.5403,-1.5825,-1.5869,-1.6298,-1.6793,-1.7242,0.0,0.0,0.0,0.0,0.0,0.0,0.0,0.0,0.0,0.0,-1.8008,-1.8164,-1.9014,0.0,0.0,0.0,0.0,0.0,-2.2638,-2.301,-2.3514,-2.4036,-2.5358,-2.6499,-2.6499,-2.6499,-2.6499,0.0,0.0,0.0,0.0,0.0,-2.8149,0.0,0.0,0.0,0.0,0.0,0.0,0.0,0.0,0.0,0.0,0.0,0.0,0.0,0.0,0.0,-3.5504,-3.4986,-3.4461,-3.4027,-3.3518,-3.2784,-3.1852,-3.1426,-3.097,-3.0558,-3.0037,-2.9792,-2.9792,-2.9792,-2.9792,-2.9792,0.0,-2.9792,-2.9792,-2.9792,-2.9792,-2.9792,-2.9792,-2.9792,-2.9714,-2.9106,-2.9275,-2.9546,0.0,0.0,0.0,0.0,0.0,0.0,0.0,0.0,0.0,0.0,0.0,0.0,0.0,0.0,0.0,0.0,0.0,0.0,-1.2305,-1.2305,-1.2305,-1.2305,-1.2305,-1.2305,-1.2305,-1.2305,-1.2305,-1.2305,-1.2305,-1.2305,-1.2335,-1.3025,-1.3382,-1.3419,-1.4422,-1.4985,-1.5199,-1.5438,-1.6079,-1.6922,0.0,0.0,0.0,0.0,0.0,0.0,0.0,0.0,0.0,0.0,0.0,0.0,0.0,0.0,0.0,-2.0571,-2.1116,-2.1555,-2.1039,-2.1441,-2.2253,-2.3257,-2.4838,-2.6198,-2.6465,-2.6499,-2.6499,0.0,0.0,0.0,0.0,-2.7835,0.0,0.0,0.0,0.0,0.0,0.0,0.0,0.0,0.0,0.0,0.0,0.0,0.0,0.0,0.0,0.0,-3.5133,-3.4643,-3.4245,-3.4027,-3.331,-3.25,-3.1536,-3.1315,-3.1068,-3.0871,-3.0139,-2.9792,-2.9792,-2.9792,-2.9792,-2.9792,-2.9792,-2.9792,-2.9792,-2.9792,-2.9792,-2.9792,-2.9792,-2.9792,-2.9702,-2.8806,-2.9067,-2.9534,0.0,0.0,0.0,0.0,0.0,0.0,0.0,0.0,0.0,0.0,0.0,0.0,0.0,0.0,0.0,0.0,0.0,0.0,-1.2305,-1.2305,-1.2305,-1.2305,-1.2305,-1.2305,-1.2305,-1.2305,-1.2305,-1.2305,-1.2305,-1.2305,-1.2305,-1.2372,-1.2409,-1.2445,-1.3382,-1.4314,-1.5269,-1.6149,-1.7035,-1.7896,-1.7896,0.0,0.0,0.0,0.0,0.0,0.0,0.0,0.0,0.0,0.0,0.0,0.0,0.0,-1.9563,-2.0351,-2.0644,-2.0895,-2.1669,-2.1962,-2.2253,-2.3257,-2.4301,-2.5335,-2.628,-2.6499,0.0,-2.6499,0.0,0.0,0.0,-2.7703,0.0,0.0,0.0,0.0,0.0,0.0,0.0,0.0,0.0,0.0,0.0,0.0,0.0,0.0,0.0,0.0,-3.4095,-3.4905,-3.4953,-3.4027,-3.391,-3.3449,-3.25,-3.1646,-3.0758,-2.9895,-2.983,-2.9792,-2.9792,-2.9792,-2.9792,-2.9792,-2.9792,-2.9792,-2.9792,-2.9792,-2.9792,-2.9792,-2.9792,-2.9792,-2.9792,-2.9702,-2.9714,-2.9624,0.0,0.0,0.0,0.0,0.0,0.0,0.0,0.0,0.0,0.0,0.0,0.0,0.0,0.0,0.0,0.0,0.0,0.0,-1.2305,-1.2305,-1.2305,-1.2305,-1.2305,-1.2305,-1.2305,-1.2305,-1.2305,-1.2305,-1.2305,-1.2305,-1.2305,-1.2305,-1.2305,-1.2335,-1.2659,-1.3346,-1.4271,-1.4665,-1.5685,-1.7139,-1.7139,-1.7467,0.0,0.0,0.0,0.0,0.0,0.0,0.0,0.0,-1.8008,-1.8164,-1.9014,-1.9287,-1.9453,-2.0351,-2.0605,-2.0673,-2.1039,-2.1555,-2.2103,-2.2478,-2.3781,0.0,0.0,-2.5581,-2.5734,-2.6383,-2.6499,0.0,0.0,0.0,0.0,0.0,0.0,0.0,0.0,0.0,0.0,0.0,0.0,0.0,0.0,0.0,0.0,0.0,0.0,0.0,-3.3136,-3.3498,-3.3533,-3.3136,-3.3136,-3.2664,-3.1742,-3.1389,-3.0733,-2.9792,-2.9792,-2.9792,-2.9792,-2.9792,-2.9792,-2.9792,-2.9792,-2.9792,-2.9792,-2.9792,-2.9792,-2.9792,-2.9792,-2.9792,-2.9792,-2.9792,-2.9792,-2.9753,0.0,0.0,0.0,0.0,0.0,0.0,0.0,0.0,0.0,0.0,0.0,0.0,0.0,0.0,0.0,0.0,0.0,0.0,-1.2305,-1.2305,-1.2305,-1.2305,-1.2305,-1.2305,-1.2305,-1.2305,-1.2305,-1.2305,-1.2305,-1.2305,-1.2305,-1.2305,-1.2305,-1.2305,-1.2305,-1.2806,-1.3709,-1.4027,-1.5119,-1.6636,-1.6922,-1.7432,0.0,0.0,0.0,0.0,0.0,0.0,0.0,0.0,-1.8096,-1.833,-1.9062,-1.9375,-1.9629,-2.039,-2.0828,-2.1039,-2.1039,-2.1735,-2.2478,-2.2478,0.0,0.0,-2.4933,-2.5264,-2.5664,-2.6349,-2.6499,-2.6692,-2.7229,0.0,0.0,0.0,0.0,0.0,0.0,0.0,0.0,0.0,0.0,0.0,0.0,0.0,0.0,0.0,0.0,0.0,0.0,-3.2464,-3.2593,-3.2593,-3.2593,-3.2285,-3.1633,-3.1352,-3.0871,-3.0241,-2.9934,-2.9792,-2.9792,-2.9792,-2.9792,-2.9792,-2.9792,-2.9792,-2.9792,-2.9792,-2.9792,-2.9792,-2.9792,-2.9792,-2.9792,-2.9792,-2.9792,-2.9792,0.0,0.0,0.0,0.0,0.0,0.0,0.0,0.0,-0.6679,-0.7672,-0.8694,0.0,0.0,0.0,0.0,0.0,0.0,0.0,-1.2305,-1.2305,-1.2305,-1.2305,-1.2305,-1.2305,-1.2305,-1.2305,-1.2305,-1.2305,-1.2305,-1.2305,-1.2305,-1.2305,-1.2305,-1.2305,-1.2305,-1.2806,-1.3781,-1.4772,-1.572,-1.6671,-1.7613,-1.7974,-1.8008,0.0,0.0,0.0,0.0,0.0,0.0,0.0,-1.8256,-1.8676,-1.916,-1.958,-2.0,-2.0478,-2.126,-2.1989,-2.1989,-2.2739,-2.3514,0.0,0.0,0.0,-2.4791,-2.5769,-2.6499,-2.6499,-2.6499,-2.6499,-2.6499,0.0,0.0,0.0,0.0,0.0,0.0,0.0,0.0,0.0,0.0,0.0,0.0,0.0,0.0,0.0,0.0,0.0,0.0,-3.2069,-3.2558,-3.2558,-3.2558,-3.2558,-3.2558,-3.1633,-3.118,-3.118,-3.0241,-2.9792,-2.9792,-2.9792,-2.9792,-2.9792,-2.9792,-2.9792,-2.9792,-2.9792,-2.9792,-2.9792,-2.9792,-2.9792,-2.9792,-2.9792,-2.9792,-2.9792,0.0,0.0,0.0,0.0,0.0,0.0,0.0,0.0,-0.6679,-0.7672,-0.8694,0.0,0.0,0.0,0.0,0.0,0.0,0.0,-1.2305,-1.2305,-1.2305,-1.2305,-1.2305,-1.2305,-1.2305,-1.2305,-1.2305,-1.2305,-1.2305,-1.2305,-1.2305,-1.2305,-1.2305,-1.2305,-1.2305,-1.2806,-1.3709,-1.4027,-1.5084,-1.6636,-1.6888,-1.7398,-1.8008,0.0,0.0,0.0,0.0,0.0,0.0,0.0,0.0,0.0,-1.9502,-1.9814,-2.0,-2.0478,-2.0789,-2.1155,-2.1811,-2.2739,0.0,-2.3514,0.0,0.0,0.0,-2.5229,0.0,0.0,-2.6499,-2.6499,-2.6499,0.0,0.0,0.0,0.0,0.0,0.0,0.0,0.0,0.0,0.0,0.0,0.0,0.0,0.0,0.0,0.0,0.0,-3.0216,-3.0495,-3.0633,-3.0633,-3.0633,-3.0633,-3.0633,-3.0355,-3.0216,-3.0216,-2.9934,-2.9792,-2.9792,-2.9792,-2.9792,-2.9792,-2.9792,-2.9792,-2.9792,-2.9792,-2.9792,-2.9792,-2.9792,-2.9792,-2.9792,-2.9792,-2.9792,-2.9792,0.0,0.0,0.0,0.0,0.0,0.0,0.0,0.0,-0.6679,-0.7672,-0.8694,-0.9669,0.0,0.0,0.0,0.0,0.0,0.0,-1.2305,-1.2305,-1.2305,-1.2305,-1.2305,-1.2305,-1.2305,-1.2305,-1.2305,-1.2305,-1.2305,-1.2305,-1.2305,-1.2305,-1.2305,-1.2305,-1.2305,-1.2629,-1.3171,-1.3528,-1.4378,-1.5473,-1.5895,-1.6393,-1.6906,0.0,0.0,0.0,0.0,0.0,0.0,0.0,0.0,0.0,-1.9709,-2.0029,-2.0301,-2.0959,-2.1451,-2.1973,-2.2925,-2.3927,0.0,-2.4696,-2.5604,-2.6349,-2.5734,0.0,0.0,0.0,0.0,-2.6499,-2.6499,-2.6499,0.0,0.0,0.0,0.0,0.0,0.0,0.0,0.0,0.0,0.0,0.0,0.0,0.0,0.0,0.0,0.0,-2.9779,-2.9792,-2.9792,-2.9792,-2.9792,-2.9792,-2.9792,-2.9792,-2.9792,-2.9792,-2.9792,-2.9792,-2.9792,-2.9792,-2.9792,-2.9792,-2.9792,-2.9792,-2.9792,-2.9792,-2.9792,-2.9792,-2.9792,-2.9792,-2.9792,-2.9792,-2.9792,-2.9753,0.0,0.0,-0.63,-0.63,0.0,0.0,0.0,0.0,-0.6641,-0.7557,-0.8618,-0.9631,0.0,0.0,0.0,-1.2305,0.0,0.0,0.0,-1.2305,-1.2305,-1.2305,-1.2305,-1.2305,-1.2305,-1.2305,-1.2305,-1.2305,-1.2305,-1.2305,-1.2305,-1.2305,-1.2305,-1.2305,-1.2305,-1.2305,-1.2378,-1.32,-1.3637,-1.3781,-1.4708,-1.5128,-1.5199,-1.5199,0.0,0.0,0.0,0.0,0.0,0.0,0.0,0.0,-1.9961,-2.0244,-2.0789,-2.1631,-2.259,-2.3588,-2.46,-2.5594,0.0,-2.6499,-2.6499,0.0,-2.6499,-2.6499,-2.6499,-2.6499,0.0,-2.6499,-2.6499,-2.6499,0.0,0.0,0.0,0.0,0.0,0.0,0.0,0.0,0.0,0.0,0.0,0.0,0.0,0.0,0.0,-2.9089,-2.9616,-2.9691,-2.9716,-2.9716,-2.9767,-2.9792,-2.9792,-2.9792,-2.9792,-2.9792,-2.9792,-2.9792,-2.9792,-2.9792,-2.9792,-2.9792,-2.9792,-2.9792,-2.9792,-2.9792,-2.9792,-2.9792,-2.9792,-2.9792,-2.9792,-2.9792,-2.9792,-2.9624,0.0,0.0,-0.63,-0.63,0.0,0.0,0.0,0.0,0.0,-0.6606,0.0,0.0,0.0,0.0,0.0,-1.2305,-1.2305,0.0,0.0,-1.2305,-1.2305,-1.2305,-1.2305,-1.2305,-1.2305,-1.2305,-1.2305,-1.2305,-1.2305,-1.2305,-1.2305,-1.2305,-1.2305,-1.2305,-1.2305,-1.2305,-1.2298,-1.2519,-1.3025,-1.3709,-1.3954,-1.4494,-1.5199,-1.5199,-1.5988,0.0,0.0,0.0,0.0,0.0,0.0,0.0,-2.0312,-2.0527,-2.0644,-2.0828,-2.1593,-2.2553,-2.3562,-2.4552,0.0,0.0,-2.6499,-2.6499,-2.6499,-2.6499,-2.6499,-2.6499,-2.6499,-2.6499,-2.6499,0.0,0.0,0.0,0.0,0.0,0.0,0.0,0.0,0.0,0.0,0.0,0.0,0.0,0.0,0.0,0.0,-2.8335,-2.8461,-2.8875,-2.9076,-2.9076,-2.9553,-2.9792,-2.9792,-2.9792,-2.9792,-2.9792,-2.9792,-2.9792,-2.9792,-2.9792,-2.9792,-2.9792,-2.9792,-2.9792,-2.9792,-2.9792,-2.9792,-2.9792,-2.9792,-2.9792,-2.9792,-2.9792,-2.9792,-2.9624,0.0,0.0,0.0,0.0,0.0,0.0,0.0,0.0,0.0,0.0,0.0,-0.8644,-0.8589,-0.9933,0.0,0.0,-1.1316,-1.1583,-1.1583,-1.2033,-1.2305,-1.2305,-1.2305,-1.2305,-1.2305,-1.2305,-1.2305,-1.2305,-1.2305,-1.2305,-1.2305,-1.2305,-1.2305,-1.2305,-1.2305,-1.2305,-1.2305,-1.2305,-1.2592,-1.3025,-1.3025,-1.3433,-1.4116,-1.4629,-1.5613,-1.6781,-1.735,0.0,0.0,0.0,0.0,0.0,0.0,0.0,-2.0683,-2.1155,-2.1631,-2.2328,-2.3818,0.0,0.0,-2.6233,0.0,-2.6499,-2.6499,-2.6499,-2.6499,-2.6499,-2.6499,-2.6499,0.0,0.0,0.0,0.0,0.0,0.0,0.0,0.0,0.0,0.0,0.0,0.0,0.0,0.0,0.0,0.0,-2.7544,-2.7821,-2.8097,-2.8386,-2.8536,-2.8536,-2.8825,-2.9114,-2.9377,-2.9377,-2.9515,-2.9792,-2.9792,-2.9792,-2.9792,-2.9792,-2.9792,-2.9792,-2.9792,-2.9792,-2.9792,-2.9792,-2.9792,-2.9792,-2.9792,-2.9792,-2.9792,-2.9792,-2.9792,-2.9624,0.0,0.0,0.0,0.0,0.0,0.0,0.0,0.0,0.0,0.0,0.0,-0.8001,-0.7892,-0.876,-0.9374,0.0,0.0,0.0,-1.059,-1.1347,-1.1848,-1.2033,-1.2033,-1.2033,-1.2033,-1.2224,-1.2305,-1.2305,-1.2305,-1.2305,-1.2305,-1.2305,-1.2305,-1.2305,-1.2305,-1.2331,-1.2378,-1.2378,-1.2405,-1.2458,-1.2458,-1.2605,-1.2979,-1.4056,-1.523,-1.6471,-1.7603,-1.8864,-2.0029,-2.0029,0.0,0.0,0.0,0.0,-2.075,-2.1517,-2.1886,-2.2366,-2.4036,0.0,-2.5229,-2.6233,-2.6499,0.0,-2.6499,-2.6499,-2.6499,-2.6499,-2.6499,-2.6499,0.0,0.0,0.0,0.0,0.0,0.0,0.0,0.0,0.0,0.0,0.0,0.0,0.0,0.0,0.0,0.0,-2.7178,-2.7379,-2.7795,-2.7908,-2.7959,-2.7959,-2.8059,-2.8323,-2.875,-2.8838,-2.9126,-2.9641,-2.9741,-2.9792,-2.9792,-2.9792,-2.9792,-2.9792,-2.9792,-2.9792,-2.9792,-2.9792,-2.9792,-2.9792,-2.9792,-2.9792,-2.9792,-2.9792,-2.9792,-2.9624,0.0,0.0,0.0,0.0,0.0,0.0,0.0,0.0,0.0,0.0,-0.7562,-0.8159,-0.8138,-0.9062,-0.9662,-0.9662,-0.9782,-0.9816,-0.9696,0.0,0.0,-1.0975,-1.1013,-1.1013,-1.1013,-1.1848,-1.2305,-1.2305,-1.2305,-1.2305,-1.2305,-1.2305,-1.2305,-1.2305,-1.2305,-1.2445,-1.2723,-1.2723,-1.2884,-1.3093,-1.3093,-1.3113,-1.3264,-1.4355,-1.5583,-1.6932,-1.8041,-1.9324,-2.0517,-2.0517,-2.0556,0.0,0.0,0.0,-2.0644,-2.075,-2.1375,-2.2065,-2.2328,0.0,-2.5229,0.0,-2.6499,-2.6499,0.0,0.0,-2.6499,0.0,-2.6499,0.0,0.0,0.0,0.0,0.0,0.0,0.0,0.0,0.0,0.0,0.0,0.0,0.0,0.0,0.0,0.0,-2.66,-2.66,-2.6637,-2.6713,-2.7165,-2.7394,-2.7394,-2.7858,-2.8134,-2.821,-2.865,-2.8925,-2.9013,-2.9553,-2.9792,-2.9792,-2.9792,-2.9792,-2.9792,-2.9792,-2.9792,-2.9792,-2.9792,-2.9792,-2.9792,-2.9792,-2.9792,-2.9792,-2.9792,-2.9792,-2.9624,0.0,0.0,0.0,0.0,0.0,0.0,0.0,0.0,0.0,0.0,0.0,-0.7457,-0.7364,-0.7761,-0.8004,-0.8004,-0.8533,-0.9058,-0.9567,-0.9557,-0.9683,-1.0045,-1.0078,-1.0285,-1.0789,-1.1236,-1.1731,-1.2305,-1.2305,-1.2385,-1.2589,-1.2589,-1.2589,-1.2589,-1.2589,-1.2757,-1.3006,-1.3006,-1.3086,-1.3213,-1.3213,-1.3651,-1.4428,-1.4882,-1.5944,-1.7286,-1.8372,-1.9166,-1.9805,-2.0401,-2.0605,-2.0605,-2.0605,0.0,0.0,0.0,-2.0895,-2.1451,-2.2553,-2.3478,-2.4409,0.0,-2.5664,-2.5664,-2.5664,0.0,-2.6499,-2.6499,0.0,0.0,0.0,0.0,0.0,0.0,0.0,0.0,0.0,0.0,0.0,0.0,0.0,0.0,0.0,0.0,0.0,-2.6499,-2.6499,-2.6499,-2.6499,-2.6725,-2.6851,-2.6851,-2.709,-2.7331,-2.7645,-2.7883,-2.8323,-2.89,-2.9515,-2.9792,-2.9792,-2.9792,-2.9792,-2.9792,-2.9792,-2.9792,-2.9792,-2.9792,-2.9792,-2.9792,-2.9792,-2.9792,-2.9702,-2.9067,-2.8858,-2.8688,0.0,0.0,0.0,0.0,0.0,0.0,0.0,0.0,0.0,0.0,0.0,-0.6896,-0.6824,0.0,0.0,0.0,-0.7476,-0.8326,-0.9302,-0.9087,-0.899,-0.9151,-0.9182,-0.9458,-1.0138,-1.0673,-1.133,-1.2105,-1.2375,-1.2645,-1.2904,-1.2904,-1.2945,-1.3012,-1.2938,-1.3033,-1.332,-1.332,-1.336,-1.3434,-1.3742,-1.4462,-1.5458,-1.6013,-1.6862,-1.7868,-1.8997,-1.9402,-1.952,-2.0323,-2.0605,-2.0605,-2.0605,-2.0605,0.0,0.0,0.0,0.0,0.0,0.0,-2.3404,-2.4671,-2.5004,-2.5087,0.0,0.0,-2.6499,0.0,0.0,0.0,0.0,0.0,0.0,0.0,0.0,0.0,0.0,0.0,0.0,0.0,0.0,0.0,0.0,0.0,-2.6499,-2.6499,-2.6499,-2.6499,-2.6499,-2.6499,-2.6499,-2.6499,-2.6499,-2.6688,-2.7102,-2.7241,-2.7833,-2.89,-2.9365,-2.9654,-2.9792,-2.9792,-2.9792,-2.9792,-2.9792,-2.9792,-2.9792,-2.9792,-2.9792,-2.9792,-2.9792,-2.9624,-2.9275,-2.8426,-2.7936,-2.7562,0.0,0.0,0.0,0.0,0.0,0.0,0.0,0.0,0.0,0.0,0.0,-0.7082,-0.7071,-0.7071,-0.7071,-0.7071,-0.7115,-0.753,-0.8399,-0.7442,-0.7267,-0.8233,-0.8274,0.0,-0.8339,-1.0396,-1.1483,-1.1523,-1.2626,-1.3173,-1.3186,-1.3186,-1.3293,-1.3547,-1.3307,-1.3347,-1.358,-1.358,-1.374,-1.4119,-1.517,-1.5617,-1.5921,-1.7994,-1.8859,-1.9036,-2.0118,-2.0527,-2.0527,-2.0566,-2.0605,0.0,-2.0605,-2.0605,-2.0605,0.0,0.0,0.0,0.0,-2.2065,0.0,-2.4528,-2.5004,0.0,0.0,0.0,0.0,0.0,0.0,0.0,0.0,0.0,0.0,0.0,0.0,0.0,0.0,0.0,0.0,0.0,0.0,0.0,0.0,0.0,-2.6499,-2.6499,-2.6499,-2.6499,-2.6499,-2.6499,-2.6499,-2.6499,-2.6499,-2.6512,-2.6537,-2.7052,-2.7833,-2.8888,-2.8925,-2.9264,-2.9792,-2.9792,-2.9792,-2.9792,-2.9792,-2.9792,-2.9792,-2.9792,-2.9792,-2.9792,-2.9792,-2.9157,-2.8176,-2.8136,-2.7441,-2.6595,0.0,0.0,0.0,0.0,0.0,0.0,0.0,0.0,0.0,0.0,0.0,0.0,0.0,-0.7095,-0.7095,-0.7095,-0.7095,-0.7248,-0.7541,-0.7184,-0.7068,-0.7352,-0.7348,-0.7628,-0.8168,-0.8978,-0.9705,-1.0353,-1.153,-1.2187,-1.2394,-1.311,-1.3606,-1.3915,-1.358,-1.3613,-1.3928,-1.3928,-1.3988,-1.4208,-1.5262,-1.6108,-1.6805,-1.7617,-1.835,-1.9036,0.0,0.0,0.0,0.0,0.0,0.0,0.0,0.0,0.0,0.0,0.0,0.0,0.0,0.0,0.0,-2.2739,-2.3551,-2.4145,-2.4469,-2.5569,-2.6499,0.0,0.0,0.0,0.0,0.0,0.0,0.0,0.0,0.0,0.0,0.0,0.0,0.0,0.0,0.0,0.0,0.0,-2.6499,-2.6499,-2.6499,-2.6499,-2.6499,-2.6499,-2.6499,-2.6499,-2.6499,-2.6499,-2.6499,-2.704,-2.7657,-2.8398,-2.8725,-2.9239,-2.9792,-2.9792,-2.9792,-2.9792,-2.9792,-2.9792,-2.9792,-2.9792,-2.9792,-2.9792,-2.9792,-2.9106,-2.8004,-2.7331,-2.6378,-2.5294,0.0,0.0,0.0,-0.7095,0.0,-0.7095,-0.7095,-0.7095,-0.7095,-0.7095,0.0,0.0,0.0,0.0,-0.7095,-0.7095,-0.7095,-0.7095,-0.7095,-0.7095,-0.7055,-0.696,-0.7343,-0.7843,-0.8438,-0.911,-0.9807,-1.0584,-1.1659,-1.2372,-1.2677,-1.3409,-1.3901,-1.4082,-1.3881,-1.3901,-1.4088,-1.4088,-1.4088,-1.4208,-1.5662,-1.6437,-1.6846,-1.7577,-1.835,0.0,0.0,0.0,0.0,0.0,0.0,0.0,0.0,0.0,0.0,0.0,0.0,0.0,-2.1375,0.0,0.0,0.0,0.0,-2.3073,-2.3404,0.0,0.0,0.0,0.0,0.0,0.0,0.0,0.0,0.0,0.0,0.0,0.0,0.0,0.0,0.0,0.0,0.0,0.0,-2.6499,-2.6499,-2.6499,-2.6499,0.0,-2.6499,-2.6499,-2.6499,-2.6499,-2.6499,-2.6499,-2.6499,-2.6851,-2.7281,-2.7833,-2.8386,-2.895,-2.9503,-2.9704,-2.9792,-2.9792,-2.9792,-2.9792,-2.9792,-2.9792,-2.9792,-2.9792,-2.9792,-2.887,-2.7493,-2.676,-2.5557,-2.4125,-0.7095,-0.7095,-0.7095,-0.7095,-0.7095,-0.7095,-0.7095,-0.7095,-0.7095,-0.7095,0.0,0.0,0.0,0.0,0.0,-0.7095,-0.7095,-0.7095,-0.7095,-0.7095,-0.7095,-0.7095,-0.8233,-0.8846,-0.8846,-1.0779,-1.1908,-1.22,-1.307,-1.3718,-1.4039,-1.4088,-1.4088,-1.4088,-1.4088,-1.4088,-1.4088,-1.4088,-1.4088,-1.4292,-1.6445,-1.6683,-1.5985,-1.8181,0.0,0.0,-1.9045,-1.9717,0.0,-2.0605,0.0,0.0,0.0,0.0,0.0,0.0,0.0,0.0,0.0,0.0,0.0,0.0,0.0,0.0,-2.322,0.0,-2.3514,0.0,0.0,0.0,0.0,0.0,0.0,0.0,0.0,0.0,0.0,0.0,0.0,0.0,0.0,0.0,0.0,-2.6499,-2.6499,-2.6499,-2.6499,-2.6499,-2.6499,-2.6499,-2.6499,-2.6499,-2.6499,-2.6499,-2.6499,-2.6499,-2.6776,-2.7329,-2.7846,-2.8398,-2.8913,-2.9528,-2.9792,-2.9792,-2.9792,-2.9792,-2.9792,-2.9792,-2.9792,-2.9792,-2.9792,-2.8462,-2.6524,-2.6524,-2.5062,-2.3091,-0.7095,-0.7095,-0.7095,-0.7095,-0.7095,-0.7095,-0.7095,-0.7095,-0.7095,0.0,0.0,0.0,-0.7095,-0.7095,-0.7095,-0.7095,-0.7095,-0.7095,-0.7095,-0.7095,-0.7095,-0.7095,-0.7404,-0.7577,-0.7577,-0.8138,-0.8909,-0.9836,-1.0893,-1.1881,-1.2808,-1.3688,-1.4088,-1.4088,-1.4088,-1.4088,-1.4088,-1.4088,-1.4088,-1.4292,-1.6445,-1.7131,-1.709,0.0,0.0,0.0,0.0,-2.0362,-2.0605,0.0,-2.0605,-2.0605,0.0,0.0,0.0,0.0,0.0,0.0,-2.0605,0.0,0.0,0.0,0.0,0.0,-2.2366,-2.2962,-2.3514,0.0,0.0,0.0,0.0,0.0,0.0,0.0,0.0,0.0,0.0,0.0,0.0,0.0,0.0,0.0,-2.6499,-2.6499,-2.6499,0.0,-2.6499,-2.6499,-2.6499,-2.6499,-2.6499,-2.6499,-2.6499,-2.6499,-2.6499,-2.6499,-2.6776,-2.7329,-2.7846,-2.8398,-2.8913,-2.9528,-2.9792,-2.9792,-2.9792,-2.9792,-2.9792,-2.9792,-2.9792,-2.9792,-2.9792,-2.8462,-2.6524,-2.6524,-2.5062,-2.3091,-0.7841,-0.7445,-0.7095,-0.7095,-0.7095,-0.7095,-0.7095,-0.7095,-0.7095,0.0,0.0,0.0,-0.7095,-0.7095,-0.7095,-0.7095,-0.7095,-0.7095,-0.7095,-0.7095,-0.7095,-0.7095,-0.7577,-0.7841,-0.7841,-0.8202,-0.9018,-1.0308,-1.0857,-1.1804,-1.3075,-1.3779,-1.4088,-1.4088,-1.4088,-1.4088,-1.413,-1.4573,-1.4776,-1.4936,-1.6609,-1.7302,0.0,-1.9274,-1.9923,0.0,0.0,0.0,-2.0605,-2.0605,-2.0605,-2.0605,-2.0605,-2.0605,0.0,0.0,0.0,0.0,0.0,0.0,0.0,0.0,0.0,0.0,-2.1413,-2.1849,-2.2301,0.0,-2.2151,0.0,0.0,0.0,0.0,0.0,0.0,0.0,0.0,0.0,0.0,0.0,0.0,-2.5394,-2.5838,-2.5873,-2.606,-2.6452,-2.6499,-2.6499,-2.6499,-2.6499,-2.6499,-2.6499,-2.6499,-2.6499,-2.6499,-2.6499,-2.6663,-2.6989,-2.7733,-2.8273,-2.8574,-2.9428,-2.9792,-2.9792,-2.9792,-2.9792,-2.9792,-2.9792,-2.9792,-2.9792,-2.9792,-2.8712,-2.7128,-2.6689,-2.5347,-2.3757,0.0,-0.7841,-0.7095,-0.7095,-0.7095,-0.7095,-0.7095,-0.7095,-0.7095,0.0,-0.7095,-0.7095,-0.7095,-0.7095,-0.7095,-0.7095,-0.7095,-0.7095,-0.7095,-0.7095,-0.7095,-0.7095,-0.8145,-0.8759,-0.889,-0.9662,-1.0794,-1.2285,-1.2057,-1.2666,-1.4088,-1.4088,-1.4088,-1.4088,-1.4088,-1.4088,-1.4166,-1.5255,-1.5779,-1.5985,-1.705,-1.7496,0.0,0.0,-1.9195,-1.9195,-1.9195,-1.9795,-2.0605,-2.0605,-2.0605,-2.0605,-2.0605,-2.0605,-2.0605,0.0,-2.0605,0.0,0.0,0.0,0.0,0.0,-2.0605,0.0,-2.0605,-2.0605,-2.0605,-2.0605,-2.126,0.0,0.0,0.0,0.0,0.0,0.0,0.0,0.0,0.0,0.0,0.0,0.0,-2.3891,-2.4898,-2.5004,-2.537,-2.628,-2.6349,-2.6349,-2.6349,-2.6452,-2.6499,-2.6499,-2.6499,-2.6499,-2.6499,-2.6499,-2.6499,-2.6512,-2.7582,-2.8109,-2.8147,-2.915,-2.9663,-2.9792,-2.9546,-2.9585,-2.9792,-2.9663,-2.9702,-2.9792,-2.9792,-2.9106,-2.7964,-2.7046,-2.5964,-2.483,-0.7445,-0.7272,-0.7095,-0.7095,-0.7095,-0.7095,-0.7095,-0.7095,-0.7095,-0.7095,-0.7095,-0.7095,-0.7095,-0.7095,-0.7095,-0.7095,-0.7095,-0.7095,-0.7095,-0.7095,-0.7095,-0.7095,-0.7316,-0.7929,-0.889,-0.907,-1.0182,-1.2285,-1.2232,-1.2886,-1.4088,-1.4088,-1.4088,-1.4088,-1.4088,-1.4088,-1.4166,-1.5255,-1.6191,-1.709,-1.823,-1.8678,-1.8798,-1.9883,-2.0284,-2.0284,-2.0284,-2.0401,-2.0605,-2.0605,-2.0605,-2.0605,-2.0605,-2.0605,0.0,-2.0605,0.0,0.0,0.0,0.0,0.0,0.0,0.0,0.0,-2.0605,-2.0605,-2.0605,0.0,-2.075,0.0,0.0,0.0,0.0,0.0,0.0,0.0,0.0,0.0,0.0,0.0,-2.3514,-2.3891,-2.4898,-2.5004,-2.5075,-2.5264,-2.53,-2.53,-2.53,-2.606,-2.6499,-2.6499,-2.6499,-2.6499,-2.6499,-2.6499,-2.6499,-2.6512,-2.7582,-2.8109,-2.811,-2.8307,-2.8937,-2.9714,-2.7919,-2.8131,-2.9714,-2.8806,-2.8976,-2.9792,-2.9792,-2.9106,-2.8084,-2.7844,-2.7116,-2.6141,-0.8017,-0.7533,-0.7095,-0.7095,-0.7095,-0.7095,-0.7095,-0.7095,-0.7095,-0.7095,-0.7095,-0.7095,-0.7095,-0.7095,-0.7095,-0.7095,-0.7095,-0.7356,-0.7973,-0.8017,-0.8233,-0.8834,-0.8834,-0.9139,-0.9749,-0.9749,-1.0611,-1.2285,-1.2285,-1.2942,-1.4088,-1.4088,-1.437,-1.4852,-1.4328,-1.4699,-1.5711,-1.6273,-1.7131,-1.8189,-1.8758,0.0,-1.9844,-2.0401,-2.0605,-2.0605,-2.0605,-2.0605,-2.0605,-2.0605,-2.0605,0.0,0.0,-2.0605,-2.0605,0.0,-2.0605,-2.0605,0.0,0.0,0.0,-2.0605,0.0,0.0,0.0,-2.0605,-2.0605,-2.0605,-2.0605,0.0,0.0,0.0,0.0,0.0,0.0,0.0,0.0,0.0,0.0,0.0,-2.2048,-2.2451,-2.3404,-2.3514,-2.3708,-2.4217,-2.4264,-2.448,-2.4969,-2.5476,-2.599,-2.6487,-2.6499,-2.6499,-2.6499,-2.6499,-2.6499,-2.6512,-2.7582,-2.8109,-2.811,-2.8691,-2.8937,-2.8897,-2.7787,-2.7626,-2.8091,-2.7545,-2.7626,-2.8211,-2.874,-2.8279,-2.7238,-2.6644,-2.6119,-2.5557,-0.9235,-0.8448,-0.7793,-0.7793,-0.7793,-0.7793,-0.7793,-0.7793,-0.7705,-0.7489,-0.7445,-0.7445,-0.7445,-0.7445,-0.7533,-0.7749,-0.7793,-0.8101,-0.8846,-0.889,-0.9323,-1.0226,-1.0269,-1.0481,-1.0913,-1.0907,-1.1472,-1.2632,-1.2632,-1.316,-1.4088,-1.4088,-1.4573,-1.5379,-1.4692,-1.5387,-1.7009,-1.7464,0.0,-1.9036,0.0,-1.9844,-2.0605,-2.0605,-2.0605,-2.0605,-2.0605,-2.0605,-2.0605,-2.0605,-2.0605,-2.0605,-2.0605,-2.0605,0.0,0.0,0.0,0.0,0.0,0.0,0.0,0.0,0.0,-2.0605,0.0,0.0,0.0,0.0,0.0,0.0,0.0,0.0,0.0,0.0,0.0,0.0,0.0,0.0,0.0,0.0,-2.0605,-2.0972,-2.1924,-2.1989,-2.2328,-2.3147,-2.322,-2.3562,-2.4373,-2.46,-2.5182,-2.6164,-2.6198,-2.6314,-2.6499,-2.6499,-2.6499,-2.6512,-2.7582,-2.8109,-2.8147,-2.9061,-2.9106,-2.8386,-2.7763,-2.7186,-2.676,-2.6348,-2.6182,-2.6265,-2.736,-2.725,-2.6389,-2.5462,-2.5126,-2.4999,-1.0394,-1.0308,-1.0221,-1.0221,-1.0221,-1.0221,-1.0221,-1.0221,-0.9836,-0.8846,-0.8715,-0.8715,-0.8715,-0.8715,-0.9104,-1.0091,-1.0221,-0.9836,-0.8978,-0.889,-0.8978,-0.9104,-0.9104,-1.0053,-1.2066,-1.2114,-1.2681,-1.3913,-1.3913,-1.3955,-1.4088,-1.4088,-1.4173,-1.4328,-1.5137,-1.5662,-1.6026,-1.798,-1.8877,0.0,-2.004,-2.0479,0.0,-2.0605,-2.0605,-2.0605,-2.0605,-2.0605,-2.0605,0.0,-2.0605,-2.0605,0.0,-2.0605,-2.0605,-2.0605,0.0,0.0,0.0,0.0,0.0,0.0,-2.0605,0.0,0.0,0.0,-2.0605,-2.0605,0.0,0.0,0.0,0.0,0.0,0.0,0.0,0.0,-2.0049,0.0,0.0,-2.0605,-2.0605,-2.0972,-2.1924,-2.1989,-2.2027,-2.2178,-2.2178,-2.2215,-2.2328,-2.3184,-2.412,-2.5158,-2.5158,-2.5594,-2.6499,-2.6499,-2.6499,-2.6512,-2.7582,-2.8109,-2.8098,-2.823,-2.8767,-2.9456,-2.6449,-2.6232,-2.7763,-2.5786,-2.4999,-2.5126,-2.6254,-2.6595,-2.6472,-2.6348,-2.6307,-2.6307,-1.0921,-1.0611,-1.0611,-1.0611,-1.0611,-1.0611,-1.0611,-1.0053,-0.9187,-0.8013,-0.7841,-0.8184,-0.9038,-0.914,0.0,0.0,0.0,-1.0978,0.0,0.0,-1.1235,-1.2122,-1.1997,-1.2351,-1.3336,-1.3336,-1.3597,-1.4088,-1.4088,-1.4088,-1.4088,-1.4262,-1.4665,-1.529,-1.6011,0.0,-1.828,0.0,-2.0062,0.0,0.0,0.0,0.0,-2.1055,-2.1113,-2.1339,-2.1045,-2.0957,-2.0908,0.0,-2.0605,0.0,0.0,0.0,0.0,0.0,0.0,0.0,0.0,0.0,0.0,0.0,0.0,0.0,-2.0605,0.0,-2.0605,0.0,0.0,0.0,0.0,0.0,0.0,0.0,-2.0488,0.0,0.0,0.0,-2.0605,0.0,0.0,0.0,-2.1155,-2.1193,-2.1193,-2.1193,-2.1193,-2.1451,-2.1952,-2.2403,-2.311,-2.4108,-2.412,-2.4325,-2.4767,-2.4767,-2.4767,-2.4779,-2.6456,-2.7224,-2.7261,-2.8525,-2.8988,-2.8688,-2.6666,-2.5964,-2.6066,-2.4457,-2.38,-2.3844,-2.4349,-2.452,-2.452,-2.452,-2.452,-2.452,-1.2228,-1.1805,-1.1805,-1.1805,-1.1805,-1.1805,-1.1805,-1.1105,-1.0142,-0.8941,-0.8767,-0.9174,-1.026,-1.0365,0.0,0.0,-1.216,-1.2382,0.0,0.0,-1.3032,-1.4089,-1.3952,0.0,-1.4329,-1.4329,-1.4329,-1.4329,-1.4329,-1.4329,-1.4329,-1.4543,-1.506,-1.5828,-1.6832,-1.8097,-1.9604,0.0,-2.1131,-2.1885,-2.1885,-2.1953,-2.2012,-2.1572,-2.1611,-2.1846,-2.1523,-2.1375,-2.1367,-2.1035,-2.0889,0.0,-2.0752,0.0,0.0,0.0,0.0,0.0,-2.0605,0.0,0.0,0.0,0.0,0.0,0.0,0.0,0.0,0.0,0.0,0.0,0.0,0.0,0.0,0.0,0.0,-2.0566,0.0,0.0,0.0,0.0,0.0,0.0,0.0,-2.0605,-2.0605,-2.0605,0.0,-2.0895,-2.1593,-2.1631,-2.2075,-2.3073,-2.311,-2.322,-2.3514,-2.3514,-2.3514,-2.3526,-2.5307,-2.6174,-2.6209,-2.8047,-2.845,-2.7602,-2.6502,-2.5546,-2.4702,-2.3551,-2.3091,-2.3091,-2.3091,-2.3091,-2.3091,-2.3091,-2.3091,-2.3091,-1.4892,-1.484,-1.484,-1.484,-1.484,-1.484,-1.484,-1.484,-1.4385,-1.3142,-1.3006,0.0,0.0,0.0,0.0,0.0,0.0,-1.4392,-1.3251,0.0,-1.3194,0.0,0.0,-1.3787,0.0,-1.4981,-1.4981,-1.4981,-1.4981,-1.4981,-1.4981,-1.4988,-1.4995,-1.5122,-1.7383,-1.8372,-1.8587,-2.088,-2.1885,-2.1885,-2.1885,-2.2129,-2.2441,0.0,-2.1875,-2.1885,-2.1865,0.0,0.0,-2.1846,-2.1562,0.0,0.0,0.0,0.0,0.0,0.0,0.0,0.0,0.0,0.0,-2.0605,0.0,0.0,0.0,0.0,-2.0605,0.0,0.0,0.0,0.0,0.0,0.0,0.0,0.0,0.0,0.0,0.0,0.0,0.0,0.0,0.0,0.0,-2.0605,-2.0605,0.0,-2.0605,-2.0605,-2.0644,-2.0644,-2.1078,-2.2027,-2.2027,-2.2515,-2.3478,-2.3514,-2.3514,-2.3489,-2.4561,-2.5032,-2.5077,-2.6145,-2.6607,-2.6472,-2.5336,-2.483,-2.4702,-2.3551,-2.3091,-2.3091,-2.3091,-2.3091,-2.3091,-2.3091,-2.3091,-2.3091,-1.5538,-1.5538,-1.5418,-1.5075,-1.5008,-1.4732,-1.3948,-1.3812,-1.3399,0.0,-1.2056,0.0,0.0,-1.3518,-1.3986,0.0,0.0,-1.5107,-1.4688,-1.4508,0.0,0.0,0.0,-1.4597,0.0,0.0,-1.5008,-1.5008,-1.5008,-1.5008,-1.5015,-1.5157,-1.5686,-1.6525,-1.8348,-1.9571,0.0,0.0,0.0,0.0,0.0,-2.276,-2.2838,0.0,-2.2471,-2.2676,-2.2402,-2.2305,0.0,-2.1982,-2.1787,-2.167,-2.167,-2.1367,-2.1006,-2.1006,-2.0801,0.0,0.0,0.0,-2.0605,-2.0605,0.0,0.0,0.0,0.0,0.0,0.0,0.0,0.0,0.0,0.0,0.0,0.0,0.0,0.0,0.0,0.0,0.0,0.0,0.0,0.0,0.0,0.0,0.0,0.0,-2.0605,0.0,-2.0605,-2.0605,-2.075,-2.1039,-2.1078,-2.1231,-2.1565,-2.1565,-2.1719,-2.1998,-2.3366,-2.4183,-2.4506,-2.5883,-2.6524,-2.6431,-2.5294,-2.4787,-2.4702,-2.3551,-2.3091,-2.3091,-2.3091,-2.3091,-2.3091,-2.3091,-2.3091,-2.3091,-1.5784,-1.5784,-1.5712,-1.5337,-1.5271,-1.5035,-1.4235,-1.4096,0.0,0.0,-1.3049,0.0,-1.4337,0.0,-1.4737,0.0,-1.5551,-1.5551,-1.5551,-1.5378,0.0,-1.5538,-1.5371,0.0,0.0,0.0,0.0,0.0,-1.5271,-1.5271,-1.5277,-1.5464,-1.6181,-1.7447,-1.8889,-2.0169,-2.1382,-2.2589,-2.3091,0.0,0.0,-2.3091,0.0,0.0,-2.2857,-2.3062,0.0,-2.2691,-2.2652,-2.2422,-2.2236,-2.2109,-2.2109,-2.1816,-2.1465,-2.1465,-2.1152,-2.0801,-2.0801,-2.0723,0.0,-2.0605,-2.0605,0.0,-2.0605,0.0,0.0,0.0,0.0,0.0,0.0,0.0,0.0,0.0,0.0,0.0,0.0,-2.0605,0.0,0.0,0.0,0.0,0.0,0.0,0.0,-2.0605,-2.0605,-2.0605,0.0,-2.0605,-2.0605,-2.0605,-2.0605,-2.0605,-2.0605,-2.0605,-2.0791,-2.12,-2.2362,-2.3156,-2.3617,-2.4766,-2.5274,-2.5263,-2.451,-2.4211,-2.4125,-2.3387,-2.3091,-2.3091,-2.3091,-2.3091,-2.3091,-2.3091,-2.3091,-2.3091,-1.5784,-1.5784,-1.5784,-1.5784,-1.5784,0.0,0.0,0.0,-1.5784,0.0,-1.5784,-1.5784,-1.5784,-1.5784,-1.5784,-1.5784,-1.5784,-1.5784,-1.5784,-1.5784,0.0,0.0,-1.5784,-1.5784,-1.5784,0.0,0.0,0.0,0.0,-1.5784,-1.5784,-1.5784,-1.648,-1.7731,-1.8956,0.0,-2.1382,-2.2589,-2.3091,-2.3091,-2.3091,-2.3091,-2.3091,-2.3091,-2.3091,-2.3091,-2.3091,-2.3091,-2.3091,-2.3091,-2.2828,-2.2539,-2.2539,-2.2256,-2.1914,-2.1914,-2.1611,-2.122,-2.12,-2.0918,-2.0635,-2.0605,-2.0605,0.0,0.0,0.0,-2.0605,0.0,0.0,0.0,0.0,0.0,0.0,0.0,0.0,0.0,0.0,0.0,0.0,0.0,0.0,0.0,0.0,0.0,-2.0605,-2.0605,-2.0605,-2.0605,0.0,-2.0605,-2.0605,-2.0605,-2.0605,-2.0605,-2.0605,-2.0605,-2.0801,-2.1229,-2.1689,-2.2119,-2.2559,-2.2916,-2.3091,-2.3091,-2.3091,-2.3091,-2.3091,-2.3091,-2.3091,-2.3091,-2.3091,-2.3091,-2.3091,-2.3091,-2.3091,-2.3091,-1.5784,-1.5784,-1.5784,0.0,-1.5784,-1.5784,0.0,0.0,0.0,0.0,-1.5784,-1.5784,-1.5784,-1.5784,-1.5784,-1.5784,-1.5784,0.0,0.0,0.0,0.0,-1.5784,-1.5784,-1.5784,-1.5784,-1.5784,0.0,-1.5784,0.0,-1.5784,-1.5784,-1.5784,-1.648,-1.7731,-1.8956,-2.0169,-2.1382,-2.2589,-2.3091,-2.3091,-2.3091,-2.3091,-2.3091,0.0,-2.3091,-2.3091,-2.3091,-2.3091,-2.3091,-2.3091,-2.3023,-2.2935,-2.2935,-2.2685,-2.2353,-2.2353,-2.2051,-2.165,-2.1278,-2.1112,-2.0986,-2.0683,-2.0605,-2.0605,0.0,0.0,0.0,0.0,0.0,0.0,0.0,0.0,0.0,0.0,0.0,0.0,0.0,0.0,0.0,-2.0605,0.0,0.0,0.0,-2.0605,-2.0605,-2.0605,-2.0605,-2.0605,-2.0605,0.0,-2.0605,-2.0605,-2.0605,-2.0605,-2.0605,-2.0605,-2.0997,-2.1719,-2.1836,-2.2266,-2.2935,-2.3042,-2.3091,-2.3091,-2.3091,-2.3091,-2.3091,-2.3091,-2.3091,-2.3091,-2.3091,-2.3091,-2.3091,-2.3091,-2.3091,-2.3091,-1.5784,-1.5784,0.0,-1.5784,0.0,0.0,-1.5784,-1.5784,0.0,-1.5784,-1.5784,0.0,-1.5784,-1.5784,-1.5784,-1.5784,-1.5784,0.0,-1.5784,0.0,0.0,-1.5784,-1.5784,-1.5784,-1.5784,-1.5784,0.0,-1.5784,0.0,-1.5784,-1.5784,-1.5784,-1.648,-1.7731,-1.8956,-2.0169,-2.1382,-2.2589,-2.3091,-2.3091,-2.3091,-2.3091,0.0,-2.3091,-2.3091,-2.3091,-2.3091,-2.3091,-2.3091,-2.3091,-2.3091,-2.3091,-2.3091,-2.2935,-2.274,-2.274,-2.249,-2.2109,-2.1855,-2.1483,-2.1132,-2.0918,-2.0752,-2.0605,-2.0605,-2.0605,-2.0605,0.0,-2.0605,-2.0605,0.0,0.0,0.0,0.0,0.0,0.0,0.0,0.0,0.0,0.0,-2.0605,0.0,0.0,-2.0605,-2.0605,-2.0605,-2.0605,-2.0605,-2.0605,0.0,-2.0605,-2.0605,-2.0605,-2.0605,-2.0605,-2.0605,-2.1045,-2.1885,-2.1885,-2.2324,-2.3091,-2.3091,-2.3091,-2.3091,-2.3091,-2.3091,-2.3091,-2.3091,-2.3091,-2.3091,-2.3091,-2.3091,-2.3091,-2.3091,-2.3091,-2.3091,-1.5784,-1.5784,0.0,0.0,0.0,0.0,0.0,-1.5784,0.0,-1.5784,0.0,-1.5784,-1.5784,-1.5784,-1.5784,-1.5784,0.0,-1.5784,-1.5784,-1.5784,-1.5784,-1.5784,-1.5784,-1.5784,-1.5784,-1.5784,-1.5784,0.0,0.0,-1.5784,-1.5784,-1.5784,-1.6386,-1.7505,-1.891,0.0,0.0,-2.2633,-2.3091,-2.3091,-2.3091,-2.3091,-2.3091,-2.3091,-2.3091,-2.3091,-2.3091,-2.3091,-2.3091,-2.3091,-2.3091,-2.3091,-2.3091,-2.3091,-2.3091,-2.3091,-2.2838,-2.2578,-2.2529,-2.1973,-2.1337,-2.122,-2.0937,-2.0674,-2.0615,-2.0605,-2.0605,-2.0605,-2.0605,-2.0605,0.0,0.0,0.0,0.0,0.0,0.0,0.0,0.0,0.0,0.0,0.0,0.0,0.0,-2.0605,-2.0605,-2.0605,-2.0605,-2.0605,-2.0605,0.0,-2.0605,-2.0605,-2.0605,-2.0605,-2.0605,-2.0664,-2.1104,-2.1885,-2.1943,-2.2383,-2.3091,-2.3091,-2.3091,-2.3091,-2.3091,-2.3091,-2.3091,-2.3091,-2.3091,-2.3091,-2.3091,-2.3091,-2.3091,-2.3091,-2.3091,-2.3101,-1.5784,0.0,0.0,0.0,0.0,-1.5784,-1.5784,-1.5784,-1.5784,-1.5784,-1.5784,-1.5784,-1.5784,-1.5784,-1.5784,-1.5784,-1.5784,0.0,0.0,0.0,0.0,-1.5784,-1.5784,-1.5784,-1.5784,-1.5784,-1.5784,0.0,0.0,-1.5784,-1.5784,-1.5784,-1.592,-1.6244,-1.8488,0.0,-2.2818,-2.3003,0.0,-2.3091,-2.3091,-2.3091,-2.3091,-2.3091,-2.3091,-2.3091,-2.3091,-2.3091,-2.3091,-2.3091,-2.3091,-2.3091,-2.3091,-2.3091,-2.3091,-2.3091,-2.3042,-2.2906,-2.2607,-2.2402,-2.2119,-2.1366,-2.1132,-2.1025,-2.0693,-2.0605,-2.0605,-2.0605,-2.0605,-2.0605,-2.0605,0.0,0.0,0.0,0.0,0.0,0.0,0.0,0.0,0.0,0.0,-2.0605,0.0,0.0,-2.0605,-2.0605,-2.0605,-2.0605,-2.0605,0.0,-2.0605,0.0,-2.0605,0.0,0.0,0.0,-2.1377,-2.1894,-2.2236,-2.2656,-2.3091,-2.3091,-2.3091,-2.3091,-2.3091,-2.3091,-2.3091,-2.3091,-2.3091,-2.3091,-2.3091,-2.3091,-2.3091,-2.3091,-2.3091,-2.3149,0.0,0.0,0.0,0.0,0.0,0.0,0.0,-1.5784,-1.5784,-1.5784,-1.5784,-1.5784,-1.5784,-1.5784,-1.5784,-1.5784,-1.5784,-1.5784,-1.5784,-1.5784,-1.5784,-1.5784,-1.5784,-1.5784,-1.5784,-1.5784,-1.5784,-1.5784,0.0,-1.5784,-1.5784,-1.5784,-1.6157,-1.6897,-1.9351,-2.1445,0.0,0.0,0.0,-2.3091,-2.3091,-2.3091,-2.3091,-2.3091,-2.3091,-2.3091,-2.3091,-2.3091,-2.3091,-2.3091,-2.3091,-2.3091,-2.3091,-2.3091,-2.3091,-2.3091,-2.3091,-2.3052,-2.2847,-2.2676,-2.2412,-2.196,-2.1728,-2.1455,-2.1016,-2.0908,-2.084,-2.0654,-2.0605,-2.0605,-2.0605,-2.0605,0.0,0.0,0.0,0.0,0.0,0.0,0.0,0.0,0.0,0.0,0.0,0.0,0.0,0.0,0.0,-2.0605,-2.0605,0.0,-2.0605,0.0,0.0,0.0,-2.0605,0.0,-2.1455,-2.1894,-2.2314,-2.2691,-2.3091,-2.3091,-2.3091,-2.3091,-2.3091,-2.3091,-2.3091,-2.3091,-2.3091,-2.3091,-2.3091,-2.3091,-2.3091,-2.3091,-2.3091,-2.3159,0.0,-1.6197,0.0,0.0,-1.5784,0.0,-1.5784,-1.5784,-1.5784,-1.5784,-1.5784,-1.5784,-1.5784,-1.5784,-1.5784,-1.5784,-1.5784,-1.5784,-1.5784,-1.5784,-1.5784,-1.5784,-1.5784,-1.5784,-1.5784,-1.5784,-1.5784,0.0,0.0,0.0,-1.5784,-1.5784,-1.6615,0.0,0.0,0.0,0.0,0.0,-2.3091,-2.3091,-2.3091,-2.3091,-2.3091,-2.3091,-2.3091,-2.3091,-2.3091,-2.3091,-2.3091,-2.3091,-2.3091,-2.3091,-2.3091,-2.3091,-2.3091,-2.3091,-2.3091,-2.3091,-2.3091,-2.2857,-2.2627,-2.2539,-2.2266,-2.1904,-2.1434,-2.1259,-2.1093,-2.0781,-2.0674,-2.0605,-2.0605,-2.0605,0.0,0.0,0.0,0.0,0.0,0.0,0.0,0.0,0.0,0.0,-2.0605,0.0,0.0,0.0,0.0,-2.0362,-2.0605,-2.0605,-2.0605,0.0,0.0,-2.0605,-2.0605,0.0,-2.1543,-2.1894,-2.2402,-2.2779,-2.3091,-2.3091,-2.3091,-2.3091,-2.3091,-2.3091,-2.3091,-2.3091,-2.3091,-2.3091,-2.3091,-2.3091,-2.3091,-2.3091,-2.3091,-2.3169,0.0,0.0,0.0,0.0,0.0,0.0,-1.5784,-1.5784,-1.5784,-1.5784,-1.5784,-1.5784,-1.5784,-1.5784,-1.5784,-1.5784,-1.5784,-1.5784,-1.5784,-1.5784,-1.5784,-1.5784,-1.5784,-1.5784,-1.5784,-1.5784,-1.5784,0.0,0.0,-1.5784,0.0,-1.5784,-1.707,0.0,0.0,0.0,0.0,-2.3091,-2.3091,-2.3091,-2.3091,-2.3091,-2.3091,-2.3091,-2.3091,-2.3091,-2.3091,-2.3091,-2.3091,-2.3091,-2.3091,-2.3091,-2.3091,-2.3091,-2.3091,-2.3091,-2.3091,-2.3091,-2.3091,-2.3062,-2.2945,-2.2607,-2.248,-2.2344,-2.1924,-2.1523,-2.1181,-2.1142,-2.085,-2.0605,-2.0605,-2.0605,-2.0605,0.0,0.0,0.0,0.0,0.0,-2.0605,-2.0605,0.0,0.0,0.0,-2.0527,0.0,0.0,-1.9678,-1.9559,-2.0566,-2.0605,-2.0605,-2.0605,-2.0605,-2.0605,-2.0605,-2.1406,-2.1846,-2.1894,-2.2705,-2.3052,-2.3091,-2.3091,-2.3091,-2.3091,-2.3091,-2.3091,-2.3091,-2.3091,-2.3091,-2.3091,-2.3091,-2.3091,-2.3091,-2.3091,-2.3091,-2.3208,0.0,0.0,0.0,0.0,0.0,0.0,0.0,-1.7397,-1.6943,-1.6943,-1.6244,-1.5784,-1.5784,-1.5784,-1.5784,-1.5784,-1.5784,-1.5784,-1.5784,-1.5784,-1.5784,-1.5784,-1.5784,-1.5784,-1.5784,-1.5784,-1.5784,0.0,0.0,0.0,0.0,0.0,0.0,0.0,0.0,-2.2183,-2.3091,-2.3091,-2.3091,-2.3091,-2.3091,-2.3091,-2.3091,-2.3091,-2.3091,-2.3091,-2.3091,-2.3091,-2.3091,-2.3091,-2.3091,-2.3091,-2.3091,-2.3091,-2.3091,-2.3091,-2.3091,-2.3091,-2.3091,-2.3091,-2.3052,-2.2886,-2.2847,-2.274,-2.2353,-2.2129,-2.1924,-2.168,-2.1269,-2.0889,-2.0654,-2.0605,-2.0605,-2.0605,0.0,0.0,0.0,0.0,0.0,-2.0605,0.0,-2.0605,0.0,0.0,0.0,0.0,0.0,-2.0167,-2.0566,-2.0605,-2.0605,-2.0605,0.0,-2.0732,-2.0967,-2.1582,-2.2012,-2.2266,-2.2818,-2.3091,-2.3091,-2.3091,-2.3091,-2.3091,-2.3091,-2.3091,-2.3091,-2.3091,-2.3091,-2.3091,-2.3091,-2.3091,-2.3091,-2.3091,-2.3257,-2.3613,-2.0079,0.0,-1.9898,0.0,-1.9497,-1.9497,-1.9497,-1.8772,-1.8234,-1.8234,-1.7444,-1.6608,-1.5872,-1.5784,-1.5784,-1.5784,-1.5784,-1.5784,-1.5784,-1.5784,-1.5784,-1.5784,-1.5784,0.0,-1.5784,-1.5784,-1.5784,-1.5784,-1.5784,0.0,0.0,0.0,0.0,0.0,-2.2031,-2.2775,-2.3091,-2.3091,-2.3091,-2.3091,-2.3091,-2.3091,-2.3091,-2.3091,-2.3091,-2.3091,-2.3091,-2.3091,-2.3091,-2.3091,-2.3091,-2.3091,-2.3091,-2.3091,-2.3091,-2.3091,-2.3091,-2.3091,-2.3091,-2.3091,-2.3091,-2.3091,-2.3091,-2.3013,-2.2721,-2.2555,-2.2393,-2.1973,-2.1543,-2.1103,-2.082,-2.0693,-2.0605,-2.0605,0.0,0.0,0.0,-2.0605,0.0,0.0,-2.0605,-2.0605,-2.0605,-1.9923,0.0,0.0,0.0,-2.0605,-2.0605,-2.0605,-2.0605,0.0,0.0,0.0,-2.119,-2.1787,-2.2217,-2.2519,-2.2896,-2.3091,-2.3091,-2.3091,-2.3091,-2.3091,-2.3091,-2.3091,-2.3091,-2.3091,-2.3091,-2.3091,-2.3091,-2.3091,-2.3091,-2.3091,-2.3418,-2.3857,-2.1525,-2.1293,-2.089,-1.9724,-1.9497,-1.9497,-1.9497,-1.9497,-1.9497,-1.9497,-1.9451,-1.8534,-1.6062,-1.5784,-1.5784,-1.5784,-1.5784,-1.5784,-1.5784,-1.5784,-1.5784,0.0,0.0,-1.5784,-1.5784,-1.5784,-1.5784,-1.5784,0.0,0.0,-1.5832,0.0,-1.8365,-1.9579,-2.08,-2.1987,-2.3091,-2.3091,-2.3091,-2.3091,-2.3091,-2.3091,-2.3091,-2.3091,-2.3091,-2.3091,-2.3091,-2.3091,-2.3091,-2.3091,-2.3091,-2.3091,-2.3091,-2.3091,-2.3091,-2.3091,-2.3091,-2.3091,-2.3091,-2.3091,-2.3091,-2.3091,-2.3091,-2.3091,-2.3091,-2.2812,-2.2393,-2.1973,-2.1543,-2.119,-2.119,-2.0869,-2.0605,-2.0605,0.0,0.0,0.0,0.0,0.0,-2.0605,-2.0605,-2.0605,-2.0605,-2.0605,0.0,0.0,0.0,0.0,0.0,0.0,0.0,-2.0605,-2.0996,0.0,-2.119,-2.208,-2.251,-2.2519,-2.2896,-2.3091,-2.3091,-2.3091,-2.3091,-2.3091,-2.3091,-2.3091,-2.3091,-2.3091,-2.3091,-2.3091,-2.3091,-2.3091,-2.3091,-2.3091,-2.3418,-2.3857,-2.2589,-2.2536,-2.2403,-2.1996,-2.1952,-2.1952,-2.1952,-2.1257,-2.0711,-2.0711,-2.0034,-1.9222,-1.8395,-1.8303,-1.8303,0.0,-1.8303,-1.8303,0.0,-1.8303,-1.794,-1.7131,-1.7084,-1.6669,-1.5825,-1.5784,-1.5784,-1.5784,0.0,0.0,0.0,-1.7505,-1.8319,-1.9534,-2.0755,-2.1525,-2.1933,-2.2775,-2.3091,-2.3091,-2.3091,-2.3091,-2.3091,-2.3091,-2.3091,-2.3091,-2.3091,-2.3091,-2.3091,-2.3091,-2.3091,-2.3091,-2.3091,-2.3091,-2.3091,-2.3091,-2.3091,-2.3091,-2.3091,-2.3091,-2.3091,-2.3091,-2.3091,-2.3091,-2.3091,-2.2994,-2.2779,-2.2402,-2.2197,-2.2021,-2.1728,-2.1562,-2.1505,-2.1505,-2.1505,0.0,-2.1505,0.0,-2.1505,-2.1505,-2.1505,-2.1505,-2.1505,-2.1505,0.0,0.0,0.0,0.0,0.0,0.0,0.0,0.0,-2.1122,0.0,-2.21,-2.2373,-2.2656,-2.2896,-2.3033,-2.3091,-2.3091,-2.3091,-2.3091,-2.3091,-2.3091,-2.3091,-2.3091,-2.3091,-2.3091,-2.3091,-2.3091,-2.3091,-2.313,-2.3467,-2.3857,-2.4277,-2.3091,-2.3091,-2.3091,-2.3091,-2.3091,-2.3091,-2.3091,-2.2448,-2.1987,-2.1987,-2.1311,-2.0916,-2.1102,-2.112,0.0,-1.9596,-1.9093,-1.8818,-1.8818,-1.8818,-1.8272,-1.7037,-1.7458,-1.7084,-1.5832,-1.5784,0.0,-1.5784,-1.5784,-1.6204,-1.699,-1.7505,-1.8095,-1.8864,-2.0079,-2.089,-2.1337,-2.1623,-2.2271,-2.3047,-2.2633,-2.2677,-2.3091,-2.3091,-2.3091,-2.3091,-2.3091,-2.3091,-2.3091,-2.3091,-2.3091,-2.3091,-2.3091,-2.3091,-2.3091,-2.3091,-2.3091,-2.3091,-2.3091,-2.3091,-2.3091,-2.3091,-2.3091,-2.3091,-2.3091,-2.3091,-2.3023,-2.276,-2.2627,-2.2432,-2.2168,-2.1992,-2.1885,-2.1885,-2.1885,-2.1885,-2.1885,0.0,-2.1885,0.0,0.0,0.0,0.0,-2.1885,-2.1885,0.0,0.0,0.0,0.0,0.0,-2.1191,-2.1434,-2.159,-2.1931,-2.251,-2.2666,-2.2838,-2.3091,-2.3091,-2.3091,-2.3091,-2.3091,-2.3091,-2.3091,-2.3091,-2.3091,-2.3091,-2.3091,-2.3091,-2.3091,-2.3091,-2.3091,-2.3149,-2.3633,-2.4053,-2.4482,-2.3091,-2.3091,-2.311,0.0,-2.314,0.0,-2.3179,-2.3179,-2.3179,-2.3179,-2.3179,-2.3379,-2.3789,-2.3838,-2.2779,-2.0053,0.0,0.0,-1.8001,-1.7885,-1.7271,-1.5967,-1.7084,-1.7084,-1.5832,-1.5784,-1.5784,-1.5784,-1.5872,-1.5872,-1.5832,-1.699,-1.7552,-1.7638,-1.8818,-1.9988,-2.098,-1.9943,-2.0818,-2.2775,-2.1712,-2.1987,-2.3003,-2.3047,-2.3091,-2.3091,-2.3091,-2.3091,-2.3091,-2.3091,-2.3091,-2.3091,-2.3091,-2.3091,-2.3091,-2.3091,-2.3091,-2.3091,-2.3091,-2.3091,-2.3091,-2.3091,-2.3091,-2.3091,-2.3091,-2.3091,-2.3091,-2.3091,-2.2779,-2.2559,-2.2559,-2.2236,-2.1973,-2.1973,-2.1973,-2.1973,-2.1973,-2.1973,-2.1973,0.0,0.0,0.0,-2.1973,-2.1973,-2.1973,0.0,0.0,0.0,0.0,0.0,-2.1963,-2.1934,-2.2305,-2.2519,-2.2559,-2.2896,-2.3091,-2.3091,-2.3091,-2.3091,-2.3091,-2.3091,-2.3091,-2.3091,-2.3091,-2.3091,-2.3091,-2.3091,-2.3091,-2.3091,-2.3091,-2.3091,-2.3149,-2.3662,-2.4082,-2.4482,0.0,0.0,-2.3198,-2.3574,-2.3633,-2.374,-2.4062,-2.4066,-2.4066,-2.4066,-2.4066,-2.4105,-2.4258,-2.4268,-2.399,-2.3314,-2.1859,-2.1,-2.1,-1.9799,-1.8549,-1.7311,-1.7552,-1.7084,-1.5832,-1.5784,-1.5784,-1.5784,-1.6756,-1.6763,-1.5832,-1.6109,-1.6244,-1.6292,-1.7537,-1.828,-1.8588,-1.9222,-1.9807,-2.0404,-2.1025,-2.1471,-2.1845,-2.2775,-2.3091,-2.3091,-2.3091,-2.3091,-2.3091,-2.3091,-2.3091,-2.3091,-2.3091,-2.3091,-2.3091,-2.3091,-2.3091,-2.3091,-2.3091,-2.3091,-2.3091,-2.3091,-2.3091,-2.3091,-2.3091,-2.3091,-2.3091,-2.3091,-2.3013,-2.2945,-2.2945,-2.2867,-2.2799,-2.2799,-2.2799,-2.2799,-2.2799,-2.2799,-2.2799,0.0,-2.2799,-2.2799,-2.2799,-2.2799,-2.2799,0.0,0.0,-2.2799,-2.2799,-2.2799,-2.2695,-2.2373,-2.2461,-2.2666,-2.2945,-2.3042,-2.3091,-2.3091,-2.3091,-2.3091,-2.3091,-2.3091,-2.3091,-2.3091,-2.3091,-2.3091,-2.3091,-2.3091,-2.3091,-2.3091,-2.3091,-2.3091,-2.3188,-2.3984,-2.4336,-2.4521,-2.3676,-2.3676,-2.3754,-2.4033,-2.4072,-2.415,-2.4385,-2.4414,-2.4414,-2.4414,-2.4414,-2.4492,-2.4697,-2.4717,-2.4795,-2.5,-2.3346,-2.2288,-2.2288,-2.1424,-2.0365,-1.9154,-1.891,-1.8223,-1.6961,-1.6177,-1.6109,-1.6662,-1.7365,-1.7638,-1.7483,-1.6943,-1.6662,-1.6662,-1.6763,-1.7131,-1.7684,-1.7762,-1.8442,-1.9497,-1.9625,-1.9988,-2.0531,-2.1221,-2.181,-2.2262,-2.2262,-2.2633,-2.3091,-2.3091,-2.3091,-2.3091,-2.3091,-2.3091,-2.3091,-2.3091,-2.3091,-2.3091,-2.3091,-2.3091,-2.3091,-2.3091,-2.3091,-2.3091,-2.3091,-2.3091,-2.3091,-2.3091,-2.3091,-2.3091,-2.3091,-2.3091,-2.3091,-2.3091,-2.3091,-2.3091,-2.3091,-2.3091,-2.3091,-2.3091,-2.3091,-2.3091,-2.3091,-2.3091,-2.3091,-2.3091,-2.3091,0.0,-2.3091,-2.3091,-2.2994,-2.2769,-2.275,-2.2867,-2.3091,-2.3091,-2.3091,-2.3091,-2.3091,-2.3091,-2.3091,-2.3091,-2.3091,-2.3091,-2.3091,-2.3091,-2.3091,-2.3091,-2.3091,-2.3091,-2.3091,-2.3218,-2.3516,-2.417,-2.4541,-2.4814,-2.4414,-2.4414,-2.4443,-2.4502,-2.4521,-2.4541,-2.4609,-2.4619,-2.4619,-2.4619,-2.4619,-2.4756,-2.5127,-2.5166,-2.5322,-2.5654,-2.4078,-2.2957,-2.2704,-2.2452,-2.1877,-2.0858,-2.0415,-1.9636,-1.8381,-1.6936,-1.6639,-1.7485,-1.7665,-1.828,-1.9222,-1.8187,-1.7692,-1.7645,-1.6574,-1.6574,-1.7365,-1.6251,-1.7023,-1.8856,-1.8048,-1.8319,-1.9268,-1.9443,-2.026,-2.1293,-2.1293,-2.2076,-2.3091,-2.3091,-2.3091,-2.3091,-2.3091,-2.3091,-2.3091,-2.3091,-2.3091,-2.3091,-2.3091,-2.3091,-2.3091,-2.3091,-2.3091,-2.3091,-2.3091,-2.3091,-2.3091,-2.3091,-2.3091,-2.3091,-2.3091,-2.3091,-2.3091,-2.3091,-2.3091,-2.3091,-2.3091,0.0,-2.3091,-2.3091,-2.3091,-2.3091,-2.3091,-2.3091,-2.3091,-2.3091,-2.3091,-2.3091,-2.3091,-2.3091,-2.3091,-2.3091,-2.3091,-2.3091,-2.3091,-2.3091,-2.3091,-2.3091,-2.3091,-2.3091,-2.3091,-2.3091,-2.3091,-2.3091,-2.3091,-2.3091,-2.3091,-2.3091,-2.3091,-2.3101,-2.3169,-2.3467,-2.3848,-2.4336,-2.4746,-2.5184,-2.4414,-2.4414,-2.4531,-2.4902,-2.4971,-2.5098,-2.543,-2.5479,-2.5479,-2.5479,-2.5479,-2.5508,-2.5577,-2.5635,-2.5615,-2.5684,-2.5412,-2.463,-2.3283,-2.1861,-2.1002,-2.081,-2.0751,-2.0055,-1.8671,-1.8284,-1.7553,-1.6539,-1.7529,-1.8,-1.7963,-1.7785,-1.7692,-1.7684,-1.7505,-1.6897,-1.6062,-1.5872,-1.6015,-1.6473,-1.7358,-1.7824,-1.8095,-1.9131,-2.026,-2.1293,-2.1293,-2.2076,-2.3091,-2.3091,-2.3091,-2.3091,-2.3091,-2.3091,-2.3091,-2.3091,-2.3091,-2.3091,-2.3091,-2.3091,-2.3091,-2.3091,-2.3091,-2.3091,-2.3091,-2.3091,-2.3091,-2.3091,-2.3091,-2.3091,-2.3091,-2.3091,-2.3091,-2.3091,-2.3091,-2.3091,-2.3091,0.0,-2.3091,-2.3091,-2.3091,-2.3091,-2.3091,-2.3091,-2.3091,-2.3091,-2.3091,-2.3091,-2.3091,-2.3091,-2.3091,-2.3091,-2.3091,-2.3091,-2.3091,-2.3091,-2.3091,-2.3091,-2.3091,-2.3091,-2.3091,-2.3091,-2.3091,-2.3091,-2.3091,-2.3091,-2.3091,-2.3091,-2.3091,-2.313,-2.3545,-2.373,-2.3887,-2.4678,-2.5057,-2.5184,-2.5079,-2.5079,-2.5195,-2.54,-2.543,-2.5498,-2.5654,-2.5693,-2.5693,-2.5693,-2.5693,-2.5693,-2.5693,-2.5693,-2.5693,-2.5693,-2.5693,-2.5402,-2.4648,-2.3851,-2.3441,-2.3441,-2.2588,-2.101,-1.8754,-1.8648,-1.8238,-1.7471,-1.805,-1.8591,-1.9146,-1.8439,-1.8111,-1.8111,-1.7445,-1.6829,-1.6299,-1.6299,-1.6299,-1.6348,-1.6919,-1.7161,-1.721,-1.7768,-1.8758,-1.9854,-2.0352,-2.1354,-2.2447,-2.2949,-2.3091,-2.3091,-2.3091,-2.3091,-2.3091,-2.3091,-2.3091,-2.3091,-2.3091,-2.3091,-2.3091,-2.3091,-2.3091,-2.3091,-2.3091,-2.3091,-2.3091,-2.3091,-2.3091,-2.3091,-2.3091,-2.3091,-2.3091,-2.3091,-2.3091,0.0,-2.3091,-2.3091,-2.3091,-2.3091,-2.3091,-2.3091,-2.3091,-2.3091,-2.3091,-2.3091,-2.3091,-2.3091,-2.3091,-2.3091,-2.3091,-2.3091,-2.3091,-2.3091,-2.3091,-2.3091,-2.3091,-2.3091,-2.3091,-2.3091,-2.3091,-2.3091,-2.3091,-2.3091,-2.3091,-2.3091,-2.3091,-2.3091,-2.3227,-2.3516,-2.3711,-2.4072,-2.4531,-2.4969,-2.5215,-2.5459,-2.5693,-2.5693,-2.5693,-2.5693,-2.5693,-2.5693,-2.5693,-2.5693,-2.5693,-2.5693,-2.5693,-2.5693,-2.5693,-2.5693,-2.5693,-2.5693,-2.5693,-2.5693,-2.5693,-2.5693,-2.5693,-2.5693,-2.3843,-2.1754,-1.9467,-1.8781,-1.8353,-1.818,-1.818,-1.8822,-1.995,-1.8935,-1.8508,-1.8459,-1.7534,-1.695,-1.6707,-1.6707,-1.6707,-1.6707,-1.6707,-1.6707,-1.6707,-1.6707,-1.7435,-1.8618,-1.9686,-2.087,-2.2069,-2.3089,-2.3393,-2.3393,-2.3393,-2.3325,-2.3247,-2.3247,-2.3169,-2.3091,-2.3091,-2.3091,-2.3091,-2.3091,-2.3091,-2.3091,-2.3091,-2.3091,-2.3091,-2.3091,-2.3091,-2.3091,-2.3091,-2.3091,-2.3091,-2.3091,0.0,-2.3091,-2.3091,-2.3091,-2.3091,-2.3091,-2.3091,-2.3091,-2.3091,-2.3091,-2.3091,-2.3091,-2.3091,-2.3091,-2.3091,-2.3091,-2.3091,-2.3091,-2.3091,-2.3091,-2.3091,-2.3091,-2.3091,-2.3091,-2.3091,-2.3091,-2.3091,-2.3091,-2.3091,-2.3091,-2.3091,-2.3091,-2.3101,-2.3208,-2.3486,-2.3809,-2.4014,-2.4482,-2.5125,-2.5233,-2.5439,-2.5693,-2.5693,-2.5693,-2.5693,-2.5693,-2.5693,-2.5693,-2.5693,-2.5693,-2.5693,-2.5693,-2.5693,-2.5693,-2.5693,-2.5693,-2.5693,-2.5693,-2.5693,-2.5693,-2.5693,-2.5693,-2.5693,-2.5693,-2.3199,-2.1694,-2.1467,-1.8992,-1.7538,-1.7319,-1.7319,-1.7764,-1.8648,-1.8557,-1.8508,-1.8508,-1.841,-1.7725,-1.6707,-1.6707,-1.6707,-1.6707,-1.6707,-1.6707,-1.6707,-1.6707,-1.7435,-1.8697,-2.0063,-2.135,-2.2559,-2.3855,-2.4326,-2.4326,-2.4326,-2.4053,-2.374,-2.374,-2.3457,-2.3091,-2.3091,-2.3091,-2.3091,-2.3091,-2.3091,-2.3091,-2.3091,-2.3091,-2.3091,-2.3091,-2.3091,-2.3091,-2.3091,-2.3091,-2.3091,-2.3091,0.0,0.0,-2.3091,-2.3091,-2.3091,-2.3091,-2.3091,-2.3091,-2.3091,-2.3091,-2.3091,-2.3091,-2.3091,-2.3091,-2.3091,-2.3091,-2.3091,-2.3091,-2.3091,-2.3091,-2.3091,-2.3091,-2.3091,-2.3091,-2.3091,-2.3091,-2.3091,-2.3091,-2.3091,-2.3091,-2.3091,-2.3091,-2.312,-2.3574,-2.376,-2.3867,-2.4705,-2.5057,-2.5165,-2.5537,-2.5664,-2.5693,-2.5693,-2.5693,-2.5693,-2.5693,-2.5693,-2.5693,-2.5693,-2.5693,-2.5693,-2.5693,-2.5693,-2.5693,-2.5693,-2.5693,-2.5693,-2.5693,-2.5693,-2.5693,-2.5693,-2.5693,-2.5693,-2.5693,-2.4716,-2.3384,-2.1752,-2.0684,-1.9258,-1.7467,-1.7467,-1.7615,-1.7956,-1.7956,-1.8403,-1.916,-1.8308,-1.8154,-1.8454,-1.7602,-1.7248,-1.7248,-1.7248,-1.7248,-1.7248,-1.7248,-1.7551,-1.8082,-1.9222,-2.0426,-2.1702,-2.2781,-2.37,-2.4414,-2.4414,-2.4307,-2.418,-2.418,-2.3877,-2.3545,-2.3545,-2.3305,-2.3091,-2.3091,-2.3091,-2.3091,-2.3091,-2.3091,-2.3091,-2.3091,-2.3091,-2.3091,-2.3091,-2.3091,-2.3091,-2.3091,0.0,-2.3091,-2.3091,-2.3091,-2.3091,-2.3091,-2.3091,-2.3091,-2.3091,-2.3091,-2.3091,-2.3091,-2.3091,-2.3091,-2.3091,-2.3091,-2.3091,-2.3091,-2.3091,-2.3091,-2.3091,-2.3091,-2.3091,-2.3091,-2.3091,-2.3091,-2.3091,-2.3091,-2.3091,-2.311,-2.3428,-2.3545,-2.3574,-2.4004,-2.4336,-2.4666,-2.4988,-2.5234,-2.5508,-2.5625,-2.5693,-2.5693,-2.5693,-2.5693,-2.5693,-2.5693,-2.5693,-2.5693,-2.5693,-2.5693,-2.5693,-2.5693,-2.5693,-2.5693,-2.5693,-2.5693,-2.5693,-2.5693,-2.5693,-2.5693,-2.5693,-2.5693,-2.5693,-2.5693,-2.5274,-2.3998,-2.1752,-2.1245,-1.9922,-1.7582,-1.7582,-1.7582,-1.7582,-1.7582,-1.8094,-1.8916,-1.7996,-1.8094,-1.8916,-1.7989,-1.7582,-1.7582,-1.7582,-1.7582,-1.7582,-1.7582,-1.7582,-1.7759,-1.8825,-1.979,-2.0748,-2.183,-2.2775,-2.3644,-2.4042,-2.4389,-2.459,-2.4453,-2.4209,-2.3984,-2.3984,-2.3769,-2.3432,-2.3169,-2.3091,-2.3091,-2.3091,-2.3091,-2.3091,-2.3091,-2.3091,-2.3091,-2.3091,-2.3091,-2.3091,-2.3091,-2.3091,-2.3091,-2.3091,-2.3091,-2.3091,-2.3091,-2.3091,-2.3091,-2.3091,-2.3091,-2.3091,-2.3091,-2.3091,-2.3091,-2.3091,-2.3091,-2.3091,-2.3091,-2.3091,-2.3091,-2.3091,-2.3091,-2.3091,-2.3091,-2.3091,-2.3169,-2.3305,-2.3305,-2.3374,-2.351,-2.3857,-2.3984,-2.4014,-2.4443,-2.4795,-2.5135,-2.5225,-2.5469,-2.5693,-2.5693,-2.5693,-2.5693,-2.5693,-2.5693,-2.5693,-2.5693,-2.5693,-2.5693,-2.5693,-2.5693,-2.5693,-2.5693,-2.5693,-2.5693,-2.5693,-2.5693,-2.5693,-2.5693,-2.5693,-2.5693,-2.5693,-2.5693,-2.5693,-2.5693,-2.4402,-2.3076,-2.1752,-2.0333,-1.8968,-1.7582,-1.7582,-1.7582,-1.7582,-1.7582,-1.7635,-1.7635,-1.7582,-1.7635,-1.7635,-1.7582,-1.7582,-1.7582,-1.7582,-1.7582,-1.7582,-1.7582,-1.7582,-1.7786,-1.9117,-1.9576,-1.9834,-2.1194,-2.1693,-2.1954,-2.3276,-2.4319,-2.499,-2.4551,-2.4424,-2.4424,-2.4424,-2.4414,-2.4209,-2.3315,-2.3101,-2.3101,-2.3091,-2.3091,-2.3091,-2.3091,-2.3091,-2.3091,-2.3091,-2.3091,-2.3091,-2.3091,-2.3091,-2.3091,-2.3091,-2.3091,-2.3091,-2.3091,-2.3091,-2.3091,-2.3091,-2.3091,-2.3091,-2.3091,-2.3091,-2.3091,-2.3091,-2.3091,-2.3091,-2.3101,-2.3101,-2.3101,-2.311,-2.3101,-2.3101,-2.3101,-2.3101,-2.3335,-2.3799,-2.3799,-2.4023,-2.4414,-2.4424,-2.4424,-2.4453,-2.4893,-2.5116,-2.5117,-2.5566,-2.5693,-2.5693,-2.5693,-2.5693,-2.5693,-2.5693,-2.5693,-2.5693,-2.5693,-2.5693,-2.5693,-2.5693,-2.5693,-2.5693,-2.5693,-2.5693,-2.5693,-2.5693,-2.5693,-2.5693,-2.5693,-2.5693,-2.5693,-2.5693,-2.5693,-2.5693,-2.5693,-2.4402,-2.3076,-2.1752,-2.0333,-1.8968,-1.7582,-1.7582,-1.7582,-1.7582,-1.7582,-1.8094,-1.8968,-1.8042,-1.8146,-1.8968,-1.7989,-1.7582,-1.7582,-1.7582,-1.7582,-1.7582,-1.7582,-1.7582,-1.7635,-1.8042,-1.8812,-1.9679,-2.0084,-2.0888,-2.1954,-2.3276,-2.3907,-2.4287,-2.5083,-2.5117,-2.4873,-2.4873,-2.4648,-2.4287,-2.373,-2.3594,-2.3516,-2.3169,-2.3091,-2.3091,-2.3091,-2.3091,-2.3091,-2.3091,-2.3091,-2.3091,-2.3091,-2.3091,-2.3091,-2.3091,-2.3091,-2.3091,-2.3091,-2.3091,-2.3091,-2.3091,-2.3091,-2.3091,-2.3091,-2.3091,-2.3091,-2.3091,-2.3091,-2.3237,-2.3584,-2.3594,-2.374,-2.3988,-2.374,-2.3594,-2.3603,-2.3896,-2.4102,-2.4228,-2.4228,-2.4297,-2.4434,-2.4746,-2.4873,-2.4902,-2.5352,-2.5537,-2.5557,-2.5635,-2.5693,-2.5693,-2.5693,-2.5693,-2.5693,-2.5693,-2.5693,-2.5693,-2.5693,-2.5693,-2.5693,-2.5693,-2.5693,-2.5693,-2.5693,-2.5693,-2.5693,-2.5693,-2.5693,-2.5693,-2.5693,-2.5693,-2.5693,-2.5693,-2.5693,-2.5693,-2.5693,-2.3899,-2.2517,-2.1702,-2.0333,-1.8968,-1.7582,-1.7582,-1.7582,-1.7582,-1.7582,-1.8048,-1.876,-1.7943,-1.8042,-1.876,-1.7943,-1.7582,-1.7582,-1.7582,-1.7582,-1.7582,-1.7582,-1.7582,-1.7582,-1.7582,-1.8094,-1.8812,-1.8812,-1.9723,-2.099,-2.1811,-2.2466,-2.3176,-2.451,-2.4733,-2.4679,-2.5179,-2.5137,-2.4834,-2.4404,-2.416,-2.3965,-2.3656,-2.3598,-2.3549,-2.3393,-2.3398,-2.3305,-2.312,-2.3091,-2.3091,-2.3091,-2.3091,-2.3091,-2.3091,-2.3091,-2.3091,-2.3091,-2.3091,-2.3091,-2.3091,-2.3091,-2.3169,-2.3379,-2.351,-2.3598,-2.3598,-2.3598,-2.376,-2.4033,-2.4043,-2.416,-2.4414,-2.4336,-2.4209,-2.4043,-2.4297,-2.4502,-2.4678,-2.4678,-2.4775,-2.4951,-2.5215,-2.5332,-2.5352,-2.5577,-2.5693,-2.5693,-2.5693,-2.5693,-2.5693,-2.5693,-2.5693,-2.5693,-2.5693,-2.5693,-2.5693,-2.5693,-2.5693,-2.5693,-2.5693,-2.5693,-2.5693,-2.5693,-2.5693,-2.5693,-2.5693,-2.5693,-2.5693,-2.5693,-2.5693,-2.5693,-2.5693,-2.5693,-2.5693,-2.5693,-2.3126,-2.1702,-2.1702,-2.0179,-1.8812,-1.7582,-1.7582,-1.7582,-1.7582,-1.7582,-1.7582,-1.7582,-1.7582,-1.7582,-1.7582,-1.7582,-1.7582,-1.7582,-1.7582,-1.7582,-1.7582,-1.7582,-1.7582,-1.7582,-1.7582,-1.7582,-1.7582,-1.7582,-1.8401,-1.942,-1.9576,-2.059,-2.1954,-2.3176,-2.3683,-2.4097,-2.5226,-2.5586,-2.5586,-2.5234,-2.4824,-2.4512,-2.4434,-2.4414,-2.4307,-2.3926,-2.3848,-2.3721,-2.3276,-2.3208,-2.3208,-2.3208,-2.3208,-2.3208,-2.3208,-2.3208,-2.3208,-2.3208,-2.3208,-2.3208,-2.3208,-2.3208,-2.3374,-2.3818,-2.4199,-2.4414,-2.4414,-2.4414,-2.4434,-2.4473,-2.4473,-2.4492,-2.4531,-2.4932,-2.4902,-2.4473,-2.4512,-2.4746,-2.5127,-2.5127,-2.5352,-2.5693,-2.5693,-2.5693,-2.5693,-2.5693,-2.5693,-2.5693,-2.5693,-2.5693,-2.5693,-2.5693,-2.5693,-2.5693,-2.5693,-2.5693,-2.5693,-2.5693,-2.5693,-2.5693,-2.5693,-2.5693,-2.5693,-2.5693,-2.5693,-2.5693,-2.5693,-2.5693,-2.5693,-2.5693,-2.5693,-2.5693,-2.5693,-2.5693,-2.5693,-2.5693,-2.3126,-2.1702,-2.1702,-1.9317,-1.7891,-1.7582,-1.7582,-1.7582,-1.7582,-1.7582,-1.7582,-1.7582,-1.7582,-1.7582,-1.7582,-1.7582,-1.7582,-1.7582,-1.7582,-1.7582,-1.7582,-1.7582,-1.7582,-1.7582,-1.7582,-1.7582,-1.7582,-1.7582,-1.7786,-1.8199,-1.9272,-2.059,-2.1752,-2.2055,-2.3642,-2.5118,-2.4353,-2.4913,-2.5664,-2.5567,-2.5469,-2.5226,-2.458,-2.4414,-2.4394,-2.4297,-2.4277,-2.4248,-2.416,-2.4141,-2.4141,-2.4141,-2.4141,-2.4141,-2.4141,-2.4141,-2.4141,-2.4141,-2.4141,-2.4141,-2.4141,-2.4141,-2.418,-2.4277,-2.4365,-2.4414,-2.4414,-2.4414,-2.457,-2.4959,-2.4969,-2.5098,-2.5401,-2.5499,-2.5371,-2.4932,-2.5283,-2.545,-2.5596,-2.5596,-2.5596,-2.5693,-2.5693,-2.5693,-2.5693,-2.5693,-2.5693,-2.5693,-2.5693,-2.5693,-2.5693,-2.5693,-2.5693,-2.5693,-2.5693,-2.5693,-2.5693,-2.5693,-2.5693,-2.5693,-2.5693,-2.5693,-2.5693,-2.5693,-2.5693,-2.5693,-2.5693,-2.5693,-2.5693,-2.5693,-2.5693,-2.5781,-2.6035,-2.6045,-2.5826,-2.5289,-2.3263,-2.1859,-2.1128,-1.911,-1.7876,-1.7582,-1.7582,-1.7582,-1.7582,-1.7582,-1.7582,-1.7582,-1.7582,-1.7582,-1.7582,-1.7582,-1.7582,-1.7582,-1.7582,-1.7582,-1.7582,-1.7582,-1.7582,-1.7582,-1.7582,-1.7582,-1.7582,-1.7582,-1.7582,-1.7733,-1.8401,-1.9161,-1.987,-2.0487,-2.2165,-2.3791,-2.3741,-2.4658,-2.5693,-2.5693,-2.5693,-2.5567,-2.5099,-2.5001,-2.499,-2.4766,-2.4727,-2.4668,-2.4453,-2.4414,-2.4414,-2.4414,-2.4414,-2.4414,-2.4414,-2.4414,-2.4414,-2.4414,-2.4414,-2.4414,-2.4414,-2.4609,-2.4727,-2.4727,-2.4922,-2.5001,-2.5001,-2.5001,-2.5146,-2.5381,-2.5391,-2.5498,-2.5693,-2.5693,-2.5567,-2.5391,-2.5577,-2.5693,-2.5693,-2.5693,-2.5693,-2.5693,-2.5693,-2.5693,-2.5693,-2.5693,-2.5693,-2.5693,-2.5693,-2.5693,-2.5693,-2.5693,-2.5693,-2.5693,-2.5888,-2.5908,-2.5908,-2.5908,-2.5908,-2.5908,-2.5908,-2.5908,-2.5908,-2.5908,-2.5908,-2.5908,-2.5908,-2.5908,-2.5908,-2.5908,-2.5908,-2.6113,-2.6475,-2.6494,-2.6116,-2.5228,-2.3597,-2.2108,-2.0878,-1.9346,-1.8243,-1.7736,-1.7736,-1.7736,-1.7736,-1.7736,-1.7736,-1.7736,-1.7682,-1.7662,-1.7655,-1.7602,-1.7582,-1.7582,-1.7582,-1.7582,-1.7582,-1.7582,-1.7582,-1.7582,-1.7582,-1.7582,-1.7582,-1.7582,-1.7582,-1.7582,-1.7582,-1.7733,-1.8146,-1.9272,-2.0743,-2.2257,-2.3384,-2.4658,-2.5693,-2.5693,-2.5693,-2.5693,-2.5693,-2.5693,-2.5635,-2.5254,-2.5185,-2.5068,-2.4707,-2.4639,-2.4639,-2.4639,-2.4639,-2.4639,-2.4639,-2.4639,-2.4639,-2.4639,-2.4639,-2.4639,-2.4639,-2.4971,-2.5185,-2.5185,-2.5527,-2.5693,-2.5693,-2.5693,-2.5693,-2.5693,-2.5693,-2.5693,-2.5693,-2.5693,-2.5693,-2.5693,-2.5693,-2.5693,-2.5693,-2.5693,-2.5693,-2.5693,-2.5693,-2.5693,-2.5693,-2.5693,-2.5693,-2.5693,-2.5693,-2.5693,-2.5693,-2.5693,-2.5693,-2.5693,-2.6777,-2.6836,-2.6836,-2.6836,-2.6836,-2.6836,-2.6836,-2.6836,-2.6836,-2.6836,-2.6836,-2.6836,-2.6836,-2.6836,-2.6836,-2.6836,-2.6836,-2.6865,-2.6924,-2.6934,-2.6851,-2.6695,-2.4132,-2.2589,-2.2421,-1.9826,-1.845,-1.837,-1.837,-1.837,-1.837,-1.837,-1.837,-1.8357,-1.8096,-1.7929,-1.7909,-1.7695,-1.7582,-1.7582,-1.7582,-1.7582,-1.7582,-1.7582,-1.7582,-1.7582,-1.7582,-1.7582,-1.7582,-1.7582,-1.7582,-1.7582,-1.7582,-1.8401,-1.9376,-1.9524,-2.1405,-2.3484,-2.3633,-2.4658,-2.5693,-2.5693,-2.5693,-2.5693,-2.5693,-2.5693,-2.5674,-2.5615,-2.5596,-2.5586,-2.5528,-2.5508,-2.5508,-2.5508,-2.5508,-2.5508,-2.5508,-2.5508,-2.5508,-2.5508,-2.5508,-2.5508,-2.5508,-2.5567,-2.5596,-2.5596,-2.5654,-2.5693,-2.5693,-2.5693,-2.5693,-2.5693,-2.5693,-2.5693,-2.5693,-2.5693,-2.5693,-2.5693,-2.5693,-2.5693,-2.5693,-2.5693,-2.5693,-2.5693,-2.5693,-2.5693,-2.5693,-2.5693,-2.5693,-2.5693,-2.5693,-2.5693,-2.5693,-2.5693,-2.5693,-2.5693,-2.6982,-2.7012,-2.7012,-2.7012,-2.7012,-2.7012,-2.7012,-2.7012,-2.7012,-2.7012,-2.7012,-2.7012,-2.7012,-2.7012,-2.7012,-2.7012,-2.7012,-2.7119,-2.7363,-2.7373,-2.7097,-2.6499,-2.4438,-2.2905,-2.2088,-2.0076,-1.8978,-1.8978,-1.8651,-1.8913,-1.9709,-1.8864,-1.849,-1.8484,-1.8357,-1.8297,-1.829,-1.815,-1.809,-1.8076,-1.7909,-1.7842,-1.7822,-1.7649,-1.7582,-1.7582,-1.7582,-1.7582,-1.7582,-1.7582,-1.7582,-1.7582,-1.7582,-1.7996,-1.861,-1.9376,-2.0998,-2.2767,-2.3484,-2.4658,-2.5693,-2.5693,-2.5693,-2.5693,-2.5693,-2.5693,-2.5693,-2.5693,-2.5693,-2.5693,-2.5693,-2.5693,-2.5693,-2.5693,-2.5693,-2.5693,-2.5693,-2.5693,-2.5693,-2.5693,-2.5693,-2.5693,-2.5693,-2.5693,-2.5693,-2.5693,-2.5693,-2.5693,-2.5693,-2.5693,-2.5693,-2.5693,-2.5693,-2.5693,-2.5693,-2.5693,-2.5693,-2.5693,-2.5693,-2.5693,-2.5693,-2.5693,-2.5693,-2.5693,-2.5693,-2.5693,-2.5693,-2.5693,-2.5693,-2.5693,-2.5693,-2.5693,-2.5693,-2.5693,-2.5693,-2.5693]},{"header":{"parameterUnit":"m.s-1","parameterCategory":1,"la1":30.6,"la2":28.766,"lo1":-90.7593,"lo2":-88.6598,"dy":0.0162,"dx":0.0183,"nx":116,"ny":114,"refTime":"2024-04-28T18:00:00:Z","depth":0,"parameterNumber":3,"parameterNumberName":"V-component_of_WINDS"},"data":[0.0,0.0,0.0,0.0,0.0,0.0,0.0,0.0,0.0,0.0,0.0,0.0,0.0,0.0,0.0,0.0,0.0,0.0,0.0,0.0,0.0,0.0,0.0,0.0,0.0,0.0,0.0,0.0,0.0,0.0,0.0,0.0,0.0,0.0,0.0,0.0,0.0,0.0,0.0,0.0,0.0,0.0,0.0,0.0,0.0,0.0,0.0,0.0,0.0,0.0,0.0,0.0,0.0,0.0,0.0,0.0,0.0,0.0,0.0,0.0,0.0,0.0,0.0,0.0,0.0,0.0,0.0,0.0,0.0,0.0,0.0,0.0,0.0,0.0,0.0,0.0,0.0,0.0,0.0,0.0,0.0,0.0,0.0,0.0,0.0,0.0,0.0,0.0,0.0,0.0,0.0,0.0,0.0,0.0,0.0,0.0,0.0,0.0,0.0,0.0,0.0,0.0,0.0,0.0,0.0,0.0,0.0,0.0,0.0,0.0,0.0,0.0,0.0,0.0,0.0,0.0,0.0,0.0,0.0,0.0,0.0,0.0,0.0,0.0,0.0,0.0,0.0,0.0,0.0,0.0,0.0,0.0,0.0,0.0,0.0,0.0,0.0,0.0,0.0,0.0,0.0,0.0,0.0,0.0,0.0,0.0,0.0,0.0,0.0,0.0,0.0,0.0,0.0,0.0,0.0,0.0,0.0,0.0,0.0,0.0,0.0,0.0,0.0,0.0,0.0,0.0,0.0,0.0,0.0,0.0,0.0,0.0,0.0,0.0,0.0,0.0,0.0,0.0,0.0,0.0,0.0,0.0,0.0,0.0,0.0,0.0,0.0,0.0,0.0,0.0,0.0,0.0,0.0,0.0,0.0,0.0,0.0,0.0,0.0,0.0,0.0,0.0,0.0,0.0,0.0,0.0,0.0,0.0,0.0,0.0,0.0,0.0,0.0,0.0,0.0,0.0,0.0,0.0,0.0,0.0,0.0,0.0,0.0,0.0,0.0,0.0,0.0,0.0,0.0,0.0,0.0,0.0,0.0,0.0,0.0,0.0,0.0,0.0,0.0,0.0,0.0,0.0,0.0,0.0,0.0,0.0,0.0,0.0,0.0,0.0,0.0,0.0,0.0,0.0,0.0,0.0,0.0,0.0,0.0,0.0,0.0,0.0,0.0,0.0,0.0,0.0,0.0,0.0,0.0,0.0,0.0,0.0,0.0,0.0,0.0,0.0,0.0,0.0,0.0,0.0,0.0,0.0,0.0,0.0,0.0,0.0,0.0,0.0,0.0,0.0,0.0,0.0,0.0,0.0,0.0,0.0,0.0,0.0,0.0,0.0,0.0,0.0,0.0,0.0,0.0,0.0,0.0,0.0,0.0,0.0,0.0,0.0,0.0,0.0,0.0,0.0,0.0,0.0,0.0,0.0,0.0,0.0,0.0,0.0,0.0,0.0,0.0,0.0,0.0,0.0,0.0,0.0,0.0,0.0,0.0,0.0,0.0,0.0,0.0,0.0,0.0,0.0,0.0,0.0,0.0,0.0,0.0,0.0,0.0,0.0,0.0,0.0,0.0,0.0,0.0,0.0,0.0,0.0,0.0,0.0,0.0,0.0,0.0,0.0,0.0,0.0,0.0,0.0,0.0,0.0,0.0,0.0,0.0,0.0,0.0,0.0,0.0,0.0,0.0,0.0,0.0,0.0,0.0,0.0,0.0,0.0,0.0,0.0,0.0,0.0,0.0,0.0,0.0,0.0,0.0,0.0,0.0,0.0,0.0,0.0,0.0,0.0,0.0,0.0,0.0,0.0,0.0,0.0,0.0,0.0,0.0,0.0,0.0,0.0,0.0,0.0,0.0,0.0,0.0,0.0,0.0,0.0,0.0,0.0,0.0,0.0,0.0,0.0,0.0,0.0,0.0,0.0,0.0,0.0,0.0,0.0,0.0,0.0,0.0,0.0,0.0,0.0,0.0,0.0,0.0,0.0,0.0,0.0,0.0,0.0,0.0,0.0,0.0,0.0,0.0,0.0,0.0,0.0,0.0,0.0,0.0,0.0,0.0,0.0,0.0,0.0,0.0,0.0,0.0,0.0,0.0,0.0,0.0,0.0,0.0,0.0,0.0,0.0,0.0,0.0,0.0,0.0,0.0,0.0,0.0,0.0,0.0,0.0,0.0,0.0,0.0,0.0,0.0,0.0,0.0,0.0,0.0,0.0,0.0,0.0,0.0,0.0,0.0,0.0,0.0,0.0,0.0,0.0,0.0,0.0,0.0,0.0,0.0,0.0,0.0,0.0,0.0,0.0,0.0,0.0,0.0,0.0,0.0,0.0,0.0,0.0,0.0,0.0,0.0,0.0,0.0,0.0,0.0,0.0,0.0,0.0,0.0,0.0,0.0,0.0,0.0,0.0,0.0,0.0,0.0,0.0,0.0,0.0,0.0,0.0,0.0,0.0,0.0,0.0,0.0,0.0,0.0,0.0,0.0,0.0,0.0,0.0,0.0,0.0,0.0,0.0,0.0,0.0,0.0,0.0,0.0,0.0,0.0,0.0,0.0,0.0,0.0,0.0,0.0,0.0,0.0,0.0,0.0,0.0,0.0,0.0,0.0,0.0,0.0,0.0,0.0,0.0,0.0,0.0,0.0,0.0,0.0,0.0,0.0,0.0,0.0,0.0,0.0,0.0,0.0,0.0,0.0,0.0,0.0,0.0,0.0,0.0,0.0,0.0,0.0,0.0,0.0,0.0,0.0,0.0,0.0,0.0,0.0,0.0,0.0,0.0,0.0,0.0,0.0,0.0,0.0,0.0,0.0,0.0,0.0,0.0,0.0,0.0,0.0,0.0,0.0,0.0,0.0,0.0,0.0,0.0,0.0,0.0,0.0,0.0,0.0,0.0,0.0,0.0,0.0,0.0,0.0,0.0,0.0,0.0,0.0,0.0,0.0,0.0,0.0,0.0,0.0,0.0,0.0,0.0,0.0,0.0,0.0,0.0,0.0,0.0,0.0,0.0,0.0,0.0,0.0,0.0,0.0,0.0,0.0,0.0,0.0,0.0,0.0,0.0,0.0,0.0,0.0,0.0,0.0,0.0,0.0,0.0,0.0,0.0,0.0,0.0,0.0,0.0,0.0,0.0,0.0,0.0,0.0,0.0,0.0,0.0,0.0,0.0,0.0,0.0,0.0,0.0,0.0,0.0,0.0,0.0,0.0,0.0,0.0,0.0,0.0,0.0,0.0,0.0,0.0,0.0,0.0,0.0,0.0,0.0,0.0,0.0,0.0,0.0,0.0,0.0,0.0,0.0,0.0,0.0,0.0,0.0,0.0,0.0,0.0,0.0,0.0,0.0,0.0,0.0,0.0,0.0,0.0,0.0,0.0,0.0,0.0,0.0,0.0,0.0,0.0,0.0,0.0,0.0,0.0,0.0,0.0,0.0,0.0,0.0,0.0,0.0,0.0,0.0,0.0,0.0,0.0,0.0,0.0,0.0,0.0,0.0,0.0,0.0,0.0,0.0,0.0,0.0,0.0,0.0,0.0,0.0,0.0,0.0,0.0,0.0,0.0,0.0,0.0,0.0,0.0,0.0,0.0,0.0,0.0,0.0,0.0,0.0,0.0,0.0,0.0,0.0,0.0,0.0,0.0,0.0,0.0,0.0,0.0,0.0,0.0,0.0,0.0,0.0,0.0,0.0,0.0,0.0,0.0,0.0,0.0,0.0,0.0,0.0,0.0,0.0,0.0,0.0,0.0,0.0,0.0,0.0,0.0,0.0,0.0,0.0,0.0,0.0,0.0,0.0,0.0,0.0,0.0,0.0,0.0,0.0,0.0,0.0,0.0,0.0,0.0,0.0,0.0,0.0,0.0,0.0,0.0,0.0,0.0,0.0,0.0,0.0,0.0,0.0,0.0,0.0,0.0,0.0,0.0,0.0,0.0,0.0,0.0,0.0,0.0,0.0,0.0,0.0,0.0,0.0,0.0,0.0,0.0,0.0,0.0,0.0,0.0,0.0,0.0,0.0,0.0,0.0,0.0,0.0,0.0,0.0,0.0,0.0,0.0,0.0,0.0,0.0,0.0,0.0,0.0,0.0,0.0,0.0,0.0,0.0,0.0,0.0,0.0,0.0,0.0,0.0,0.0,0.0,0.0,0.0,0.0,0.0,0.0,0.0,0.0,0.0,0.0,0.0,0.0,0.0,0.0,0.0,0.0,0.0,0.0,0.0,0.0,0.0,0.0,0.0,0.0,0.0,0.0,0.0,0.0,0.0,0.0,0.0,0.0,0.0,0.0,0.0,0.0,0.0,0.0,0.0,0.0,0.0,0.0,0.0,0.0,0.0,0.0,0.0,0.0,0.0,0.0,0.0,0.0,0.0,0.0,0.0,0.0,0.0,0.0,0.0,0.0,0.0,0.0,0.0,0.0,0.0,0.0,0.0,0.0,0.0,0.0,0.0,0.0,0.0,0.0,0.0,0.0,0.0,0.0,0.0,0.0,0.0,0.0,0.0,0.0,0.0,0.0,0.0,0.0,0.0,0.0,0.0,0.0,0.0,0.0,0.0,0.0,0.0,0.0,0.0,0.0,0.0,0.0,0.0,0.0,0.0,0.0,0.0,0.0,0.0,0.0,0.0,0.0,0.0,0.0,0.0,0.0,0.0,0.0,0.0,0.0,0.0,0.0,0.0,0.0,0.0,0.0,0.0,0.0,0.0,0.0,0.0,0.0,0.0,0.0,0.0,0.0,0.0,0.0,0.0,0.0,0.0,0.0,0.0,0.0,0.0,0.0,0.0,0.0,0.0,0.0,0.0,0.0,0.0,0.0,0.0,0.0,0.0,0.0,0.0,0.0,0.0,0.0,0.0,0.0,0.0,0.0,0.0,0.0,0.0,0.0,0.0,0.0,0.0,0.0,0.0,0.0,0.0,0.0,0.0,0.0,0.0,0.0,0.0,0.0,0.0,0.0,0.0,0.0,0.0,0.0,0.0,0.0,0.0,0.0,0.0,0.0,0.0,0.0,0.0,0.0,0.0,0.0,0.0,0.0,0.0,0.0,0.0,0.0,0.0,0.0,0.0,0.0,0.0,0.0,0.0,0.0,0.0,0.0,0.0,0.0,0.0,0.0,0.0,0.0,0.0,0.0,0.0,0.0,0.0,0.0,0.0,0.0,0.0,0.0,0.0,0.0,0.0,0.0,0.0,0.0,0.0,0.0,0.0,0.0,0.0,0.0,0.0,0.0,0.0,0.0,0.0,0.0,0.0,0.0,0.0,0.0,0.0,0.0,0.0,0.0,0.0,0.0,0.0,0.0,0.0,0.0,0.0,0.0,0.0,0.0,0.0,0.0,0.0,0.0,0.0,0.0,0.0,0.0,0.0,0.0,0.0,0.0,0.0,0.0,0.0,0.0,0.0,0.0,0.0,0.0,0.0,0.0,0.0,0.0,0.0,0.0,0.0,0.0,0.0,0.0,0.0,0.0,0.0,0.0,0.0,0.0,0.0,0.0,0.0,0.0,0.0,0.0,0.0,0.0,0.0,0.0,0.0,0.0,0.0,0.0,0.0,0.0,0.0,0.0,0.0,0.0,0.0,0.0,0.0,0.0,0.0,0.0,0.0,0.0,0.0,0.0,0.0,0.0,0.0,0.0,0.0,0.0,0.0,0.0,0.0,0.0,0.0,0.0,0.0,0.0,0.0,0.0,0.0,0.0,0.0,0.0,0.0,0.0,0.0,0.0,0.0,0.0,0.0,0.0,0.0,0.0,0.0,0.0,0.0,0.0,0.0,0.0,0.0,0.0,0.0,0.0,0.0,0.0,0.0,0.0,0.0,0.0,0.0,0.0,0.0,0.0,0.0,0.0,0.0,0.0,0.0,0.0,0.0,0.0,0.0,0.0,0.0,0.0,0.0,0.0,0.0,0.0,0.0,0.0,0.0,0.0,0.0,0.0,0.0,0.0,0.0,0.0,0.0,0.0,0.0,0.0,0.0,0.0,0.0,0.0,0.0,0.0,0.0,0.0,0.0,0.0,0.0,0.0,0.0,0.0,0.0,0.0,0.0,0.0,0.0,0.0,0.0,0.0,0.0,0.0,0.0,0.0,0.0,0.0,0.0,0.0,0.0,2.9016,0.0,0.0,0.0,0.0,0.0,0.0,0.0,0.0,0.0,0.0,0.0,0.0,0.0,0.0,0.0,0.0,0.0,0.0,0.0,0.0,0.0,0.0,0.0,0.0,2.5349,2.5655,2.6077,2.6304,2.6779,2.7576,0.0,0.0,0.0,0.0,0.0,2.8397,2.8397,2.8397,2.8397,2.8504,2.8665,2.8887,2.8705,2.8188,2.739,0.0,0.0,0.0,0.0,0.0,0.0,0.0,0.0,0.0,0.0,0.0,0.0,0.0,0.0,0.0,0.0,0.0,0.0,0.0,0.0,0.0,0.0,0.0,0.0,0.0,0.0,0.0,0.0,0.0,0.0,0.0,0.0,0.0,0.0,0.0,0.0,0.0,0.0,0.0,0.0,0.0,0.0,0.0,0.0,0.0,0.0,0.0,0.0,0.0,0.0,0.0,0.0,0.0,0.0,0.0,0.0,0.0,0.0,0.0,0.0,0.0,0.0,0.0,0.0,0.0,0.0,0.0,0.0,0.0,0.0,0.0,2.941,0.0,0.0,0.0,0.0,0.0,0.0,0.0,0.0,0.0,0.0,0.0,0.0,0.0,0.0,0.0,0.0,0.0,0.0,0.0,0.0,0.0,2.5031,2.5171,2.5645,2.6062,2.6336,2.6785,2.7398,2.8204,2.8109,2.8393,2.9283,2.933,2.9414,2.957,2.9579,2.9598,2.9643,2.9853,3.004,3.0227,2.9823,2.882,2.7336,2.7106,0.0,0.0,0.0,0.0,0.0,0.0,0.0,0.0,0.0,0.0,0.0,0.0,0.0,0.0,0.0,0.0,0.0,0.0,0.0,0.0,0.0,0.0,0.0,0.0,0.0,0.0,0.0,0.0,0.0,0.0,0.0,0.0,0.0,0.0,0.0,0.0,0.0,0.0,0.0,0.0,0.0,0.0,0.0,0.0,0.0,0.0,0.0,0.0,0.0,0.0,0.0,0.0,0.0,0.0,0.0,0.0,0.0,0.0,0.0,0.0,0.0,0.0,0.0,2.9126,2.9256,2.9476,2.9561,2.9485,2.9343,2.9554,2.9684,2.9763,3.0078,0.0,0.0,0.0,0.0,0.0,0.0,0.0,0.0,0.0,0.0,0.0,0.0,0.0,0.0,0.0,0.0,0.0,0.0,0.0,2.5228,2.58,2.5785,2.6301,2.7708,2.775,2.8026,2.8831,2.8863,2.89,2.9044,2.9044,2.9067,2.9082,2.9082,2.9214,2.9434,2.9634,2.9661,2.9541,2.9474,2.9312,2.9057,2.8791,2.8802,2.9025,0.0,0.0,0.0,0.0,0.0,0.0,0.0,0.0,0.0,0.0,0.0,0.0,0.0,0.0,0.0,0.0,0.0,0.0,0.0,0.0,0.0,0.0,0.0,0.0,0.0,0.0,0.0,0.0,0.0,0.0,0.0,0.0,0.0,0.0,0.0,0.0,0.0,0.0,0.0,0.0,0.0,2.7976,2.7865,0.0,0.0,0.0,0.0,0.0,0.0,0.0,0.0,0.0,0.0,0.0,0.0,0.0,2.7968,2.7968,2.7619,2.766,2.8102,2.8102,2.8259,2.8573,2.8932,2.9078,2.9044,2.9086,0.0,2.9555,2.977,0.0,0.0,0.0,0.0,0.0,0.0,0.0,0.0,0.0,0.0,0.0,0.0,0.0,0.0,0.0,0.0,0.0,0.0,0.0,0.0,0.0,2.6621,2.7382,2.8257,2.8652,2.8964,2.9206,2.9214,2.9167,2.9005,2.9005,2.9005,2.9005,2.9005,2.9134,2.9402,2.9484,2.9533,2.9561,2.9454,2.9402,2.9392,2.9123,2.9074,2.9178,2.9044,0.0,0.0,0.0,0.0,0.0,0.0,0.0,0.0,0.0,0.0,0.0,0.0,0.0,0.0,0.0,0.0,0.0,0.0,0.0,0.0,0.0,0.0,0.0,0.0,0.0,0.0,0.0,0.0,0.0,0.0,0.0,0.0,0.0,0.0,0.0,0.0,0.0,0.0,0.0,2.8944,2.8577,2.8214,2.8316,2.8522,0.0,0.0,0.0,0.0,0.0,0.0,0.0,0.0,0.0,2.7528,2.8015,2.8301,2.8301,2.8452,2.8744,2.913,2.913,2.9351,2.9746,2.9929,3.0141,3.032,2.9879,2.9772,2.9874,2.9655,2.9668,2.9813,0.0,0.0,0.0,0.0,2.9926,2.9612,0.0,0.0,0.0,0.0,0.0,0.0,0.0,0.0,0.0,0.0,0.0,0.0,2.6484,2.7526,2.8379,2.8779,2.9303,2.9551,2.9412,2.9341,2.9203,2.9017,2.9005,2.9005,2.9005,2.9067,2.9178,2.9299,2.9372,2.9435,2.9514,2.9373,2.9238,2.9144,2.8938,2.8887,2.9005,2.9005,2.9005,2.9005,0.0,0.0,0.0,0.0,0.0,0.0,0.0,0.0,0.0,0.0,0.0,0.0,0.0,0.0,0.0,0.0,0.0,0.0,0.0,0.0,0.0,0.0,0.0,0.0,0.0,0.0,0.0,0.0,0.0,0.0,0.0,0.0,0.0,0.0,0.0,0.0,0.0,2.8838,2.8691,2.8589,2.847,2.8705,0.0,0.0,0.0,0.0,0.0,0.0,2.7291,2.7748,2.7962,2.7814,2.8253,2.8552,2.8697,2.916,2.9573,2.9948,2.9948,3.0183,3.0621,3.0758,3.0948,3.1221,3.0723,3.0503,3.0442,2.9639,2.9341,2.9404,2.9561,2.9681,2.9768,2.9768,2.9818,2.9831,0.0,0.0,0.0,0.0,0.0,0.0,0.0,0.0,0.0,0.0,0.0,2.6502,2.7849,2.8282,2.8797,2.9573,2.9495,2.9423,2.9402,2.9167,2.8998,2.9005,2.9005,2.9005,2.9005,2.9246,2.9257,2.9028,2.9278,2.9278,2.9033,2.901,2.8809,2.8458,2.8446,2.8645,2.9005,2.9005,2.9005,2.9005,2.9005,0.0,0.0,0.0,0.0,0.0,0.0,0.0,0.0,0.0,0.0,0.0,0.0,0.0,0.0,0.0,0.0,0.0,0.0,0.0,0.0,0.0,0.0,0.0,0.0,0.0,0.0,0.0,0.0,0.0,0.0,0.0,0.0,0.0,0.0,0.0,0.0,0.0,0.0,2.8958,2.866,0.0,0.0,0.0,0.0,2.78,2.7719,2.757,2.721,2.7237,2.7517,2.8056,2.8115,2.8403,2.8958,2.9011,2.921,2.9522,2.9522,2.9754,3.0137,3.061,3.0814,3.0838,3.1177,3.1342,3.1231,2.9671,2.9178,2.9402,2.9423,2.9523,2.9703,2.9703,2.9712,2.9686,0.0,0.0,0.0,0.0,0.0,2.5088,2.5016,2.5251,2.5568,2.585,2.6739,2.7653,2.846,2.8979,2.9433,2.9866,2.9713,2.9542,2.9412,2.931,2.9171,2.9005,2.9005,2.9005,2.9005,2.9089,2.9089,2.9005,2.9089,2.9089,2.9005,2.9005,2.9065,2.9174,2.9174,2.9377,2.9647,2.8699,2.8281,2.8281,2.8281,2.8488,0.0,0.0,0.0,0.0,0.0,0.0,0.0,0.0,0.0,0.0,0.0,0.0,0.0,0.0,0.0,0.0,0.0,0.0,0.0,0.0,0.0,0.0,0.0,0.0,0.0,0.0,0.0,0.0,0.0,0.0,0.0,0.0,0.0,0.0,0.0,0.0,0.0,2.9163,2.8784,0.0,2.8944,2.8536,2.8199,2.8154,2.7736,2.7638,2.7966,2.8018,2.8316,2.8931,2.9312,2.9617,2.9836,3.0224,3.0491,3.0607,3.0867,3.1063,3.1219,3.1687,3.1894,3.1876,3.1494,3.1353,3.1278,3.0478,3.0202,3.0263,2.9734,2.9405,2.9221,2.8959,2.8729,2.8597,0.0,0.0,0.0,2.5308,2.5122,2.4986,2.493,2.5369,2.5861,2.6244,2.7423,2.8459,2.9034,2.9512,2.9829,2.9893,2.9703,2.9533,2.9412,2.932,2.92,2.9017,2.9005,2.9005,2.9005,2.9005,2.9005,2.9005,2.9144,2.9193,2.9211,2.931,2.944,2.9571,2.9571,2.9629,2.9653,2.8692,2.8408,2.8647,2.8647,2.8858,2.9176,0.0,0.0,0.0,0.0,0.0,0.0,0.0,0.0,0.0,0.0,0.0,0.0,0.0,0.0,0.0,0.0,0.0,0.0,0.0,0.0,0.0,0.0,0.0,0.0,0.0,0.0,0.0,0.0,0.0,0.0,0.0,0.0,0.0,0.0,0.0,2.9597,2.9592,2.913,2.8904,2.9173,2.8637,2.8244,2.8149,2.772,2.765,2.8105,2.8177,2.8567,2.9361,2.9783,3.0187,3.0597,3.0995,3.119,3.121,3.147,3.1603,3.1621,3.2057,3.2247,3.2247,3.187,3.1706,3.1687,3.1474,3.1291,3.1059,3.0312,2.9843,2.9561,2.914,2.8831,2.872,0.0,2.5308,2.5308,2.5308,2.5135,2.4962,2.4844,2.5348,2.6023,2.6832,2.7877,2.8833,2.9619,2.9877,2.9916,2.9713,2.9504,2.9392,2.9392,2.9145,2.9005,2.9005,2.9005,2.9005,2.9005,2.9023,2.903,2.9019,2.9422,2.9629,2.962,2.9953,2.9902,2.9523,2.9523,2.9351,2.9077,2.9077,2.9472,3.0129,3.0076,2.9853,2.9523,0.0,0.0,0.0,0.0,0.0,0.0,0.0,0.0,0.0,0.0,0.0,0.0,0.0,0.0,0.0,0.0,0.0,0.0,0.0,0.0,0.0,0.0,0.0,0.0,0.0,0.0,0.0,0.0,0.0,0.0,0.0,0.0,0.0,2.9792,2.9275,2.9386,3.0265,2.9679,2.9412,2.9892,2.9576,2.888,2.7735,2.7625,2.7635,2.771,2.7685,2.8222,2.9429,2.9451,3.0038,3.1224,3.1224,3.1241,3.1258,3.1278,3.1278,3.1278,3.169,3.1858,3.1876,3.2335,3.2521,3.2521,3.2521,3.2249,3.181,3.1072,3.079,3.0718,3.0247,3.009,3.009,2.5293,2.5308,2.5308,2.5308,2.5049,2.5043,2.5593,2.606,2.6755,2.7915,2.882,2.9509,2.9889,2.9837,2.9705,2.9494,2.9238,2.9112,2.9112,2.9051,2.9005,2.9005,2.9005,2.9005,2.9005,2.9574,2.9728,2.9445,3.0134,3.0299,2.9973,3.0064,3.0164,3.03,3.03,3.0414,3.0601,3.0601,3.0717,3.0787,2.9726,2.9553,2.9937,0.0,0.0,0.0,0.0,0.0,0.0,0.0,0.0,0.0,0.0,0.0,0.0,0.0,0.0,0.0,0.0,0.0,0.0,0.0,0.0,0.0,0.0,0.0,0.0,0.0,0.0,0.0,0.0,0.0,0.0,0.0,3.2179,3.1652,3.122,3.0844,3.0381,2.9744,2.9486,2.9054,2.8331,2.8167,2.8328,2.8857,2.81,2.836,3.0128,2.9368,2.9473,3.0679,3.0699,3.113,3.2005,3.2005,3.2256,3.2797,3.3148,3.3128,3.2818,3.3269,3.3272,3.2968,3.3091,3.3151,3.3134,3.294,3.3095,3.3296,3.1445,3.0541,3.0248,2.9831,2.9852,3.0059,2.5317,2.5308,2.5308,2.5308,2.5012,2.5073,2.5872,2.633,2.7058,2.833,2.9194,2.9738,2.9861,2.9763,2.9561,2.9267,2.9089,2.9005,2.9005,2.9005,2.9005,2.9005,2.8839,2.9004,2.9482,2.9801,3.0084,3.0353,3.0783,3.0864,3.0598,3.0574,3.0663,3.0858,3.0858,3.0982,3.119,3.119,3.119,3.1123,3.0279,3.0176,3.0565,3.0565,3.0835,3.119,3.119,3.1351,3.1507,3.1271,0.0,0.0,0.0,0.0,0.0,0.0,0.0,0.0,0.0,0.0,0.0,0.0,0.0,0.0,0.0,0.0,0.0,0.0,0.0,0.0,0.0,0.0,0.0,0.0,3.1842,3.1564,3.1564,3.1123,3.0477,2.9518,2.9406,2.9134,2.8424,2.8125,2.8271,2.8966,2.8125,2.8207,2.9613,2.9288,2.9508,3.0457,3.1034,3.1651,3.2336,3.2605,3.2983,3.3406,3.368,3.3663,3.3406,3.3683,3.3642,3.3406,3.3406,3.3406,3.3406,3.3246,3.325,0.0,0.0,0.0,0.0,0.0,3.035,3.0526,2.5308,2.5308,2.5308,2.5308,2.5012,2.5091,2.6004,2.6414,2.7116,2.8462,2.9267,2.9731,2.9705,2.9705,2.9504,2.9033,2.9005,2.9005,2.9005,2.9005,2.9005,2.9005,2.873,2.9099,3.0179,2.9976,3.0373,3.138,3.1362,3.1327,3.1279,3.1218,3.119,3.119,3.119,3.119,3.119,3.119,3.119,3.119,3.119,3.119,3.119,3.119,3.119,3.119,3.119,3.123,3.1252,3.121,0.0,0.0,0.0,0.0,0.0,0.0,0.0,0.0,0.0,0.0,0.0,0.0,0.0,0.0,0.0,0.0,0.0,0.0,0.0,0.0,0.0,0.0,0.0,0.0,3.1451,3.119,3.119,3.0679,3.0102,2.9563,2.9451,2.9361,2.9293,2.8756,2.8431,2.8487,2.7995,2.778,2.7916,0.0,0.0,0.0,0.0,3.182,3.2531,3.3105,3.3474,3.366,3.366,3.366,3.366,3.366,3.366,3.366,3.366,3.366,3.3639,3.3558,3.3084,3.2387,3.2093,3.24,3.2921,3.1842,3.1444,3.1444,2.5293,2.5308,2.5308,2.5308,2.5012,2.5299,2.675,2.6904,2.7475,2.9245,2.9731,2.9885,2.9722,2.9705,2.9504,2.9033,2.9005,2.9005,2.9005,2.9005,2.9005,2.9005,2.9551,2.9954,3.0191,3.1089,3.1466,3.1321,3.1583,3.1527,3.1225,3.122,3.119,3.119,3.119,3.119,3.119,3.119,3.119,3.119,3.119,3.119,3.119,3.119,3.119,3.119,3.119,3.1411,3.1623,3.131,3.1411,3.1641,3.1391,3.1252,0.0,0.0,0.0,0.0,0.0,0.0,0.0,0.0,0.0,0.0,0.0,0.0,0.0,0.0,0.0,0.0,0.0,0.0,0.0,3.1808,3.1451,3.119,3.119,3.0679,3.0251,3.0145,2.9695,2.9203,2.8709,2.814,2.7984,2.8463,2.845,2.884,2.9809,3.0018,3.0416,3.1005,3.1277,3.2015,3.3277,3.3416,3.4051,3.516,0.0,0.0,3.516,3.516,3.516,3.516,3.516,3.516,3.5138,3.4595,3.3621,3.2458,3.2341,3.2737,3.3277,3.3076,3.2983,3.2983,2.5308,2.5308,2.5308,2.5308,2.5361,2.5804,2.7024,2.728,2.789,2.9364,2.9653,2.9661,2.9551,2.9542,2.9405,2.9021,2.9005,2.9005,2.9005,2.9005,2.9088,2.93,2.9689,3.0163,3.0738,3.1356,3.1767,3.1901,3.183,3.1696,3.1488,3.1291,3.119,3.119,3.119,3.119,3.119,3.119,3.119,3.119,3.119,3.119,3.119,3.119,3.119,3.119,3.119,3.1332,3.147,3.1271,3.1332,3.1507,3.1507,3.137,3.1173,0.0,0.0,0.0,0.0,0.0,0.0,0.0,0.0,0.0,0.0,0.0,0.0,0.0,0.0,3.2434,3.2179,0.0,3.1734,3.1528,3.1332,3.119,3.119,3.0938,3.0518,2.9913,2.9316,2.8826,2.8535,2.8263,2.8349,2.8949,2.9072,2.9346,2.9969,3.0317,3.0632,3.0943,3.1623,3.2492,3.3543,3.3882,3.4569,3.56,3.56,3.56,3.56,3.56,3.56,3.56,3.56,3.5407,3.5052,3.4399,3.3876,3.3559,3.3512,3.3054,3.2406,3.2406,3.2406,3.2406,2.5308,2.5308,2.5308,2.5308,2.5691,2.626,2.7081,2.7567,2.8236,2.927,2.9434,2.9444,2.9412,2.9402,2.9289,2.901,2.8929,2.8917,2.8994,2.9005,2.9205,2.9709,2.9782,3.0341,3.1408,3.1458,3.1766,3.2349,3.1915,3.1678,3.1678,3.1351,3.119,3.119,3.119,3.119,3.119,3.119,3.119,3.119,3.119,3.119,3.119,3.119,3.119,3.119,3.119,3.119,3.119,3.119,3.119,3.1269,3.1584,3.1451,3.1154,3.0867,3.0978,0.0,0.0,0.0,0.0,0.0,0.0,0.0,0.0,0.0,3.2248,3.2248,3.2248,3.2127,3.1734,3.1678,3.1617,3.1438,3.141,3.1461,3.1613,3.1416,3.0891,2.992,2.9373,2.9077,2.9075,2.9027,2.9147,2.95,2.969,2.9841,2.9976,3.0441,3.0827,3.1101,3.1953,3.2826,3.3786,3.4211,3.4823,3.56,3.547,3.547,3.56,3.547,3.547,3.56,3.547,3.5098,3.4552,3.3887,3.3836,3.4211,3.4211,3.3168,3.1672,3.1926,3.1951,3.1829,2.5308,2.5308,2.5308,2.5308,2.5691,2.626,2.7081,2.768,2.8387,2.9272,2.957,2.9598,2.9414,2.9402,2.9289,2.901,2.867,2.8633,2.8982,2.9005,2.933,3.0094,3.0486,3.1052,3.1905,3.1807,3.181,3.1897,3.1468,3.1271,3.1269,3.123,3.119,3.119,3.119,3.119,3.119,3.119,3.119,3.119,3.119,3.119,3.119,3.119,3.119,3.119,3.119,3.119,3.119,3.119,3.119,3.121,3.1252,3.1249,3.1095,3.0522,3.0802,3.1161,3.0541,3.045,3.0632,3.121,3.0945,3.069,0.0,0.0,3.1349,3.1349,3.1349,3.1329,3.1271,3.1271,3.1472,3.2073,3.2175,3.2412,3.3068,3.2181,3.1412,3.1294,3.1164,3.1085,3.1158,3.0691,3.015,2.9621,3.0098,3.0706,3.1338,3.1369,3.1954,3.3212,3.2182,3.2555,3.4455,3.3987,3.435,3.56,3.5005,3.5028,3.5577,3.4988,3.5052,3.5577,3.4965,3.4688,3.4552,3.3887,3.3287,3.2815,3.2815,3.2667,3.2607,3.3794,3.3868,3.3342,2.5308,2.5712,2.6058,2.6058,2.6505,2.7104,2.7792,2.8544,2.9064,2.9166,2.9384,2.9425,2.9192,2.9178,2.9123,2.9017,2.8851,2.8827,2.8994,2.9445,2.9948,3.0516,3.1151,3.1616,3.1872,3.183,3.1696,3.1468,3.1291,3.119,3.119,3.119,3.119,3.119,3.119,3.119,3.119,3.119,3.119,3.119,3.119,3.119,3.119,3.119,3.119,3.1151,3.0801,3.0679,0.0,3.0679,3.0679,3.074,3.1075,3.1221,3.1127,3.0548,3.0833,3.1232,3.0558,3.04,3.0373,3.0222,3.0273,3.0532,3.117,3.1624,3.2005,3.2394,3.2476,3.2476,3.2476,3.2476,3.2577,0.0,3.2605,3.2468,3.2785,3.2022,3.1598,3.2038,3.2071,3.1606,3.049,3.0479,3.0428,3.0131,3.0731,3.1219,3.1541,3.1518,3.1979,3.2986,3.2449,3.2917,3.4576,3.4759,3.5087,3.5623,3.6241,3.6425,3.6263,3.6425,3.6673,3.6871,3.5735,3.5475,3.5852,3.5576,3.5035,3.4426,3.4814,3.4465,3.364,3.3026,3.2891,3.296,2.5615,2.6173,2.6755,2.7217,2.766,2.8029,2.8353,2.9097,2.9465,2.9055,2.9178,2.9232,2.9028,2.8905,2.8875,2.8994,2.8905,2.8875,2.8994,2.9739,3.0417,3.0939,3.1624,3.2007,3.1987,3.1879,3.1603,3.119,3.119,3.119,3.119,3.119,3.119,3.119,3.119,3.119,3.119,3.119,3.119,3.119,3.119,3.119,3.119,3.119,3.119,3.1131,3.0518,3.0293,3.0305,3.0331,3.0332,3.0451,3.1065,3.1292,3.1213,3.0593,3.0786,3.1083,3.0786,3.0575,0.0,3.003,3.0204,3.0609,3.1242,3.1779,3.2292,3.2988,3.2988,3.2949,3.3343,3.3096,3.2972,3.3364,3.2854,3.2506,3.2702,3.2151,3.1937,3.2469,3.2352,3.1683,3.0273,3.0702,3.0985,3.0791,3.1227,3.1582,3.1796,3.1611,3.1923,3.2841,3.269,3.3307,3.4889,3.5423,3.5892,3.6265,3.7159,3.7385,3.7053,3.7614,3.7793,3.7517,3.6247,3.5868,3.6155,3.5986,3.5705,3.5463,3.5705,3.5415,3.4618,3.2745,3.2397,3.2767,2.639,2.6582,2.7101,2.8742,2.9044,2.8893,2.848,2.8971,2.931,2.9051,2.9005,2.9017,2.9005,2.8658,2.8577,2.897,2.8645,2.8577,2.8964,2.9739,3.0558,3.1335,3.1778,3.2163,3.2466,3.2022,3.1603,3.119,3.119,3.119,3.119,3.119,3.119,3.119,3.119,3.119,3.119,3.119,3.119,3.119,3.119,3.119,3.119,3.119,3.119,3.1131,3.0518,3.0293,3.0323,3.0373,3.0407,3.0519,3.1166,3.1406,3.1277,3.0672,3.0506,3.0668,3.1299,3.0984,3.0639,3.1213,3.0907,3.0663,3.1252,3.1414,3.1622,3.2285,3.1906,3.1859,3.316,3.2337,3.1919,3.328,3.2943,3.2741,3.3447,3.2977,3.2567,3.2583,3.1977,3.1523,0.0,3.2102,3.2241,3.1523,3.1496,3.1824,3.2547,3.1881,3.2145,3.3547,3.2885,3.3519,3.5646,3.5683,3.6414,3.7824,3.7161,3.7203,3.7858,3.7882,3.7475,3.6715,3.5991,3.5264,3.4512,3.3864,3.4029,3.4661,3.3894,3.4426,3.5474,3.3998,3.3455,3.347,2.6544,2.7505,2.8434,2.8992,2.9583,2.9851,2.9509,2.9809,2.9923,2.9514,2.9353,0.0,0.0,0.0,0.0,0.0,2.8893,2.9082,2.9757,3.0558,3.1347,3.2173,3.2573,3.2853,3.2968,3.2196,3.1734,3.1603,3.1332,3.119,3.119,3.119,3.119,3.119,3.119,3.119,3.119,3.119,3.119,3.119,3.119,3.119,3.119,3.119,3.119,3.1055,0.0,3.0002,3.0371,3.0389,3.0434,3.0582,3.1205,3.1388,3.1358,3.1214,3.1142,3.1107,3.0883,3.0672,3.0458,3.0253,3.0352,3.0693,3.1363,3.1878,3.2374,3.3069,3.3019,3.3003,3.3461,3.3152,3.3008,3.3499,3.299,3.2656,3.2917,3.2312,3.1881,3.1881,3.1668,0.0,0.0,0.0,0.0,3.1524,3.1511,3.1611,3.1853,3.206,3.2588,3.3494,3.3702,3.44,3.5626,3.6128,3.6342,3.6314,3.7086,3.7851,3.8574,3.8574,3.872,3.8874,3.7632,3.7227,3.7362,3.6656,3.6188,3.5949,3.5646,3.5873,3.6246,3.5737,3.5569,3.534,0.0,2.8357,2.9204,2.9506,3.0019,0.0,0.0,0.0,0.0,0.0,0.0,0.0,0.0,0.0,0.0,0.0,0.0,2.9335,3.0155,3.0819,3.154,3.2361,3.2751,3.2872,3.2695,3.2109,3.1734,3.1584,3.1332,3.119,3.119,3.119,3.119,3.119,3.119,3.119,3.119,3.119,3.119,3.119,3.119,3.119,3.119,3.119,3.119,0.0,3.0081,3.0013,3.0377,3.0176,3.0289,3.0619,3.1228,3.1442,3.1427,3.1476,3.1511,3.1406,3.0957,3.0866,3.0748,3.0372,3.0582,3.0979,3.1479,3.1882,3.2394,3.3119,3.3024,3.2997,3.3505,3.3182,3.2944,3.3209,3.2652,3.2203,3.2203,3.1796,3.1511,3.1511,3.1511,3.1511,0.0,0.0,0.0,3.1511,3.1511,3.16,3.1839,3.2258,3.2795,3.349,3.4132,3.4869,3.5575,3.6327,3.6558,3.6338,3.7337,3.8064,3.8497,3.8497,3.8635,3.8799,3.779,3.7645,3.8044,3.7557,3.7381,3.735,3.6813,3.6798,3.6964,3.6399,3.6196,3.6043,0.0,0.0,2.9429,0.0,0.0,0.0,0.0,0.0,0.0,0.0,0.0,0.0,0.0,0.0,0.0,0.0,0.0,0.0,3.021,3.0603,3.1174,3.2014,3.2337,3.2299,3.1861,3.1825,3.1621,3.123,3.121,3.119,3.119,3.119,3.119,3.119,3.119,3.119,3.119,3.119,3.119,3.119,3.119,3.119,3.119,3.119,3.1171,3.1075,3.0497,3.0325,3.0275,2.9814,3.0041,3.0672,3.1301,3.1511,3.1511,3.1511,3.1511,3.1511,3.1511,3.1511,3.1511,3.1511,3.1511,3.1511,3.1511,3.1511,3.1697,3.241,3.1979,3.1923,0.0,0.0,3.171,3.2437,3.1966,3.1511,3.1438,3.1438,3.1438,0.0,0.0,0.0,0.0,0.0,0.0,3.1482,0.0,3.1824,3.2482,3.2587,3.2901,3.3529,3.4219,3.4894,3.5595,3.6229,3.6919,3.7677,3.7719,3.7719,3.7719,3.7793,3.7397,3.6661,3.6615,3.6615,3.6615,3.6554,3.7424,3.8646,3.7188,3.7114,3.7661,3.6179,3.5619,3.5701,0.0,0.0,0.0,0.0,0.0,0.0,0.0,0.0,0.0,0.0,0.0,0.0,0.0,0.0,0.0,0.0,0.0,0.0,3.0999,3.0907,3.1441,3.2823,3.2638,3.2451,3.2315,3.1969,3.1752,3.1641,3.1351,3.119,3.119,3.119,3.119,3.119,3.119,3.119,3.119,3.119,3.119,3.119,3.119,3.119,3.119,3.119,3.0918,3.0497,3.0372,3.0058,2.9775,3.0145,3.0709,3.1271,3.1451,3.1511,3.1511,3.1511,3.1511,3.1511,3.1511,3.1511,3.1511,3.1511,3.1511,3.1511,3.1511,3.1511,3.1553,3.1739,3.164,3.1611,0.0,0.0,0.0,3.1739,3.1611,0.0,3.0673,3.0614,0.0,3.0614,0.0,3.0837,3.1438,3.097,0.0,0.0,3.1841,3.2303,3.2497,3.344,3.4084,3.4249,3.4891,3.5332,3.5525,3.5706,3.5863,3.6085,3.6631,3.6904,3.6934,3.7544,3.769,3.7456,3.6843,3.6615,3.6554,3.6006,3.6352,3.7158,3.6752,3.7424,3.8497,3.7573,3.7205,3.7145,0.0,0.0,0.0,0.0,0.0,0.0,0.0,0.0,0.0,0.0,0.0,0.0,0.0,0.0,0.0,0.0,0.0,0.0,0.0,3.0834,3.1216,3.2834,3.2265,3.1932,3.1932,3.1677,3.1545,3.1545,3.131,3.119,3.119,3.119,3.119,3.119,3.119,3.119,3.119,3.119,3.119,0.0,0.0,3.119,3.119,3.119,3.0995,3.0658,3.0393,2.9961,2.9602,3.0258,3.0738,3.1107,3.1406,3.1511,3.1511,3.1511,0.0,3.1511,3.1511,3.1511,3.1511,3.1511,3.1511,3.1511,3.1511,3.1511,3.1511,3.1511,3.1511,3.1511,3.1511,3.1219,0.0,0.0,0.0,0.0,3.0299,3.0299,3.0419,0.0,3.0524,0.0,3.1409,3.0777,3.068,0.0,3.185,3.2161,3.2719,3.388,3.4638,3.4921,3.5295,3.5504,3.5504,3.5504,3.5504,3.5504,3.5926,3.6117,3.6149,3.6585,3.6784,3.6784,0.0,3.6306,3.6584,3.6134,3.643,3.7084,3.6737,3.7128,3.7844,3.744,3.7263,3.7279,0.0,0.0,0.0,0.0,0.0,0.0,0.0,0.0,0.0,0.0,3.0136,2.9893,0.0,0.0,0.0,0.0,0.0,0.0,0.0,0.0,3.0979,3.2448,3.1731,3.1252,3.119,3.119,3.119,3.119,3.119,3.119,3.119,3.119,3.119,3.119,3.119,3.119,3.119,3.119,3.119,3.119,3.119,3.119,3.119,0.0,3.1151,3.0995,3.0393,2.9881,2.9561,3.0185,3.043,3.0627,3.1286,3.1511,3.1511,3.1511,3.1511,3.1511,3.1511,3.1511,3.1511,3.1511,3.1511,3.1511,3.1511,3.1511,3.1511,3.1511,3.1511,3.1511,3.1511,3.0925,3.0419,3.0329,0.0,2.9348,2.9889,3.0042,3.0389,3.1087,3.0644,3.0614,3.1409,3.0777,3.092,3.2332,3.1754,3.1887,3.3241,3.4021,3.4701,3.5264,3.5424,3.5504,3.5504,3.5504,3.5504,3.5504,3.5504,3.5504,3.5504,3.5504,3.5504,3.5504,3.5504,3.5863,3.6446,3.6446,3.6919,3.7573,3.6873,3.6676,3.6752,3.6646,3.6615,3.6707,0.0,0.0,0.0,0.0,0.0,0.0,0.0,0.0,0.0,3.0404,3.0022,2.9748,0.0,0.0,0.0,0.0,0.0,0.0,0.0,0.0,0.0,3.2482,3.1986,3.1545,3.121,3.119,3.119,3.119,3.119,3.119,3.119,3.119,3.119,3.119,3.119,3.119,3.119,3.119,3.119,3.119,3.119,3.119,3.119,3.119,0.0,0.0,2.9761,2.9509,2.9443,2.9619,3.0049,3.0627,3.1286,3.1511,3.1511,3.1511,3.1511,3.1511,3.1511,3.1511,3.1511,3.1511,3.1511,3.1511,3.1511,3.1511,0.0,3.1511,3.1511,3.1511,3.1511,3.138,3.1058,3.0419,3.0178,2.9628,2.833,2.878,2.9286,0.0,2.995,3.0614,3.1409,3.0777,0.0,0.0,0.0,3.2681,3.4191,3.4142,3.4129,3.4245,3.5067,3.5504,3.5504,3.5504,3.5504,3.5504,3.5504,3.5504,3.5504,3.5504,3.5504,3.5504,3.5504,0.0,3.5701,3.5701,3.6117,3.6783,3.663,3.701,3.7515,3.6843,3.6615,3.6523,0.0,0.0,0.0,0.0,0.0,0.0,3.0404,3.0404,3.0404,3.0404,2.9992,2.9705,2.9705,2.9405,2.9156,0.0,0.0,0.0,0.0,0.0,0.0,0.0,3.2039,3.1621,3.121,3.119,3.119,3.119,0.0,3.119,3.119,3.119,3.119,3.119,3.119,3.119,3.119,3.119,3.119,3.119,3.119,3.119,3.119,0.0,0.0,0.0,0.0,3.0145,2.9874,2.9943,3.021,3.0566,3.0889,3.1212,3.1511,3.1511,3.1511,3.1511,3.1511,3.1511,3.1511,3.1511,3.1511,3.1511,3.1511,0.0,0.0,3.1511,3.1511,3.1511,3.1511,3.1161,0.0,3.0359,2.9535,2.8971,2.9034,2.9034,0.0,2.9628,3.0042,3.045,0.0,3.0373,0.0,0.0,0.0,3.3129,3.4178,3.4582,3.4758,3.4758,3.5246,3.5504,3.5504,3.5504,3.5504,3.5504,3.5504,3.5504,3.5504,3.5504,3.5504,3.5504,3.5504,3.5504,3.5504,3.5504,3.5701,3.6023,3.6023,3.6274,3.66,3.6584,3.6615,3.6615,0.0,0.0,0.0,0.0,0.0,0.0,3.0404,3.0404,3.0404,3.0404,2.9992,2.9705,2.9705,2.9474,2.9299,0.0,0.0,0.0,0.0,0.0,0.0,0.0,0.0,0.0,0.0,0.0,0.0,3.119,3.119,0.0,0.0,0.0,0.0,0.0,3.119,3.119,3.119,3.119,3.119,0.0,0.0,3.119,0.0,0.0,0.0,0.0,0.0,3.0699,3.0269,3.0069,3.0214,3.0495,3.0353,3.0866,3.1511,3.1511,3.1511,3.1511,3.1511,3.1511,3.1511,3.1511,3.1511,3.1511,3.1511,3.1511,0.0,3.1511,3.1511,3.1511,3.1511,3.097,3.0494,0.0,2.916,2.8684,2.9858,2.9442,2.9254,0.0,3.0011,0.0,3.0011,2.9893,0.0,0.0,0.0,0.0,3.3964,3.4953,3.5392,3.518,3.5392,3.5504,3.5504,3.5504,3.5504,3.5504,3.5504,3.5504,3.5504,3.5504,3.5504,3.5504,3.5504,3.5504,3.5504,3.5504,3.5504,3.5504,3.5504,3.5504,3.5554,3.6134,3.6353,3.6446,0.0,0.0,0.0,0.0,0.0,0.0,3.0404,3.0404,3.0404,3.0404,2.9992,2.9705,2.9705,2.9304,2.9315,0.0,0.0,0.0,0.0,0.0,0.0,0.0,0.0,0.0,0.0,0.0,0.0,3.119,3.119,0.0,0.0,0.0,0.0,0.0,0.0,3.119,3.119,3.119,0.0,0.0,0.0,0.0,0.0,0.0,0.0,0.0,0.0,3.0351,3.0123,2.9029,2.9496,3.0402,2.9867,3.0522,3.1511,3.1511,0.0,0.0,3.1511,3.1511,3.1511,3.1511,3.1511,3.1511,3.1511,0.0,3.1511,3.1511,3.1511,3.1511,3.1511,3.1438,3.1161,3.0419,3.0178,2.9858,2.9223,2.9066,2.9034,2.9097,0.0,0.0,2.9129,0.0,0.0,0.0,0.0,0.0,3.3945,3.4953,3.51,3.4177,3.5019,3.5504,3.5504,3.5504,3.5504,3.5504,3.5504,3.5504,3.5504,3.5504,3.5504,3.5504,3.5504,3.5504,0.0,3.5504,3.5504,3.5504,3.5504,3.5504,3.5504,3.5587,3.5619,3.5619,0.0,0.0,0.0,0.0,0.0,0.0,3.0404,3.0404,3.0349,3.0189,2.9896,2.9652,2.9542,2.9639,2.9861,3.0173,3.0944,0.0,0.0,0.0,0.0,0.0,0.0,0.0,0.0,0.0,3.1449,3.119,3.119,0.0,0.0,0.0,0.0,0.0,0.0,3.119,3.119,3.119,0.0,0.0,0.0,0.0,0.0,0.0,0.0,0.0,0.0,0.0,3.072,2.987,3.0218,3.093,3.0325,3.0779,3.1511,0.0,3.1511,3.1511,3.1511,3.1511,3.1511,3.1511,3.1511,3.1511,3.1511,3.1511,3.1511,3.1511,3.1511,3.1511,3.1511,3.1511,3.1409,3.1058,3.0614,0.0,3.0494,3.0072,2.9597,2.9066,2.9473,0.0,0.0,0.0,0.0,0.0,0.0,0.0,3.391,3.3856,3.3822,3.3993,3.4394,3.4872,3.5504,3.5504,3.5504,3.5504,3.5504,3.5504,3.5504,3.5504,3.5504,3.5504,3.5504,3.5504,0.0,3.5504,3.5504,3.5504,3.5504,3.5504,3.5504,3.5504,3.5504,3.5504,0.0,0.0,0.0,0.0,0.0,3.0404,3.0404,3.0404,3.0305,3.0047,3.0029,2.9983,2.9787,3.0219,3.065,3.0889,3.1421,0.0,0.0,0.0,0.0,0.0,0.0,0.0,0.0,0.0,3.166,3.1389,3.1252,3.119,0.0,0.0,0.0,0.0,0.0,0.0,0.0,0.0,0.0,0.0,0.0,0.0,0.0,0.0,0.0,0.0,0.0,0.0,0.0,0.0,0.0,3.126,3.0464,3.0834,3.1511,3.1511,3.1511,3.1511,3.1511,3.1511,3.1511,3.1511,3.1511,3.1511,3.1511,3.1511,3.1511,3.1511,3.1511,3.1511,3.1511,3.1511,3.1511,3.1511,3.1029,3.0837,3.1409,3.0807,3.0072,0.0,0.0,0.0,0.0,0.0,0.0,0.0,0.0,0.0,3.3101,3.282,3.3031,3.3993,3.3993,3.4361,3.5052,3.5359,3.5504,3.5504,3.5504,3.5504,3.5504,3.5504,3.5504,3.5504,3.5504,3.5504,0.0,3.5504,3.5504,3.5504,3.5504,3.5504,3.5504,3.5504,3.5504,3.5504,0.0,0.0,0.0,0.0,0.0,3.0404,3.0404,3.0404,3.0305,3.0047,3.0513,3.0819,3.0615,3.108,3.1715,3.2509,3.2583,0.0,0.0,0.0,0.0,0.0,0.0,0.0,3.2501,3.2039,3.1807,3.1789,3.1408,3.119,3.119,3.119,3.119,3.119,0.0,0.0,0.0,0.0,0.0,0.0,0.0,0.0,3.119,0.0,0.0,0.0,0.0,0.0,0.0,0.0,0.0,0.0,0.0,3.0477,3.1511,3.1511,3.1511,3.1511,3.1511,3.1511,3.1511,3.1511,3.1511,3.1511,3.1511,3.1511,3.1511,3.1511,3.1511,3.1511,3.1511,3.1511,3.1511,3.1511,3.1511,0.0,3.1511,3.0807,0.0,0.0,0.0,0.0,0.0,0.0,0.0,0.0,0.0,0.0,3.1217,3.2105,3.3031,3.3993,3.3993,3.3993,3.4027,3.4986,3.5504,3.5504,3.5504,3.5504,3.5504,3.5504,3.5504,3.5504,3.5504,3.5504,0.0,3.5504,3.5504,3.5504,3.5504,3.5504,3.5504,3.5504,3.5504,3.5504,0.0,0.0,0.0,0.0,0.0,0.0,3.0404,3.0248,3.023,3.0562,3.0669,3.082,3.1105,3.1795,3.232,3.2583,3.2601,0.0,0.0,0.0,0.0,0.0,0.0,0.0,3.2999,3.2825,3.2598,3.2282,3.2144,3.1932,3.1621,3.1621,3.1451,3.119,3.119,3.119,0.0,0.0,0.0,0.0,0.0,3.119,3.119,0.0,0.0,0.0,0.0,0.0,0.0,0.0,0.0,0.0,0.0,0.0,0.0,3.2394,3.1894,3.1511,3.1511,3.1511,3.1511,3.1511,3.1511,3.1511,3.1511,3.1511,3.1511,3.1511,3.1511,3.1511,3.1511,3.1511,3.1511,3.1511,3.1511,0.0,0.0,0.0,0.0,0.0,0.0,0.0,0.0,0.0,0.0,0.0,0.0,0.0,3.3066,3.2784,3.2749,3.3031,3.3671,3.4312,3.5019,3.5359,3.5504,3.5504,3.5504,3.5504,3.5504,3.5504,3.5504,3.5504,3.5504,3.5504,3.5504,3.5504,3.5504,3.5504,3.5504,3.5504,3.5504,3.5504,3.5504,3.5504,0.0,0.0,0.0,0.0,0.0,0.0,3.0846,3.0654,3.0703,3.1316,3.146,3.1577,3.1826,3.2577,3.3041,3.3041,3.3041,0.0,0.0,0.0,0.0,0.0,0.0,0.0,3.3419,3.3273,3.306,3.2761,3.2583,3.2247,3.1807,3.1807,3.1584,3.119,3.119,3.119,0.0,0.0,0.0,0.0,3.119,3.119,3.119,0.0,0.0,0.0,0.0,0.0,0.0,0.0,0.0,0.0,0.0,0.0,0.0,0.0,3.2272,3.1853,3.1582,3.1511,3.1511,3.1511,3.1511,3.1511,3.1511,3.1511,3.1511,3.1511,3.1511,3.1511,3.1511,3.1511,3.1511,3.1511,3.1511,0.0,0.0,0.0,0.0,0.0,0.0,0.0,0.0,0.0,0.0,0.0,0.0,0.0,3.289,3.2749,3.2464,3.2069,3.3345,3.4279,3.4953,3.5326,3.5504,3.5504,3.5504,3.5504,3.5504,3.5504,3.5504,3.5504,3.5504,3.5504,0.0,3.5504,3.5504,3.5504,3.5504,3.5504,3.5504,3.5504,3.5504,3.5504,0.0,0.0,0.0,0.0,0.0,0.0,3.1642,3.1532,3.1583,3.2185,3.2681,3.2895,3.2713,3.3348,3.3807,3.3807,3.3807,0.0,0.0,0.0,0.0,0.0,0.0,3.3807,3.3807,3.3419,3.3243,3.3243,3.2809,3.2349,3.1897,3.1879,3.164,3.1232,3.121,3.119,3.119,3.119,3.119,3.119,3.119,3.119,0.0,0.0,0.0,0.0,0.0,0.0,0.0,0.0,0.0,0.0,0.0,0.0,0.0,0.0,0.0,0.0,0.0,3.1511,3.1511,3.1511,3.1511,3.1511,3.1511,3.1511,0.0,3.1511,3.1511,3.1511,3.1511,3.1511,3.1511,3.1511,3.1511,0.0,0.0,0.0,0.0,0.0,0.0,0.0,0.0,0.0,0.0,0.0,0.0,0.0,3.1278,3.2141,3.2213,3.1315,3.2996,3.391,3.3993,3.492,3.5439,3.5504,3.5504,3.5504,3.5504,3.5504,3.5504,0.0,3.5504,3.5504,3.5504,3.5504,3.5504,3.5504,3.5504,3.5504,3.5504,3.5504,3.5504,3.5504,0.0,0.0,0.0,0.0,0.0,0.0,0.0,0.0,0.0,0.0,3.2735,3.2912,3.3458,3.3697,3.3807,0.0,0.0,0.0,0.0,0.0,0.0,0.0,3.3807,3.3807,3.3807,3.3707,3.3666,3.3666,3.355,3.3284,3.2856,3.25,3.2092,3.1641,3.1332,3.119,3.119,3.119,3.119,3.119,3.119,3.119,0.0,0.0,0.0,0.0,3.119,3.119,0.0,0.0,0.0,0.0,0.0,0.0,0.0,0.0,3.2986,3.2437,3.1697,0.0,3.1511,3.1511,3.1511,3.1511,0.0,3.1511,3.1511,3.1511,3.1511,3.1511,3.1511,3.1511,3.1511,3.1511,0.0,0.0,0.0,0.0,0.0,0.0,0.0,0.0,0.0,0.0,0.0,0.0,0.0,3.1499,3.2249,3.25,3.25,3.2285,3.2713,3.3276,3.3993,3.4245,3.4725,3.5504,3.5504,3.5504,3.5504,3.5504,3.5504,3.5504,3.5504,3.5504,3.5504,3.5504,3.5504,3.5504,3.5504,3.5504,3.5504,3.5504,3.5504,3.5504,0.0,0.0,0.0,0.0,0.0,0.0,0.0,0.0,0.0,0.0,3.3321,3.333,3.3752,3.3807,3.3807,0.0,0.0,0.0,0.0,0.0,0.0,3.3807,3.3807,3.3807,3.3807,3.3807,3.3807,3.3807,3.3807,3.3592,3.3199,3.2937,3.245,3.1789,3.1389,3.119,3.119,3.119,3.119,3.119,3.119,0.0,0.0,0.0,0.0,0.0,3.119,3.119,0.0,3.0821,3.1207,3.1928,0.0,0.0,0.0,0.0,3.3582,3.296,3.2571,3.1992,3.1511,3.1511,3.1511,3.1511,3.1511,3.1511,3.1511,3.1511,0.0,3.1511,3.1511,3.119,3.1058,0.0,3.0837,0.0,0.0,0.0,0.0,0.0,0.0,0.0,0.0,0.0,0.0,0.0,0.0,3.0771,3.1304,3.1719,3.196,3.196,3.2393,3.2855,3.3345,3.3774,3.4279,3.4806,3.5279,3.5504,3.5504,3.5504,3.5504,3.5504,3.5504,3.5504,3.5504,3.5504,3.5504,3.5504,3.5504,3.5504,3.5504,3.5504,3.5701,3.5943,0.0,0.0,0.0,0.0,0.0,0.0,0.0,0.0,0.0,0.0,0.0,0.0,0.0,0.0,0.0,0.0,0.0,0.0,0.0,0.0,3.3807,3.3807,3.3807,3.3807,3.3807,3.3807,3.3807,3.3807,3.3807,3.3638,3.3288,3.3229,3.2745,3.1897,3.1487,3.1291,3.1291,3.123,3.119,3.119,3.119,0.0,0.0,0.0,0.0,0.0,0.0,0.0,0.0,3.119,3.119,3.1461,3.2933,0.0,0.0,0.0,0.0,0.0,3.3469,3.2598,3.1668,3.1668,3.1582,3.1511,3.1511,3.1511,0.0,0.0,0.0,0.0,3.1351,3.0866,0.0,0.0,0.0,0.0,0.0,0.0,0.0,0.0,0.0,0.0,0.0,0.0,0.0,0.0,0.0,2.9792,2.9792,3.0558,3.1044,3.1217,3.196,3.2464,3.2593,3.3518,3.4061,3.4245,3.51,3.5504,3.5504,3.5504,3.5504,3.5504,0.0,0.0,3.5504,3.5504,3.5504,3.5504,3.5504,3.5504,3.5504,3.5504,3.5894,3.6353,0.0,0.0,0.0,0.0,0.0,0.0,0.0,0.0,0.0,0.0,0.0,0.0,0.0,0.0,0.0,0.0,0.0,0.0,0.0,3.3807,3.3807,3.3807,3.3807,3.3807,3.3807,3.3807,3.3807,3.3807,3.3807,3.3762,3.3707,3.3361,3.2903,3.2384,3.1915,3.1715,3.1696,3.1351,3.119,3.119,3.119,0.0,0.0,0.0,0.0,0.0,0.0,0.0,0.0,3.119,3.119,3.1461,3.2933,0.0,0.0,0.0,0.0,0.0,3.2922,3.2586,3.2437,3.2437,3.1951,3.1511,3.1511,3.1511,3.1511,0.0,0.0,0.0,0.0,3.094,3.1117,0.0,0.0,0.0,0.0,0.0,0.0,0.0,0.0,0.0,0.0,0.0,0.0,0.0,0.0,2.9792,2.9792,2.9934,3.0381,3.118,3.1352,3.1815,3.2593,3.3518,3.4428,3.5279,3.5439,3.5504,3.5504,3.5504,3.5504,3.5504,0.0,3.5504,3.5504,3.5504,3.5504,3.5504,3.5504,3.5504,3.5504,3.5504,3.5554,3.5718,0.0,0.0,0.0,0.0,0.0,0.0,0.0,0.0,0.0,0.0,0.0,0.0,0.0,0.0,0.0,0.0,0.0,0.0,3.3807,3.3807,3.3807,3.3807,3.3807,3.3807,3.3807,3.3807,3.3807,3.3807,3.3807,3.3807,3.3775,3.3375,3.3075,3.2874,3.2383,3.2179,3.2179,3.1986,3.175,3.1509,0.0,0.0,0.0,0.0,0.0,0.0,0.0,0.0,0.0,0.0,3.119,3.1461,3.2933,0.0,0.0,0.0,0.0,0.0,3.4202,3.3953,3.3582,3.3235,3.2312,3.1511,3.1511,3.1511,3.1511,0.0,0.0,0.0,0.0,0.0,2.9858,0.0,0.0,0.0,0.0,0.0,0.0,0.0,0.0,0.0,0.0,0.0,0.0,0.0,0.0,0.0,2.9792,3.0279,3.0758,3.118,3.1669,3.2429,3.3345,3.3774,3.4245,3.4691,3.5246,3.5504,3.5504,3.5504,3.5504,3.5504,0.0,3.5504,3.5504,3.5504,3.5504,3.5504,3.5504,3.5504,3.5569,3.5943,3.5831,3.5683,0.0,0.0,0.0,0.0,0.0,0.0,0.0,0.0,0.0,0.0,0.0,0.0,0.0,0.0,0.0,0.0,0.0,0.0,3.3807,3.3807,3.3807,3.3807,3.3807,3.3807,3.3807,3.3807,3.3807,3.3807,3.3807,3.3807,3.3775,3.3494,3.3332,3.3317,3.2874,3.2599,3.2501,3.2366,3.2074,3.166,0.0,0.0,0.0,0.0,0.0,0.0,0.0,0.0,0.0,0.0,0.0,0.0,0.0,0.0,0.0,3.5009,3.523,3.4918,3.5276,3.4988,3.4431,3.3761,3.2664,3.171,3.1539,3.1511,3.1511,0.0,0.0,0.0,0.0,3.0178,0.0,0.0,0.0,0.0,0.0,0.0,0.0,0.0,0.0,0.0,0.0,0.0,0.0,0.0,0.0,0.0,3.0139,3.0582,3.097,3.118,3.1888,3.2713,3.3671,3.3876,3.4129,3.4361,3.5133,3.5504,3.5504,3.5504,3.5504,3.5504,3.5504,3.5504,3.5504,3.5504,3.5504,3.5504,3.5504,3.5504,3.5554,3.6134,3.5975,3.5668,0.0,0.0,0.0,0.0,0.0,0.0,0.0,0.0,0.0,0.0,0.0,0.0,0.0,0.0,0.0,0.0,0.0,0.0,3.3807,3.3807,3.3807,3.3807,3.3807,3.3807,3.3807,3.3807,3.3807,3.3807,3.3807,3.3807,3.3807,3.3762,3.3748,3.3734,3.3332,3.2921,3.2467,3.2039,3.1621,3.1232,3.1232,0.0,0.0,0.0,0.0,0.0,0.0,0.0,0.0,0.0,0.0,0.0,0.0,0.0,3.363,3.516,3.5577,3.5385,3.4847,3.464,3.4431,3.3761,3.3066,3.2355,3.1668,3.1511,0.0,3.1511,0.0,0.0,0.0,3.0299,0.0,0.0,0.0,0.0,0.0,0.0,0.0,0.0,0.0,0.0,0.0,0.0,0.0,0.0,0.0,0.0,3.1106,3.0343,3.0317,3.118,3.1278,3.1742,3.2713,3.3567,3.4461,3.5392,3.5472,3.5504,3.5504,3.5504,3.5504,3.5504,3.5504,3.5504,3.5504,3.5504,3.5504,3.5504,3.5504,3.5504,3.5504,3.5554,3.5569,3.5619,0.0,0.0,0.0,0.0,0.0,0.0,0.0,0.0,0.0,0.0,0.0,0.0,0.0,0.0,0.0,0.0,0.0,0.0,3.3807,3.3807,3.3807,3.3807,3.3807,3.3807,3.3807,3.3807,3.3807,3.3807,3.3807,3.3807,3.3807,3.3807,3.3807,3.3775,3.3634,3.3346,3.2919,3.2745,3.2247,3.1565,3.1565,3.143,0.0,0.0,0.0,0.0,0.0,0.0,0.0,0.0,3.119,3.1461,3.2933,3.3406,3.3694,3.516,3.56,3.5538,3.5276,3.4918,3.4528,3.4284,3.3417,0.0,0.0,3.216,3.2064,3.1582,3.1511,0.0,0.0,0.0,0.0,0.0,0.0,0.0,0.0,0.0,0.0,0.0,0.0,0.0,0.0,0.0,0.0,0.0,0.0,0.0,3.2069,3.1719,3.1683,3.2069,3.2069,3.2522,3.3449,3.3808,3.4509,3.5504,3.5504,3.5504,3.5504,3.5504,3.5504,3.5504,3.5504,3.5504,3.5504,3.5504,3.5504,3.5504,3.5504,3.5504,3.5504,3.5504,3.5504,3.5537,0.0,0.0,0.0,0.0,0.0,0.0,0.0,0.0,0.0,0.0,0.0,0.0,0.0,0.0,0.0,0.0,0.0,0.0,3.3807,3.3807,3.3807,3.3807,3.3807,3.3807,3.3807,3.3807,3.3807,3.3807,3.3807,3.3807,3.3807,3.3807,3.3807,3.3807,3.3807,3.3578,3.3199,3.3045,3.2516,3.1789,3.166,3.1449,0.0,0.0,0.0,0.0,0.0,0.0,0.0,0.0,3.1343,3.1749,3.3017,3.3558,3.3998,3.5228,3.5447,3.5276,3.5276,3.4783,3.4284,3.4284,0.0,0.0,3.2641,3.241,3.212,3.1611,3.1511,3.1322,3.0777,0.0,0.0,0.0,0.0,0.0,0.0,0.0,0.0,0.0,0.0,0.0,0.0,0.0,0.0,0.0,0.0,0.0,0.0,3.2749,3.2593,3.2593,3.2593,3.2925,3.3553,3.3842,3.4361,3.5019,3.5359,3.5504,3.5504,3.5504,3.5504,3.5504,3.5504,3.5504,3.5504,3.5504,3.5504,3.5504,3.5504,3.5504,3.5504,3.5504,3.5504,3.5504,0.0,0.0,0.0,0.0,0.0,0.0,0.0,0.0,3.5391,3.5149,3.487,0.0,0.0,0.0,0.0,0.0,0.0,0.0,3.3807,3.3807,3.3807,3.3807,3.3807,3.3807,3.3807,3.3807,3.3807,3.3807,3.3807,3.3807,3.3807,3.3807,3.3807,3.3807,3.3807,3.3578,3.3169,3.2697,3.223,3.1771,3.137,3.121,3.119,0.0,0.0,0.0,0.0,0.0,0.0,0.0,3.1701,3.2429,3.3186,3.3914,3.4641,3.538,3.5121,3.46,3.46,3.4112,3.3582,0.0,0.0,0.0,3.2749,3.2035,3.1511,3.1511,3.1511,3.1511,3.1511,0.0,0.0,0.0,0.0,0.0,0.0,0.0,0.0,0.0,0.0,0.0,0.0,0.0,0.0,0.0,0.0,0.0,0.0,3.3136,3.2629,3.2629,3.2629,3.2629,3.2629,3.3553,3.4027,3.4027,3.5019,3.5504,3.5504,3.5504,3.5504,3.5504,3.5504,3.5504,3.5504,3.5504,3.5504,3.5504,3.5504,3.5504,3.5504,3.5504,3.5504,3.5504,0.0,0.0,0.0,0.0,0.0,0.0,0.0,0.0,3.5391,3.5149,3.487,0.0,0.0,0.0,0.0,0.0,0.0,0.0,3.3807,3.3807,3.3807,3.3807,3.3807,3.3807,3.3807,3.3807,3.3807,3.3807,3.3807,3.3807,3.3807,3.3807,3.3807,3.3807,3.3807,3.3578,3.3199,3.3045,3.2533,3.1789,3.1678,3.1468,3.119,0.0,0.0,0.0,0.0,0.0,0.0,0.0,0.0,0.0,3.3778,3.432,3.4641,3.538,3.547,3.5207,3.4736,3.4112,0.0,3.3582,0.0,0.0,0.0,3.2437,0.0,0.0,3.1511,3.1511,3.1511,0.0,0.0,0.0,0.0,0.0,0.0,0.0,0.0,0.0,0.0,0.0,0.0,0.0,0.0,0.0,0.0,0.0,3.5067,3.4773,3.4624,3.4624,3.4624,3.4624,3.4624,3.492,3.5067,3.5067,3.5359,3.5504,3.5504,3.5504,3.5504,3.5504,3.5504,3.5504,3.5504,3.5504,3.5504,3.5504,3.5504,3.5504,3.5504,3.5504,3.5504,3.5504,0.0,0.0,0.0,0.0,0.0,0.0,0.0,0.0,3.5391,3.5149,3.487,3.4572,0.0,0.0,0.0,0.0,0.0,0.0,3.3807,3.3807,3.3807,3.3807,3.3807,3.3807,3.3807,3.3807,3.3807,3.3807,3.3807,3.3807,3.3807,3.3807,3.3807,3.3807,3.3807,3.3666,3.3437,3.3273,3.2872,3.2349,3.2144,3.1915,3.1712,0.0,0.0,0.0,0.0,0.0,0.0,0.0,0.0,0.0,3.4223,3.4692,3.4986,3.5142,3.5005,3.4657,3.3987,3.3313,0.0,3.2772,3.2117,3.1611,3.2064,0.0,0.0,0.0,0.0,3.1511,3.1511,3.1511,0.0,0.0,0.0,0.0,0.0,0.0,0.0,0.0,0.0,0.0,0.0,0.0,0.0,0.0,0.0,0.0,3.5489,3.5504,3.5504,3.5504,3.5504,3.5504,3.5504,3.5504,3.5504,3.5504,3.5504,3.5504,3.5504,3.5504,3.5504,3.5504,3.5504,3.5504,3.5504,3.5504,3.5504,3.5504,3.5504,3.5504,3.5504,3.5504,3.5504,3.5537,0.0,0.0,3.55,3.55,0.0,0.0,0.0,0.0,3.5398,3.5174,3.4889,3.4582,0.0,0.0,0.0,3.3807,0.0,0.0,0.0,3.3807,3.3807,3.3807,3.3807,3.3807,3.3807,3.3807,3.3807,3.3807,3.3807,3.3807,3.3807,3.3807,3.3807,3.3807,3.3807,3.3807,3.378,3.3404,3.3229,3.3169,3.2747,3.2534,3.2501,3.2501,0.0,0.0,0.0,0.0,0.0,0.0,0.0,0.0,3.4573,3.5064,3.547,3.4871,3.4211,3.3531,3.2868,3.2176,0.0,3.1511,3.1511,0.0,3.1511,3.1511,3.1511,3.1511,0.0,3.1511,3.1511,3.1511,0.0,0.0,0.0,0.0,0.0,0.0,0.0,0.0,0.0,0.0,0.0,0.0,0.0,0.0,0.0,3.4666,3.5295,3.5385,3.5415,3.5415,3.5474,3.5504,3.5504,3.5504,3.5504,3.5504,3.5504,3.5504,3.5504,3.5504,3.5504,3.5504,3.5504,3.5504,3.5504,3.5504,3.5504,3.5504,3.5504,3.5504,3.5504,3.5504,3.5504,3.5619,0.0,0.0,3.55,3.55,0.0,0.0,0.0,0.0,0.0,3.5424,0.0,0.0,0.0,0.0,0.0,3.3807,3.3807,0.0,0.0,3.3807,3.3807,3.3807,3.3807,3.3807,3.3807,3.3807,3.3807,3.3807,3.3807,3.3807,3.3807,3.3807,3.3807,3.3807,3.3807,3.3807,3.3788,3.3707,3.3494,3.3199,3.3075,3.2842,3.2501,3.2501,3.2599,0.0,0.0,0.0,0.0,0.0,0.0,0.0,3.5182,3.5464,3.5577,3.5447,3.4894,3.4235,3.3572,3.2879,0.0,0.0,3.1511,3.1511,3.1511,3.1511,3.1511,3.1511,3.1511,3.1511,3.1511,0.0,0.0,0.0,0.0,0.0,0.0,0.0,0.0,0.0,0.0,0.0,0.0,0.0,0.0,0.0,0.0,3.3769,3.3918,3.4412,3.4728,3.4728,3.522,3.5504,3.5504,3.5504,3.5504,3.5504,3.5504,3.5504,3.5504,3.5504,3.5504,3.5504,3.5504,3.5504,3.5504,3.5504,3.5504,3.5504,3.5504,3.5504,3.5504,3.5504,3.5504,3.5619,0.0,0.0,0.0,0.0,0.0,0.0,0.0,0.0,0.0,0.0,0.0,3.5325,3.4936,3.4497,0.0,0.0,3.4068,3.3999,3.3999,3.3863,3.3807,3.3807,3.3807,3.3807,3.3807,3.3807,3.3807,3.3807,3.3807,3.3807,3.3807,3.3807,3.3807,3.3807,3.3807,3.3807,3.3807,3.3807,3.368,3.3494,3.3494,3.3564,3.3664,3.3444,3.3579,3.3841,3.3597,0.0,0.0,0.0,0.0,0.0,0.0,0.0,3.5554,3.5207,3.4871,3.4382,3.3391,0.0,0.0,3.1682,0.0,3.1511,3.1511,3.1511,3.1511,3.1511,3.1511,3.1511,0.0,0.0,0.0,0.0,0.0,0.0,0.0,0.0,0.0,0.0,0.0,0.0,0.0,0.0,0.0,0.0,3.2826,3.3155,3.3484,3.3829,3.4008,3.4008,3.4352,3.4696,3.5011,3.5011,3.5175,3.5504,3.5504,3.5504,3.5504,3.5504,3.5504,3.5504,3.5504,3.5504,3.5504,3.5504,3.5504,3.5504,3.5504,3.5504,3.5504,3.5504,3.5504,3.5619,0.0,0.0,0.0,0.0,0.0,0.0,0.0,0.0,0.0,0.0,0.0,3.6277,3.56,3.5296,3.5138,0.0,0.0,0.0,3.4505,3.4161,3.3928,3.3863,3.3863,3.3863,3.3863,3.3815,3.3807,3.3807,3.3807,3.3807,3.3807,3.3807,3.3807,3.3807,3.3807,3.388,3.4009,3.4009,3.4082,3.4229,3.4229,3.4633,3.5182,3.4682,3.4716,3.4924,3.4455,3.4473,3.4692,3.4692,0.0,0.0,0.0,0.0,3.5492,3.4941,3.4688,3.4358,3.3235,0.0,3.2437,3.1682,3.1511,0.0,3.1511,3.1511,3.1511,3.1511,3.1511,3.1511,0.0,0.0,0.0,0.0,0.0,0.0,0.0,0.0,0.0,0.0,0.0,0.0,0.0,0.0,0.0,0.0,3.2318,3.2557,3.3125,3.326,3.332,3.332,3.344,3.3754,3.4339,3.4444,3.4788,3.5325,3.5444,3.5504,3.5504,3.5504,3.5504,3.5504,3.5504,3.5504,3.5504,3.5504,3.5504,3.5504,3.5504,3.5504,3.5504,3.5504,3.5504,3.5619,0.0,0.0,0.0,0.0,0.0,0.0,0.0,0.0,0.0,0.0,3.7587,3.7382,3.7286,3.7032,3.686,3.686,3.6828,3.6476,3.5719,0.0,0.0,3.4159,3.4147,3.4147,3.4147,3.3928,3.3807,3.3807,3.3807,3.3807,3.3807,3.3807,3.3807,3.3807,3.3807,3.4192,3.4839,3.4839,3.5279,3.5973,3.5973,3.6028,3.6076,3.553,3.5521,3.57,3.5218,3.5223,3.5447,3.5447,3.5515,0.0,0.0,0.0,3.5577,3.5492,3.5052,3.4552,3.4382,0.0,3.2437,0.0,3.1511,3.1511,0.0,0.0,3.1511,0.0,3.1511,0.0,0.0,0.0,0.0,0.0,0.0,0.0,0.0,0.0,0.0,0.0,0.0,0.0,0.0,0.0,0.0,3.163,3.163,3.1675,3.1765,3.2303,3.2647,3.2647,3.32,3.3529,3.3619,3.4219,3.4548,3.4653,3.522,3.5504,3.5504,3.5504,3.5504,3.5504,3.5504,3.5504,3.5504,3.5504,3.5504,3.5504,3.5504,3.5504,3.5504,3.5504,3.5504,3.5619,0.0,0.0,0.0,0.0,0.0,0.0,0.0,0.0,0.0,0.0,0.0,3.8364,3.7885,3.7725,3.7655,3.7655,3.7518,3.7194,3.6663,3.6302,3.5824,3.5176,3.5146,3.4862,3.4218,3.4074,3.3948,3.3807,3.3807,3.4027,3.4472,3.4472,3.4472,3.4472,3.4472,3.4931,3.5734,3.5734,3.5954,3.6303,3.6303,3.6391,3.651,3.6264,3.6344,3.6548,3.6058,3.5952,3.6006,3.5694,3.56,3.56,3.56,0.0,0.0,0.0,3.5385,3.5005,3.4235,3.3608,3.2986,0.0,3.212,3.212,3.212,0.0,3.1511,3.1511,0.0,0.0,0.0,0.0,0.0,0.0,0.0,0.0,0.0,0.0,0.0,0.0,0.0,0.0,0.0,0.0,0.0,3.1511,3.1511,3.1511,3.1511,3.178,3.1929,3.1929,3.2213,3.2572,3.2946,3.323,3.3754,3.4518,3.5175,3.5504,3.5504,3.5504,3.5504,3.5504,3.5504,3.5504,3.5504,3.5504,3.5504,3.5504,3.5504,3.5504,3.5554,3.5975,3.6117,3.6228,0.0,0.0,0.0,0.0,0.0,0.0,0.0,0.0,0.0,0.0,0.0,3.9361,3.87,0.0,0.0,0.0,3.846,3.8145,3.7657,3.7489,3.709,3.6366,3.6318,3.5924,3.5068,3.4909,3.4742,3.4542,3.4467,3.4743,3.5334,3.5334,3.5445,3.5628,3.5426,3.5807,3.6597,3.6597,3.6707,3.6909,3.6753,3.6833,3.6977,3.6719,3.6788,3.6941,3.6395,3.6203,3.6139,3.5739,3.56,3.56,3.56,3.56,0.0,0.0,0.0,0.0,0.0,0.0,3.3659,3.2815,3.2586,3.2547,0.0,0.0,3.1511,0.0,0.0,0.0,0.0,0.0,0.0,0.0,0.0,0.0,0.0,0.0,0.0,0.0,0.0,0.0,0.0,0.0,3.1511,3.1511,3.1511,3.1511,3.1511,3.1511,3.1511,3.1511,3.1511,3.1735,3.2228,3.2392,3.317,3.4518,3.4996,3.534,3.5504,3.5504,3.5504,3.5504,3.5504,3.5504,3.5504,3.5504,3.5504,3.5504,3.5504,3.5619,3.5831,3.6384,3.6737,3.6994,0.0,0.0,0.0,0.0,0.0,0.0,0.0,0.0,0.0,0.0,0.0,4.0419,4.0362,4.0362,4.0362,4.0362,4.0354,3.9901,3.8888,3.8287,3.7824,3.7525,3.7516,0.0,3.7422,3.6863,3.6559,3.6547,3.6284,3.6193,3.6229,3.6229,3.6648,3.7345,3.656,3.667,3.7437,3.7437,3.7878,3.853,3.8023,3.782,3.7736,3.6792,3.6422,3.6374,3.5832,3.5644,3.5644,3.5622,3.56,0.0,3.56,3.56,3.56,0.0,0.0,0.0,0.0,3.4552,0.0,3.2922,3.2586,0.0,0.0,0.0,0.0,0.0,0.0,0.0,0.0,0.0,0.0,0.0,0.0,0.0,0.0,0.0,0.0,0.0,0.0,0.0,0.0,0.0,3.1511,3.1511,3.1511,3.1511,3.1511,3.1511,3.1511,3.1511,3.1511,3.1525,3.1555,3.2168,3.317,3.4503,3.4548,3.4876,3.5504,3.5504,3.5504,3.5504,3.5504,3.5504,3.5504,3.5504,3.5504,3.5504,3.5504,3.5926,3.6554,3.6584,3.7084,3.7719,0.0,0.0,0.0,0.0,0.0,0.0,0.0,0.0,0.0,0.0,0.0,0.0,0.0,4.0496,4.0496,4.0496,4.0496,4.033,3.9959,3.9727,3.9331,3.8722,3.8703,3.835,3.7619,3.7394,3.7192,3.7017,3.6708,3.6825,3.7312,3.7149,3.7511,3.823,3.7437,3.7529,3.8267,3.8267,3.8432,3.8643,3.8133,3.772,3.7415,3.7039,3.6704,3.6374,0.0,0.0,0.0,0.0,0.0,0.0,0.0,0.0,0.0,0.0,0.0,0.0,0.0,0.0,0.0,3.4112,3.3556,3.3156,3.2917,3.2145,3.1511,0.0,0.0,0.0,0.0,0.0,0.0,0.0,0.0,0.0,0.0,0.0,0.0,0.0,0.0,0.0,0.0,0.0,3.1511,3.1511,3.1511,3.1511,3.1511,3.1511,3.1511,3.1511,3.1511,3.1511,3.1511,3.2153,3.2961,3.3844,3.4309,3.4846,3.5504,3.5504,3.5504,3.5504,3.5504,3.5504,3.5504,3.5504,3.5504,3.5504,3.5504,3.5943,3.6661,3.7189,3.7847,3.858,0.0,0.0,0.0,4.0496,0.0,4.0496,4.0496,4.0496,4.0496,4.0496,0.0,0.0,0.0,0.0,4.0496,4.0496,4.0496,4.0496,4.0496,4.0496,4.0265,3.9727,3.9618,3.9204,3.846,3.7945,3.7751,3.7845,3.7261,3.7381,3.8164,3.7996,3.8193,3.8689,3.8138,3.8193,3.8707,3.8707,3.8707,3.8643,3.7929,3.7578,3.7396,3.7058,3.6704,0.0,0.0,0.0,0.0,0.0,0.0,0.0,0.0,0.0,0.0,0.0,0.0,0.0,3.5052,0.0,0.0,0.0,0.0,3.3887,3.3659,0.0,0.0,0.0,0.0,0.0,0.0,0.0,0.0,0.0,0.0,0.0,0.0,0.0,0.0,0.0,0.0,0.0,0.0,3.1511,3.1511,3.1511,3.1511,0.0,3.1511,3.1511,3.1511,3.1511,3.1511,3.1511,3.1511,3.1929,3.2512,3.317,3.3829,3.4502,3.516,3.54,3.5504,3.5504,3.5504,3.5504,3.5504,3.5504,3.5504,3.5504,3.5504,3.6133,3.707,3.7602,3.843,3.9368,4.0496,4.0496,4.0496,4.0496,4.0496,4.0496,4.0496,4.0496,4.0496,4.0496,0.0,0.0,0.0,0.0,0.0,4.0496,4.0496,4.0496,4.0496,4.0496,4.0496,4.0496,4.0241,4.011,4.011,3.8703,3.835,3.9139,3.8093,3.7948,3.8704,3.8707,3.8707,3.8707,3.8707,3.8707,3.8707,3.8707,3.8707,3.8611,3.7596,3.747,3.7772,3.6766,0.0,0.0,3.6392,3.6032,0.0,3.56,0.0,0.0,0.0,0.0,0.0,0.0,0.0,0.0,0.0,0.0,0.0,0.0,0.0,0.0,3.3786,0.0,3.3582,0.0,0.0,0.0,0.0,0.0,0.0,0.0,0.0,0.0,0.0,0.0,0.0,0.0,0.0,0.0,0.0,3.1511,3.1511,3.1511,3.1511,3.1511,3.1511,3.1511,3.1511,3.1511,3.1511,3.1511,3.1511,3.1511,3.1839,3.2497,3.3185,3.3844,3.4533,3.519,3.5504,3.5504,3.5504,3.5504,3.5504,3.5504,3.5504,3.5504,3.5504,3.643,3.7793,3.7793,3.8778,4.0096,4.0496,4.0496,4.0496,4.0496,4.0496,4.0496,4.0496,4.0496,4.0496,0.0,0.0,0.0,4.0496,4.0496,4.0496,4.0496,4.0496,4.0496,4.0496,4.0496,4.0496,4.0496,4.0441,4.0389,4.0389,4.0001,3.9776,3.9819,3.9279,3.9012,3.8985,3.8788,3.8707,3.8707,3.8707,3.8707,3.8707,3.8707,3.8707,3.8611,3.7596,3.7267,3.7285,0.0,0.0,0.0,0.0,3.5717,3.56,0.0,3.56,3.56,0.0,0.0,0.0,0.0,0.0,0.0,3.56,0.0,0.0,0.0,0.0,0.0,3.4358,3.3962,3.3582,0.0,0.0,0.0,0.0,0.0,0.0,0.0,0.0,0.0,0.0,0.0,0.0,0.0,0.0,0.0,3.1511,3.1511,3.1511,0.0,3.1511,3.1511,3.1511,3.1511,3.1511,3.1511,3.1511,3.1511,3.1511,3.1511,3.1839,3.2497,3.3185,3.3844,3.4533,3.519,3.5504,3.5504,3.5504,3.5504,3.5504,3.5504,3.5504,3.5504,3.5504,3.643,3.7793,3.7793,3.8778,4.0096,4.0339,4.0414,4.0496,4.0496,4.0496,4.0496,4.0496,4.0496,4.0496,0.0,0.0,0.0,4.0496,4.0496,4.0496,4.0496,4.0496,4.0496,4.0496,4.0496,4.0496,4.0496,4.0389,4.0339,4.0339,3.9868,3.9651,3.9679,3.9147,3.8913,3.8937,3.8777,3.8707,3.8707,3.8707,3.8707,3.8692,3.8465,3.8366,3.8283,3.7524,3.7209,0.0,3.6249,3.5941,0.0,0.0,0.0,3.56,3.56,3.56,3.56,3.56,3.56,0.0,0.0,0.0,0.0,0.0,0.0,0.0,0.0,0.0,0.0,3.5028,3.4712,3.4423,0.0,3.452,0.0,0.0,0.0,0.0,0.0,0.0,0.0,0.0,0.0,0.0,0.0,0.0,3.2284,3.1979,3.1951,3.1824,3.1524,3.1511,3.1511,3.1511,3.1511,3.1511,3.1511,3.1511,3.1511,3.1511,3.1511,3.1705,3.2093,3.3051,3.3694,3.4129,3.507,3.5504,3.5504,3.5504,3.5504,3.5504,3.5504,3.5504,3.5504,3.5504,3.6258,3.7338,3.7677,3.8569,3.9636,0.0,4.0339,4.0496,4.0496,4.0496,4.0496,4.0496,4.0496,4.0496,0.0,4.0496,4.0496,4.0496,4.0496,4.0496,4.0496,4.0496,4.0496,4.0496,4.0496,4.0496,4.0496,4.0258,4.0129,4.0101,3.9117,3.8759,3.9112,3.8385,3.8271,3.8707,3.8707,3.8707,3.8707,3.8707,3.8707,3.8658,3.8115,3.7859,3.7772,3.7304,3.7097,0.0,0.0,3.6291,3.6291,3.6291,3.5989,3.56,3.56,3.56,3.56,3.56,3.56,3.56,0.0,3.56,0.0,0.0,0.0,0.0,0.0,3.56,0.0,3.56,3.56,3.56,3.56,3.5121,0.0,0.0,0.0,0.0,0.0,0.0,0.0,0.0,0.0,0.0,0.0,0.0,3.3339,3.2668,3.2586,3.2327,3.1668,3.1611,3.1611,3.1611,3.1524,3.1511,3.1511,3.1511,3.1511,3.1511,3.1511,3.1511,3.1525,3.2871,3.3499,3.3544,3.4971,3.5587,3.5504,3.5683,3.5651,3.5504,3.5587,3.5554,3.5504,3.5504,3.5943,3.6691,3.7397,3.8133,3.8881,4.0414,4.0465,4.0496,4.0496,4.0496,4.0496,4.0496,4.0496,4.0496,4.0496,4.0496,4.0496,4.0496,4.0496,4.0496,4.0496,4.0496,4.0496,4.0496,4.0496,4.0496,4.0496,4.0457,4.0321,4.0101,3.988,3.955,3.9112,3.8944,3.8795,3.8707,3.8707,3.8707,3.8707,3.8707,3.8707,3.8658,3.8115,3.7685,3.7285,3.6764,3.656,3.6498,3.5963,3.5761,3.5761,3.5761,3.5694,3.56,3.56,3.56,3.56,3.56,3.56,0.0,3.56,0.0,0.0,0.0,0.0,0.0,0.0,0.0,0.0,3.56,3.56,3.56,0.0,3.5492,0.0,0.0,0.0,0.0,0.0,0.0,0.0,0.0,0.0,0.0,0.0,3.3582,3.3339,3.2668,3.2586,3.2532,3.241,3.2382,3.2382,3.2382,3.1824,3.1511,3.1511,3.1511,3.1511,3.1511,3.1511,3.1511,3.1525,3.2871,3.3499,3.3575,3.5507,3.6054,3.5569,3.6799,3.6662,3.5569,3.6134,3.6023,3.5504,3.5504,3.5943,3.66,3.6783,3.7322,3.8035,4.0304,4.0397,4.0496,4.0496,4.0496,4.0496,4.0496,4.0496,4.0496,4.0496,4.0496,4.0496,4.0496,4.0496,4.0496,4.0496,4.0496,4.043,4.0313,4.0304,4.0241,4.0053,4.0053,3.9984,3.984,3.984,3.9599,3.9112,3.9112,3.8961,3.8707,3.8707,3.8562,3.8316,3.8578,3.8417,3.7929,3.7649,3.7267,3.6783,3.6519,0.0,3.5985,3.5694,3.56,3.56,3.56,3.56,3.56,3.56,3.56,0.0,0.0,3.56,3.56,0.0,3.56,3.56,0.0,0.0,0.0,3.56,0.0,0.0,0.0,3.56,3.56,3.56,3.56,0.0,0.0,0.0,0.0,0.0,0.0,0.0,0.0,0.0,0.0,0.0,3.4609,3.4325,3.3659,3.3582,3.3469,3.3103,3.3093,3.2933,3.2614,3.2244,3.1881,3.1496,3.1511,3.1511,3.1511,3.1511,3.1511,3.1525,3.2871,3.3499,3.3575,3.5273,3.6054,3.6086,3.6874,3.6995,3.6692,3.7055,3.6995,3.66,3.6212,3.6523,3.7233,3.7613,3.8003,3.843,4.0002,4.0176,4.0328,4.0328,4.0328,4.0328,4.0328,4.0328,4.0345,4.0406,4.0414,4.0414,4.0414,4.0414,4.0397,4.0336,4.0328,4.0267,4.011,4.0101,3.9982,3.972,3.9709,3.9634,3.9517,3.9498,3.9358,3.9022,3.9022,3.8909,3.8707,3.8707,3.8465,3.8065,3.8399,3.8083,3.7323,3.7133,0.0,3.6374,0.0,3.5985,3.56,3.56,3.56,3.56,3.56,3.56,3.56,3.56,3.56,3.56,3.56,3.56,0.0,0.0,0.0,0.0,0.0,0.0,0.0,0.0,0.0,3.56,0.0,0.0,0.0,0.0,0.0,0.0,0.0,0.0,0.0,0.0,0.0,0.0,0.0,0.0,0.0,0.0,3.56,3.5339,3.4664,3.46,3.4382,3.3836,3.3786,3.3572,3.3013,3.2868,3.2449,3.1739,3.171,3.164,3.1511,3.1511,3.1511,3.1525,3.2871,3.3499,3.3544,3.502,3.5943,3.6415,3.6843,3.7247,3.7602,3.7892,3.8007,3.795,3.7144,3.7249,3.7863,3.8469,3.869,3.8772,3.9656,3.9679,3.9701,3.9701,3.9701,3.9701,3.9701,3.9701,3.9819,4.011,4.0139,4.0139,4.0139,4.0139,4.0032,3.9735,3.9701,3.9819,4.0081,4.0101,4.0081,4.0032,4.0032,3.9765,3.916,3.9165,3.9027,3.875,3.875,3.8735,3.8707,3.8707,3.8676,3.8578,3.8183,3.7929,3.7755,3.6865,3.6457,0.0,3.5876,3.565,0.0,3.56,3.56,3.56,3.56,3.56,3.56,0.0,3.56,3.56,0.0,3.56,3.56,3.56,0.0,0.0,0.0,0.0,0.0,0.0,3.56,0.0,0.0,0.0,3.56,3.56,0.0,0.0,0.0,0.0,0.0,0.0,0.0,0.0,3.4726,0.0,0.0,3.56,3.56,3.5339,3.4664,3.46,3.4576,3.4479,3.4479,3.4455,3.4382,3.3811,3.3198,3.2492,3.2492,3.2176,3.1511,3.1511,3.1511,3.1525,3.2871,3.3499,3.356,3.5569,3.6165,3.5733,3.7774,3.7901,3.6843,3.823,3.8772,3.869,3.7933,3.7719,3.7806,3.7892,3.7921,3.7921,3.9717,3.9599,3.9599,3.9599,3.9599,3.9599,3.9599,3.9765,3.9993,4.0285,4.0339,4.045,4.0768,4.0805,0.0,0.0,0.0,4.0268,0.0,0.0,3.967,3.996,3.9548,3.9173,3.8869,3.8869,3.88,3.8707,3.8707,3.8707,3.8707,3.9184,3.9223,3.8942,3.9137,0.0,3.8325,0.0,3.7533,0.0,0.0,0.0,0.0,3.6468,3.6569,3.6867,3.6451,3.6299,3.6214,0.0,3.56,0.0,0.0,0.0,0.0,0.0,0.0,0.0,0.0,0.0,0.0,0.0,0.0,0.0,3.56,0.0,3.56,0.0,0.0,0.0,0.0,0.0,0.0,0.0,3.5397,0.0,0.0,0.0,3.56,0.0,0.0,0.0,3.5207,3.5184,3.5184,3.5184,3.5184,3.5005,3.4624,3.4333,3.3862,3.3182,3.3198,3.3024,3.2718,3.2718,3.2718,3.2734,3.3635,3.4073,3.4118,3.5383,3.6038,3.6228,3.7645,3.8133,3.8015,3.9139,3.961,3.9584,3.9252,3.9146,3.9146,3.9146,3.9146,3.9146,4.0152,4.0014,4.0014,4.0014,4.0014,4.0014,4.0014,4.0214,4.0487,4.0749,4.0807,4.0958,4.1343,4.1378,0.0,0.0,4.0886,4.0819,0.0,0.0,3.996,4.0345,3.9813,0.0,3.9368,3.9368,3.9368,3.9368,3.9368,3.9368,3.9368,3.9955,4.0014,3.9674,3.9895,3.9595,3.8893,0.0,3.8219,3.7905,3.7905,3.8024,3.8125,3.7364,3.7432,3.7838,3.728,3.7117,3.7009,3.6434,3.609,0.0,3.5943,0.0,0.0,0.0,0.0,0.0,3.56,0.0,0.0,0.0,0.0,0.0,0.0,0.0,0.0,0.0,0.0,0.0,0.0,0.0,0.0,0.0,0.0,3.5532,0.0,0.0,0.0,0.0,0.0,0.0,0.0,3.56,3.56,3.56,0.0,3.5385,3.4894,3.4871,3.4568,3.3887,3.3862,3.3786,3.3582,3.3582,3.3582,3.3598,3.4435,3.4813,3.486,3.5738,3.6415,3.6964,3.7761,3.8414,3.8962,3.9782,4.0096,4.0096,4.0096,4.0096,4.0096,4.0096,4.0096,4.0096,4.1054,4.1052,4.1052,4.1052,4.1052,4.1052,4.1052,4.1052,4.1193,4.1524,4.1567,0.0,0.0,0.0,0.0,0.0,0.0,4.1212,4.1551,0.0,4.1529,0.0,0.0,4.1356,0.0,4.1022,4.1022,4.1022,4.1022,4.1022,4.1022,4.104,4.1058,4.0991,3.9978,3.9512,3.9411,3.8357,3.7905,3.7905,3.7905,3.8328,3.887,0.0,3.7889,3.7905,3.7872,0.0,0.0,3.7838,3.7347,0.0,0.0,0.0,0.0,0.0,0.0,0.0,0.0,0.0,0.0,3.56,0.0,0.0,0.0,0.0,3.56,0.0,0.0,0.0,0.0,0.0,0.0,0.0,0.0,0.0,0.0,0.0,0.0,0.0,0.0,0.0,0.0,3.56,3.56,0.0,3.56,3.56,3.5577,3.5577,3.5253,3.4576,3.4576,3.426,3.3608,3.3582,3.3582,3.3624,3.4995,3.5667,3.573,3.708,3.7735,3.7806,3.8553,3.8881,3.8962,3.9782,4.0096,4.0096,4.0096,4.0096,4.0096,4.0096,4.0096,4.0096,4.269,4.269,4.2359,4.1279,4.1095,4.1174,4.1385,4.143,4.1545,0.0,4.1873,0.0,0.0,4.2389,4.2257,0.0,0.0,4.1932,4.206,4.1544,0.0,0.0,0.0,4.1222,0.0,0.0,4.1095,4.1095,4.1095,4.1095,4.1113,4.1644,4.1677,4.1289,4.1089,4.0803,0.0,0.0,0.0,0.0,0.0,3.952,3.9656,0.0,3.892,3.9276,3.8802,3.8633,0.0,3.8075,3.7736,3.7533,3.7533,3.7009,3.6383,3.6383,3.6028,0.0,0.0,0.0,3.56,3.56,0.0,0.0,0.0,0.0,0.0,0.0,0.0,0.0,0.0,0.0,0.0,0.0,0.0,0.0,0.0,0.0,0.0,0.0,0.0,0.0,0.0,0.0,0.0,0.0,3.56,0.0,3.56,3.56,3.5492,3.5276,3.5253,3.5161,3.4934,3.4934,3.5184,3.5723,3.6153,3.6623,3.7112,3.7572,3.7793,3.7835,3.858,3.8908,3.8962,3.9782,4.0096,4.0096,4.0096,4.0096,4.0096,4.0096,4.0096,4.0096,4.3515,4.3515,4.3167,4.2139,4.1956,4.202,4.2236,4.2282,0.0,0.0,4.2515,0.0,4.3005,0.0,4.2952,0.0,4.2727,4.2727,4.2727,4.2249,0.0,4.269,4.2231,0.0,0.0,0.0,0.0,0.0,4.1956,4.1956,4.1974,4.2488,4.2429,4.1861,4.181,4.1468,4.0856,4.0336,4.0096,0.0,0.0,4.0096,0.0,0.0,3.969,4.0045,0.0,3.9402,3.9334,3.8836,3.8514,3.8294,3.8294,3.7787,3.7178,3.7178,3.6637,3.6028,3.6028,3.5802,0.0,3.56,3.56,0.0,3.56,0.0,0.0,0.0,0.0,0.0,0.0,0.0,0.0,0.0,0.0,0.0,0.0,3.56,0.0,0.0,0.0,0.0,0.0,0.0,0.0,3.56,3.56,3.56,0.0,3.56,3.56,3.56,3.56,3.56,3.56,3.56,3.6011,3.6812,3.7034,3.751,3.8258,3.8504,3.864,3.8624,3.9129,3.9315,3.9368,3.9901,4.0096,4.0096,4.0096,4.0096,4.0096,4.0096,4.0096,4.0096,4.3515,4.3515,4.3515,4.3515,4.3515,0.0,0.0,0.0,4.3515,0.0,4.3515,4.3515,4.3515,4.3515,4.3515,4.3515,4.3515,4.3515,4.3515,4.3515,0.0,0.0,4.3515,4.3515,4.3515,0.0,0.0,0.0,0.0,4.3515,4.3515,4.3515,4.3214,4.2674,4.208,0.0,4.0856,4.0336,4.0096,4.0096,4.0096,4.0096,4.0096,4.0096,4.0096,4.0096,4.0096,4.0096,4.0096,4.0096,3.9639,3.9039,3.9039,3.8548,3.7956,3.7956,3.7432,3.6846,3.6812,3.6231,3.565,3.56,3.56,0.0,0.0,0.0,3.56,0.0,0.0,0.0,0.0,0.0,0.0,0.0,0.0,0.0,0.0,0.0,0.0,0.0,0.0,0.0,0.0,0.0,3.56,3.56,3.56,3.56,0.0,3.56,3.56,3.56,3.56,3.56,3.56,3.56,3.6028,3.6863,3.7567,3.8311,3.9073,3.9791,4.0096,4.0096,4.0096,4.0096,4.0096,4.0096,4.0096,4.0096,4.0096,4.0096,4.0096,4.0096,4.0096,4.0096,4.3515,4.3515,4.3515,0.0,4.3515,4.3515,0.0,0.0,0.0,0.0,4.3515,4.3515,4.3515,4.3515,4.3515,4.3515,4.3515,0.0,0.0,0.0,0.0,4.3515,4.3515,4.3515,4.3515,4.3515,0.0,4.3515,0.0,4.3515,4.3515,4.3515,4.3214,4.2674,4.208,4.1468,4.0856,4.0336,4.0096,4.0096,4.0096,4.0096,4.0096,0.0,4.0096,4.0096,4.0096,4.0096,4.0096,4.0096,3.9977,3.9825,3.9825,3.9292,3.8717,3.8717,3.8193,3.7499,3.6948,3.666,3.6349,3.5735,3.56,3.56,0.0,0.0,0.0,0.0,0.0,0.0,0.0,0.0,0.0,0.0,0.0,0.0,0.0,0.0,0.0,3.56,0.0,0.0,0.0,3.56,3.56,3.56,3.56,3.56,3.56,0.0,3.56,3.56,3.56,3.56,3.56,3.56,3.6276,3.7618,3.7821,3.8565,3.9825,4.0011,4.0096,4.0096,4.0096,4.0096,4.0096,4.0096,4.0096,4.0096,4.0096,4.0096,4.0096,4.0096,4.0096,4.0096,4.3515,4.3515,0.0,4.3515,0.0,0.0,4.3515,4.3515,0.0,4.3515,4.3515,0.0,4.3515,4.3515,4.3515,4.3515,4.3515,0.0,4.3515,0.0,0.0,4.3515,4.3515,4.3515,4.3515,4.3515,0.0,4.3515,0.0,4.3515,4.3515,4.3515,4.3214,4.2674,4.208,4.1468,4.0856,4.0336,4.0096,4.0096,4.0096,4.0096,0.0,4.0096,4.0096,4.0096,4.0096,4.0096,4.0096,4.0096,4.0096,4.0096,4.0096,3.9825,3.9486,3.9486,3.8954,3.8294,3.7855,3.7303,3.6694,3.6231,3.5853,3.56,3.56,3.56,3.56,0.0,3.56,3.56,0.0,0.0,0.0,0.0,0.0,0.0,0.0,0.0,0.0,0.0,3.56,0.0,0.0,3.56,3.56,3.56,3.56,3.56,3.56,0.0,3.56,3.56,3.56,3.56,3.56,3.56,3.636,3.7905,3.7905,3.8667,4.0096,4.0096,4.0096,4.0096,4.0096,4.0096,4.0096,4.0096,4.0096,4.0096,4.0096,4.0096,4.0096,4.0096,4.0096,4.0096,4.3515,4.3515,0.0,0.0,0.0,0.0,0.0,4.3515,0.0,4.3515,0.0,4.3515,4.3515,4.3515,4.3515,4.3515,0.0,4.3515,4.3515,4.3515,4.3515,4.3515,4.3515,4.3515,4.3515,4.3515,4.3515,0.0,0.0,4.3515,4.3515,4.3515,4.325,4.2788,4.2101,0.0,0.0,4.0311,4.0096,4.0096,4.0096,4.0096,4.0096,4.0096,4.0096,4.0096,4.0096,4.0096,4.0096,4.0096,4.0096,4.0096,4.0096,4.0096,4.0096,4.0096,3.9656,3.9106,3.9022,3.8058,3.7049,3.6846,3.6265,3.5718,3.5616,3.56,3.56,3.56,3.56,3.56,0.0,0.0,0.0,0.0,0.0,0.0,0.0,0.0,0.0,0.0,0.0,0.0,0.0,3.56,3.56,3.56,3.56,3.56,3.56,0.0,3.56,3.56,3.56,3.56,3.56,3.5701,3.6462,3.7905,3.8007,3.8768,4.0096,4.0096,4.0096,4.0096,4.0096,4.0096,4.0096,4.0096,4.0096,4.0096,4.0096,4.0096,4.0096,4.0096,4.0096,4.0113,4.3515,0.0,0.0,0.0,0.0,4.3515,4.3515,4.3515,4.3515,4.3515,4.3515,4.3515,4.3515,4.3515,4.3515,4.3515,4.3515,0.0,0.0,0.0,0.0,4.3515,4.3515,4.3515,4.3515,4.3515,4.3515,0.0,0.0,4.3515,4.3515,4.3515,4.3444,4.3303,4.2266,0.0,4.0229,4.0146,0.0,4.0096,4.0096,4.0096,4.0096,4.0096,4.0096,4.0096,4.0096,4.0096,4.0096,4.0096,4.0096,4.0096,4.0096,4.0096,4.0096,4.0096,4.0011,3.9774,3.9157,3.8802,3.8311,3.71,3.6694,3.6417,3.5752,3.56,3.56,3.56,3.56,3.56,3.56,0.0,0.0,0.0,0.0,0.0,0.0,0.0,0.0,0.0,0.0,3.56,0.0,0.0,3.56,3.56,3.56,3.56,3.56,0.0,3.56,0.0,3.56,0.0,0.0,0.0,3.7026,3.7922,3.8514,3.9242,4.0096,4.0096,4.0096,4.0096,4.0096,4.0096,4.0096,4.0096,4.0096,4.0096,4.0096,4.0096,4.0096,4.0096,4.0096,4.0197,0.0,0.0,0.0,0.0,0.0,0.0,0.0,4.3515,4.3515,4.3515,4.3515,4.3515,4.3515,4.3515,4.3515,4.3515,4.3515,4.3515,4.3515,4.3515,4.3515,4.3515,4.3515,4.3515,4.3515,4.3515,4.3515,4.3515,0.0,4.3515,4.3515,4.3515,4.3357,4.3032,4.1856,4.0868,0.0,0.0,0.0,4.0096,4.0096,4.0096,4.0096,4.0096,4.0096,4.0096,4.0096,4.0096,4.0096,4.0096,4.0096,4.0096,4.0096,4.0096,4.0096,4.0096,4.0096,4.0028,3.9673,3.9276,3.8819,3.8132,3.7635,3.7161,3.64,3.6214,3.6096,3.5684,3.56,3.56,3.56,3.56,0.0,0.0,0.0,0.0,0.0,0.0,0.0,0.0,0.0,0.0,0.0,0.0,0.0,0.0,0.0,3.56,3.56,0.0,3.56,0.0,0.0,0.0,3.56,0.0,3.7161,3.7922,3.865,3.9402,4.0096,4.0096,4.0096,4.0096,4.0096,4.0096,4.0096,4.0096,4.0096,4.0096,4.0096,4.0096,4.0096,4.0096,4.0096,4.0214,0.0,4.3321,0.0,0.0,4.3515,0.0,4.3515,4.3515,4.3515,4.3515,4.3515,4.3515,4.3515,4.3515,4.3515,4.3515,4.3515,4.3515,4.3515,4.3515,4.3515,4.3515,4.3515,4.3515,4.3515,4.3515,4.3515,0.0,0.0,0.0,4.3515,4.3515,4.3142,0.0,0.0,0.0,0.0,0.0,4.0096,4.0096,4.0096,4.0096,4.0096,4.0096,4.0096,4.0096,4.0096,4.0096,4.0096,4.0096,4.0096,4.0096,4.0096,4.0096,4.0096,4.0096,4.0096,4.0096,4.0096,3.969,3.9191,3.9039,3.8565,3.7939,3.7218,3.6914,3.6626,3.5994,3.5718,3.56,3.56,3.56,0.0,0.0,0.0,0.0,0.0,0.0,0.0,0.0,0.0,0.0,3.56,0.0,0.0,0.0,0.0,3.5717,3.56,3.56,3.56,0.0,0.0,3.56,3.56,0.0,3.7313,3.7922,3.8802,3.9554,4.0096,4.0096,4.0096,4.0096,4.0096,4.0096,4.0096,4.0096,4.0096,4.0096,4.0096,4.0096,4.0096,4.0096,4.0096,4.0231,0.0,0.0,0.0,0.0,0.0,0.0,4.3515,4.3515,4.3515,4.3515,4.3515,4.3515,4.3515,4.3515,4.3515,4.3515,4.3515,4.3515,4.3515,4.3515,4.3515,4.3515,4.3515,4.3515,4.3515,4.3515,4.3515,0.0,0.0,4.3515,0.0,4.3515,4.2922,0.0,0.0,0.0,0.0,4.0096,4.0096,4.0096,4.0096,4.0096,4.0096,4.0096,4.0096,4.0096,4.0096,4.0096,4.0096,4.0096,4.0096,4.0096,4.0096,4.0096,4.0096,4.0096,4.0096,4.0096,4.0096,4.0045,3.9842,3.9157,3.8937,3.87,3.7973,3.728,3.6778,3.6711,3.6113,3.56,3.56,3.56,3.56,0.0,0.0,0.0,0.0,0.0,3.56,3.56,0.0,0.0,0.0,3.5644,0.0,0.0,3.6054,3.6118,3.5622,3.56,3.56,3.56,3.56,3.56,3.56,3.7077,3.7838,3.7922,3.9326,4.0028,4.0096,4.0096,4.0096,4.0096,4.0096,4.0096,4.0096,4.0096,4.0096,4.0096,4.0096,4.0096,4.0096,4.0096,4.0096,4.0299,0.0,0.0,0.0,0.0,0.0,0.0,0.0,4.279,4.3014,4.3014,4.3303,4.3515,4.3515,4.3515,4.3515,4.3515,4.3515,4.3515,4.3515,4.3515,4.3515,4.3515,4.3515,4.3515,4.3515,4.3515,4.3515,0.0,0.0,0.0,0.0,0.0,0.0,0.0,0.0,4.0538,4.0096,4.0096,4.0096,4.0096,4.0096,4.0096,4.0096,4.0096,4.0096,4.0096,4.0096,4.0096,4.0096,4.0096,4.0096,4.0096,4.0096,4.0096,4.0096,4.0096,4.0096,4.0096,4.0096,4.0096,4.0028,3.974,3.9673,3.9486,3.8717,3.8328,3.7973,3.755,3.684,3.618,3.5684,3.56,3.56,3.56,0.0,0.0,0.0,0.0,0.0,3.56,0.0,3.56,0.0,0.0,0.0,0.0,0.0,3.5827,3.5622,3.56,3.56,3.56,0.0,3.5819,3.6315,3.7381,3.8125,3.8565,3.9622,4.0096,4.0096,4.0096,4.0096,4.0096,4.0096,4.0096,4.0096,4.0096,4.0096,4.0096,4.0096,4.0096,4.0096,4.0096,4.0383,4.0899,4.1512,0.0,4.1599,0.0,4.181,4.181,4.181,4.2162,4.244,4.244,4.2771,4.3123,4.3462,4.3515,4.3515,4.3515,4.3515,4.3515,4.3515,4.3515,4.3515,4.3515,4.3515,0.0,4.3515,4.3515,4.3515,4.3515,4.3515,0.0,0.0,0.0,0.0,0.0,4.0577,4.0254,4.0096,4.0096,4.0096,4.0096,4.0096,4.0096,4.0096,4.0096,4.0096,4.0096,4.0096,4.0096,4.0096,4.0096,4.0096,4.0096,4.0096,4.0096,4.0096,4.0096,4.0096,4.0096,4.0096,4.0096,4.0096,4.0096,4.0096,3.996,3.9453,3.9165,3.8785,3.8058,3.7313,3.6643,3.6062,3.5752,3.56,3.56,0.0,0.0,0.0,3.56,0.0,0.0,3.56,3.56,3.56,3.5941,0.0,0.0,0.0,3.56,3.56,3.56,3.56,0.0,0.0,0.0,3.6795,3.7736,3.8481,3.9005,3.9757,4.0096,4.0096,4.0096,4.0096,4.0096,4.0096,4.0096,4.0096,4.0096,4.0096,4.0096,4.0096,4.0096,4.0096,4.0096,4.0561,4.1322,4.0803,4.0903,4.111,4.1703,4.181,4.181,4.181,4.181,4.181,4.181,4.1832,4.2246,4.3392,4.3515,4.3515,4.3515,4.3515,4.3515,4.3515,4.3515,4.3515,0.0,0.0,4.3515,4.3515,4.3515,4.3515,4.3515,0.0,0.0,4.3497,0.0,4.2362,4.175,4.1155,4.0601,4.0096,4.0096,4.0096,4.0096,4.0096,4.0096,4.0096,4.0096,4.0096,4.0096,4.0096,4.0096,4.0096,4.0096,4.0096,4.0096,4.0096,4.0096,4.0096,4.0096,4.0096,4.0096,4.0096,4.0096,4.0096,4.0096,4.0096,4.0096,4.0096,3.9512,3.8785,3.8058,3.7313,3.6795,3.6795,3.6146,3.56,3.56,0.0,0.0,0.0,0.0,0.0,3.56,3.56,3.56,3.56,3.56,0.0,0.0,0.0,0.0,0.0,0.0,0.0,3.56,3.6366,0.0,3.6795,3.8244,3.8988,3.9005,3.9757,4.0096,4.0096,4.0096,4.0096,4.0096,4.0096,4.0096,4.0096,4.0096,4.0096,4.0096,4.0096,4.0096,4.0096,4.0096,4.0561,4.1322,4.0336,4.0343,4.0417,4.0618,4.0642,4.0642,4.0642,4.0943,4.1201,4.1201,4.1534,4.1937,4.2306,4.2346,4.2346,0.0,4.2346,4.2346,0.0,4.2346,4.2523,4.2939,4.2958,4.3142,4.3479,4.3515,4.3515,4.3515,0.0,0.0,0.0,4.2788,4.2382,4.1771,4.1178,4.0803,4.0607,4.0254,4.0096,4.0096,4.0096,4.0096,4.0096,4.0096,4.0096,4.0096,4.0096,4.0096,4.0096,4.0096,4.0096,4.0096,4.0096,4.0096,4.0096,4.0096,4.0096,4.0096,4.0096,4.0096,4.0096,4.0096,4.0096,4.0096,4.0096,3.9926,3.9554,3.8802,3.8447,3.8142,3.7635,3.7347,3.7155,3.7155,3.7155,0.0,3.7155,0.0,3.7155,3.7155,3.7155,3.7155,3.7155,3.7155,0.0,0.0,0.0,0.0,0.0,0.0,0.0,0.0,3.6677,0.0,3.8278,3.8751,3.9242,3.9757,3.9994,4.0096,4.0096,4.0096,4.0096,4.0096,4.0096,4.0096,4.0096,4.0096,4.0096,4.0096,4.0096,4.0096,4.0163,4.0646,4.1322,4.2049,4.0096,4.0096,4.0096,4.0096,4.0096,4.0096,4.0096,4.0392,4.0601,4.0601,4.0938,4.1272,4.1528,4.1563,0.0,4.1785,4.2018,4.2142,4.2142,4.2142,4.2402,4.2976,4.2807,4.2958,4.3497,4.3515,0.0,4.3515,4.3515,4.3339,4.2995,4.2788,4.25,4.2121,4.1512,4.111,4.088,4.0774,4.049,4.0121,4.0311,4.0286,4.0096,4.0096,4.0096,4.0096,4.0096,4.0096,4.0096,4.0096,4.0096,4.0096,4.0096,4.0096,4.0096,4.0096,4.0096,4.0096,4.0096,4.0096,4.0096,4.0096,4.0096,4.0096,4.0096,4.0096,3.9977,3.952,3.9191,3.8853,3.8396,3.8091,3.7905,3.7905,3.7905,3.7905,3.7905,0.0,3.7905,0.0,0.0,0.0,0.0,3.7905,3.7905,0.0,0.0,0.0,0.0,0.0,3.6705,3.7218,3.7489,3.8082,3.8988,3.9259,3.9656,4.0096,4.0096,4.0096,4.0096,4.0096,4.0096,4.0096,4.0096,4.0096,4.0096,4.0096,4.0096,4.0096,4.0096,4.0096,4.0197,4.0933,4.166,4.2405,4.0096,4.0096,4.013,0.0,4.018,0.0,4.0248,4.0248,4.0248,4.0248,4.0248,4.0493,4.1204,4.1288,4.1414,4.1807,0.0,0.0,4.2667,4.2652,4.2883,4.3427,4.2958,4.2958,4.3497,4.3515,4.3515,4.3515,4.3462,4.3462,4.3497,4.2995,4.2769,4.2713,4.2142,4.1556,4.1064,4.1578,4.119,4.0254,4.0726,4.0601,4.0146,4.0121,4.0096,4.0096,4.0096,4.0096,4.0096,4.0096,4.0096,4.0096,4.0096,4.0096,4.0096,4.0096,4.0096,4.0096,4.0096,4.0096,4.0096,4.0096,4.0096,4.0096,4.0096,4.0096,4.0096,4.0096,3.9554,3.9073,3.9073,3.8514,3.8058,3.8058,3.8058,3.8058,3.8058,3.8058,3.8058,0.0,0.0,0.0,3.8058,3.8058,3.8058,0.0,0.0,0.0,0.0,0.0,3.8041,3.799,3.8633,3.9005,3.9073,3.9757,4.0096,4.0096,4.0096,4.0096,4.0096,4.0096,4.0096,4.0096,4.0096,4.0096,4.0096,4.0096,4.0096,4.0096,4.0096,4.0096,4.0197,4.0984,4.1711,4.2405,0.0,0.0,4.0282,4.0832,4.0933,4.1119,4.1677,4.1788,4.1788,4.1788,4.1788,4.1856,4.2016,4.2033,4.2079,4.2168,4.2215,4.2235,4.2235,4.21,4.2282,4.2846,4.2769,4.2958,4.3497,4.3515,4.3515,4.3515,4.3087,4.3105,4.3497,4.3375,4.3303,4.3286,4.2733,4.242,4.2244,4.1937,4.1643,4.1375,4.1041,4.081,4.0655,4.0254,4.0096,4.0096,4.0096,4.0096,4.0096,4.0096,4.0096,4.0096,4.0096,4.0096,4.0096,4.0096,4.0096,4.0096,4.0096,4.0096,4.0096,4.0096,4.0096,4.0096,4.0096,4.0096,4.0096,4.0096,3.996,3.9842,3.9842,3.9706,3.9588,3.9588,3.9588,3.9588,3.9588,3.9588,3.9588,0.0,3.9588,3.9588,3.9588,3.9588,3.9588,0.0,0.0,3.9588,3.9588,3.9588,3.9309,3.8751,3.8903,3.9259,3.9842,4.0011,4.0096,4.0096,4.0096,4.0096,4.0096,4.0096,4.0096,4.0096,4.0096,4.0096,4.0096,4.0096,4.0096,4.0096,4.0096,4.0096,4.0265,4.1542,4.2151,4.2472,4.1111,4.1111,4.1247,4.1627,4.1694,4.183,4.2236,4.2286,4.2286,4.2286,4.2286,4.2422,4.2777,4.2811,4.2946,4.3301,4.2885,4.2587,4.2587,4.2504,4.2696,4.3275,4.2977,4.3061,4.3615,4.3558,4.3375,4.3124,4.2845,4.2713,4.2734,4.3014,4.3124,4.3124,4.3105,4.2939,4.2693,4.2619,4.2286,4.181,4.1729,4.1556,4.1291,4.0984,4.0696,4.0473,4.0473,4.0311,4.0096,4.0096,4.0096,4.0096,4.0096,4.0096,4.0096,4.0096,4.0096,4.0096,4.0096,4.0096,4.0096,4.0096,4.0096,4.0096,4.0096,4.0096,4.0096,4.0096,4.0096,4.0096,4.0096,4.0096,4.0096,4.0096,4.0096,4.0096,4.0096,4.0096,4.0096,4.0096,4.0096,4.0096,4.0096,4.0096,4.0096,4.0096,4.0096,0.0,4.0096,4.0096,3.9926,3.9537,3.9503,3.9706,4.0096,4.0096,4.0096,4.0096,4.0096,4.0096,4.0096,4.0096,4.0096,4.0096,4.0096,4.0096,4.0096,4.0096,4.0096,4.0096,4.0096,4.0316,4.073,4.1863,4.2506,4.298,4.2286,4.2286,4.2337,4.2439,4.2472,4.2506,4.2625,4.2642,4.2642,4.2642,4.2642,4.2878,4.3521,4.3589,4.3859,4.4547,4.3888,4.3404,4.3383,4.336,4.3522,4.3976,4.3408,4.3337,4.3969,4.3834,4.3488,4.3007,4.2912,4.2548,4.1937,4.246,4.2711,4.2731,4.3178,4.3178,4.2845,4.3322,4.294,4.2103,4.2519,4.2382,4.1916,4.1814,4.1424,4.0903,4.0903,4.0552,4.0096,4.0096,4.0096,4.0096,4.0096,4.0096,4.0096,4.0096,4.0096,4.0096,4.0096,4.0096,4.0096,4.0096,4.0096,4.0096,4.0096,4.0096,4.0096,4.0096,4.0096,4.0096,4.0096,4.0096,4.0096,4.0096,4.0096,4.0096,4.0096,0.0,4.0096,4.0096,4.0096,4.0096,4.0096,4.0096,4.0096,4.0096,4.0096,4.0096,4.0096,4.0096,4.0096,4.0096,4.0096,4.0096,4.0096,4.0096,4.0096,4.0096,4.0096,4.0096,4.0096,4.0096,4.0096,4.0096,4.0096,4.0096,4.0096,4.0096,4.0096,4.0113,4.0231,4.0646,4.1305,4.2151,4.2861,4.3511,4.2286,4.2286,4.2489,4.3132,4.325,4.347,4.4158,4.4242,4.4242,4.4242,4.4242,4.4293,4.4412,4.4401,4.4479,4.4598,4.4461,4.4319,4.4137,4.3966,4.3908,4.3999,4.3875,4.4134,4.48,4.4833,4.4705,4.4382,4.3937,4.3323,4.2577,4.2673,4.2711,4.2693,4.2788,4.3032,4.3392,4.3462,4.341,4.3196,4.2827,4.2635,4.25,4.1979,4.1424,4.0903,4.0903,4.0552,4.0096,4.0096,4.0096,4.0096,4.0096,4.0096,4.0096,4.0096,4.0096,4.0096,4.0096,4.0096,4.0096,4.0096,4.0096,4.0096,4.0096,4.0096,4.0096,4.0096,4.0096,4.0096,4.0096,4.0096,4.0096,4.0096,4.0096,4.0096,4.0096,0.0,4.0096,4.0096,4.0096,4.0096,4.0096,4.0096,4.0096,4.0096,4.0096,4.0096,4.0096,4.0096,4.0096,4.0096,4.0096,4.0096,4.0096,4.0096,4.0096,4.0096,4.0096,4.0096,4.0096,4.0096,4.0096,4.0096,4.0096,4.0096,4.0096,4.0096,4.0096,4.0163,4.0781,4.1102,4.1373,4.2743,4.3291,4.3511,4.3548,4.3548,4.3639,4.3995,4.4045,4.4164,4.4547,4.4615,4.4615,4.4615,4.4615,4.4615,4.4615,4.4615,4.4615,4.4615,4.4615,4.4557,4.4465,4.4389,4.4319,4.4319,4.4212,4.4422,4.4998,4.5021,4.4999,4.4926,4.4675,4.4198,4.3513,4.3838,4.3996,4.3996,4.4286,4.4565,4.4782,4.4782,4.4782,4.4764,4.451,4.4417,4.4398,4.4115,4.366,4.3066,4.2313,4.1685,4.1128,4.0357,4.0096,4.0096,4.0096,4.0096,4.0096,4.0096,4.0096,4.0096,4.0096,4.0096,4.0096,4.0096,4.0096,4.0096,4.0096,4.0096,4.0096,4.0096,4.0096,4.0096,4.0096,4.0096,4.0096,4.0096,4.0096,0.0,4.0096,4.0096,4.0096,4.0096,4.0096,4.0096,4.0096,4.0096,4.0096,4.0096,4.0096,4.0096,4.0096,4.0096,4.0096,4.0096,4.0096,4.0096,4.0096,4.0096,4.0096,4.0096,4.0096,4.0096,4.0096,4.0096,4.0096,4.0096,4.0096,4.0096,4.0096,4.0096,4.0333,4.073,4.1068,4.1694,4.2489,4.3139,4.3673,4.4096,4.4615,4.4615,4.4615,4.4615,4.4615,4.4615,4.4615,4.4615,4.4615,4.4615,4.4615,4.4615,4.4615,4.4615,4.4615,4.4615,4.4615,4.4615,4.4615,4.4615,4.4615,4.4615,4.4725,4.4976,4.5311,4.5621,4.5711,4.557,4.557,4.516,4.4417,4.488,4.51,4.512,4.5529,4.5792,4.5902,4.5902,4.5902,4.5902,4.5902,4.5902,4.5902,4.5902,4.5567,4.4949,4.37,4.2909,4.2282,4.1018,4.062,4.062,4.062,4.0502,4.0367,4.0367,4.0231,4.0096,4.0096,4.0096,4.0096,4.0096,4.0096,4.0096,4.0096,4.0096,4.0096,4.0096,4.0096,4.0096,4.0096,4.0096,4.0096,4.0096,0.0,4.0096,4.0096,4.0096,4.0096,4.0096,4.0096,4.0096,4.0096,4.0096,4.0096,4.0096,4.0096,4.0096,4.0096,4.0096,4.0096,4.0096,4.0096,4.0096,4.0096,4.0096,4.0096,4.0096,4.0096,4.0096,4.0096,4.0096,4.0096,4.0096,4.0096,4.0096,4.0113,4.0299,4.0679,4.1238,4.1593,4.2405,4.3409,4.3595,4.4062,4.4615,4.4615,4.4615,4.4615,4.4615,4.4615,4.4615,4.4615,4.4615,4.4615,4.4615,4.4615,4.4615,4.4615,4.4615,4.4615,4.4615,4.4615,4.4615,4.4615,4.4615,4.4615,4.4615,4.5655,4.6259,4.63,4.7454,4.7698,4.6946,4.6946,4.6278,4.5021,4.508,4.51,4.51,4.514,4.5434,4.5902,4.5902,4.5902,4.5902,4.5902,4.5902,4.5902,4.5902,4.5567,4.5001,4.428,4.3652,4.3106,4.238,4.2134,4.2134,4.2134,4.166,4.1119,4.1119,4.0629,4.0096,4.0096,4.0096,4.0096,4.0096,4.0096,4.0096,4.0096,4.0096,4.0096,4.0096,4.0096,4.0096,4.0096,4.0096,4.0096,4.0096,0.0,0.0,4.0096,4.0096,4.0096,4.0096,4.0096,4.0096,4.0096,4.0096,4.0096,4.0096,4.0096,4.0096,4.0096,4.0096,4.0096,4.0096,4.0096,4.0096,4.0096,4.0096,4.0096,4.0096,4.0096,4.0096,4.0096,4.0096,4.0096,4.0096,4.0096,4.0096,4.0146,4.0832,4.1153,4.1339,4.2682,4.3291,4.3477,4.4231,4.4564,4.4615,4.4615,4.4615,4.4615,4.4615,4.4615,4.4615,4.4615,4.4615,4.4615,4.4615,4.4615,4.4615,4.4615,4.4615,4.4615,4.4615,4.4615,4.4615,4.4615,4.4615,4.4615,4.4615,4.5052,4.5648,4.6383,4.6869,4.7368,4.7828,4.7828,4.7587,4.7083,4.7083,4.6868,4.6543,4.6926,4.6986,4.6848,4.7237,4.7388,4.7388,4.7388,4.7388,4.7388,4.7388,4.7256,4.6951,4.584,4.5081,4.4372,4.3299,4.2646,4.2286,4.2286,4.21,4.188,4.188,4.1356,4.0781,4.0781,4.0468,4.0096,4.0096,4.0096,4.0096,4.0096,4.0096,4.0096,4.0096,4.0096,4.0096,4.0096,4.0096,4.0096,4.0096,0.0,4.0096,4.0096,4.0096,4.0096,4.0096,4.0096,4.0096,4.0096,4.0096,4.0096,4.0096,4.0096,4.0096,4.0096,4.0096,4.0096,4.0096,4.0096,4.0096,4.0096,4.0096,4.0096,4.0096,4.0096,4.0096,4.0096,4.0096,4.0096,4.013,4.0578,4.0781,4.0832,4.1576,4.2151,4.2615,4.3172,4.3707,4.4181,4.4496,4.4615,4.4615,4.4615,4.4615,4.4615,4.4615,4.4615,4.4615,4.4615,4.4615,4.4615,4.4615,4.4615,4.4615,4.4615,4.4615,4.4615,4.4615,4.4615,4.4615,4.4615,4.4615,4.4615,4.4615,4.4786,4.5372,4.6383,4.6618,4.7219,4.8306,4.8306,4.8306,4.8306,4.8306,4.8075,4.7715,4.8132,4.8075,4.7715,4.8114,4.8306,4.8306,4.8306,4.8306,4.8306,4.8306,4.8306,4.8137,4.7037,4.6342,4.5792,4.4635,4.3984,4.3546,4.3372,4.2998,4.2591,4.2354,4.1931,4.1542,4.1542,4.117,4.0688,4.0231,4.0096,4.0096,4.0096,4.0096,4.0096,4.0096,4.0096,4.0096,4.0096,4.0096,4.0096,4.0096,4.0096,4.0096,4.0096,4.0096,4.0096,4.0096,4.0096,4.0096,4.0096,4.0096,4.0096,4.0096,4.0096,4.0096,4.0096,4.0096,4.0096,4.0096,4.0096,4.0096,4.0096,4.0096,4.0096,4.0096,4.0096,4.0231,4.0468,4.0468,4.0587,4.0823,4.1322,4.1542,4.1593,4.2337,4.2946,4.3426,4.369,4.4113,4.4615,4.4615,4.4615,4.4615,4.4615,4.4615,4.4615,4.4615,4.4615,4.4615,4.4615,4.4615,4.4615,4.4615,4.4615,4.4615,4.4615,4.4615,4.4615,4.4615,4.4615,4.4615,4.4615,4.4615,4.4615,4.4615,4.5178,4.5783,4.6383,4.7044,4.7695,4.8306,4.8306,4.8306,4.8306,4.8306,4.8287,4.8287,4.8306,4.8287,4.8287,4.8306,4.8306,4.8306,4.8306,4.8306,4.8306,4.8306,4.8306,4.821,4.7614,4.7406,4.7299,4.6641,4.6389,4.6288,4.5681,4.4557,4.3284,4.2523,4.2303,4.2303,4.2303,4.2286,4.1931,4.0485,4.0113,4.0113,4.0096,4.0096,4.0096,4.0096,4.0096,4.0096,4.0096,4.0096,4.0096,4.0096,4.0096,4.0096,4.0096,4.0096,4.0096,4.0096,4.0096,4.0096,4.0096,4.0096,4.0096,4.0096,4.0096,4.0096,4.0096,4.0096,4.0096,4.0113,4.0113,4.0113,4.013,4.0113,4.0113,4.0113,4.0113,4.0519,4.1221,4.1221,4.161,4.2286,4.2303,4.2303,4.2354,4.3115,4.3392,4.3504,4.4282,4.4615,4.4615,4.4615,4.4615,4.4615,4.4615,4.4615,4.4615,4.4615,4.4615,4.4615,4.4615,4.4615,4.4615,4.4615,4.4615,4.4615,4.4615,4.4615,4.4615,4.4615,4.4615,4.4615,4.4615,4.4615,4.4615,4.4615,4.5178,4.5783,4.6383,4.7044,4.7695,4.8306,4.8306,4.8306,4.8306,4.8306,4.8075,4.7695,4.8094,4.8055,4.7695,4.8114,4.8306,4.8306,4.8306,4.8306,4.8306,4.8306,4.8306,4.8287,4.8094,4.7756,4.7363,4.7172,4.6778,4.6288,4.5681,4.52,4.473,4.4109,4.3504,4.3081,4.3081,4.2692,4.2066,4.1102,4.0865,4.073,4.0231,4.0096,4.0096,4.0096,4.0096,4.0096,4.0096,4.0096,4.0096,4.0096,4.0096,4.0096,4.0096,4.0096,4.0096,4.0096,4.0096,4.0096,4.0096,4.0096,4.0096,4.0096,4.0096,4.0096,4.0096,4.0096,4.035,4.0849,4.0865,4.1119,4.1653,4.1119,4.0865,4.0882,4.139,4.1745,4.1965,4.1965,4.2083,4.232,4.2861,4.3081,4.3132,4.391,4.4231,4.4265,4.4513,4.4615,4.4615,4.4615,4.4615,4.4615,4.4615,4.4615,4.4615,4.4615,4.4615,4.4615,4.4615,4.4615,4.4615,4.4615,4.4615,4.4615,4.4615,4.4615,4.4615,4.4615,4.4615,4.4615,4.4615,4.4615,4.4615,4.4615,4.5425,4.6039,4.6407,4.7044,4.7695,4.8306,4.8306,4.8306,4.8306,4.8306,4.8113,4.7777,4.8152,4.8094,4.7777,4.8152,4.8306,4.8306,4.8306,4.8306,4.8306,4.8306,4.8306,4.8306,4.8306,4.8075,4.7756,4.7756,4.7324,4.6733,4.6377,4.6063,4.5732,4.5142,4.4619,4.418,4.3942,4.3538,4.3014,4.2269,4.1847,4.1508,4.1077,4.0976,4.0891,4.062,4.0527,4.0468,4.0146,4.0096,4.0096,4.0096,4.0096,4.0096,4.0096,4.0096,4.0096,4.0096,4.0096,4.0096,4.0096,4.0096,4.0231,4.0493,4.0823,4.0976,4.0976,4.0976,4.1153,4.1627,4.1644,4.1847,4.2286,4.2151,4.1931,4.1644,4.2083,4.2439,4.2743,4.2743,4.2912,4.3217,4.3673,4.3876,4.391,4.4412,4.4615,4.4615,4.4615,4.4615,4.4615,4.4615,4.4615,4.4615,4.4615,4.4615,4.4615,4.4615,4.4615,4.4615,4.4615,4.4615,4.4615,4.4615,4.4615,4.4615,4.4615,4.4615,4.4615,4.4615,4.4615,4.4615,4.4615,4.4615,4.4615,4.4615,4.5757,4.6407,4.6407,4.711,4.7756,4.8306,4.8306,4.8306,4.8306,4.8306,4.8306,4.8306,4.8306,4.8306,4.8306,4.8306,4.8306,4.8306,4.8306,4.8306,4.8306,4.8306,4.8306,4.8306,4.8306,4.8306,4.8306,4.8306,4.7937,4.747,4.7406,4.6932,4.6288,4.5732,4.5494,4.532,4.4814,4.4654,4.4429,4.3707,4.2997,4.2455,4.232,4.2286,4.21,4.1441,4.1305,4.1085,4.0417,4.0299,4.0299,4.0299,4.0299,4.0299,4.0299,4.0299,4.0299,4.0299,4.0299,4.0299,4.0299,4.0299,4.0587,4.1255,4.1914,4.2286,4.2286,4.2286,4.232,4.2388,4.2388,4.2422,4.2489,4.3183,4.3132,4.2388,4.2455,4.2861,4.3521,4.3521,4.391,4.4615,4.4615,4.4615,4.4615,4.4615,4.4615,4.4615,4.4615,4.4615,4.4615,4.4615,4.4615,4.4615,4.4615,4.4615,4.4615,4.4615,4.4615,4.4615,4.4615,4.4615,4.4615,4.4615,4.4615,4.4615,4.4615,4.4615,4.4615,4.4615,4.4615,4.4615,4.4615,4.4615,4.4615,4.4615,4.5757,4.6407,4.6407,4.7512,4.8172,4.8306,4.8306,4.8306,4.8306,4.8306,4.8306,4.8306,4.8306,4.8306,4.8306,4.8306,4.8306,4.8306,4.8306,4.8306,4.8306,4.8306,4.8306,4.8306,4.8306,4.8306,4.8306,4.8306,4.821,4.8035,4.7551,4.6932,4.6383,4.624,4.5537,4.4852,4.5205,4.4944,4.4564,4.4395,4.4225,4.3802,4.2574,4.2286,4.2252,4.2083,4.2049,4.1999,4.1847,4.1813,4.1813,4.1813,4.1813,4.1813,4.1813,4.1813,4.1813,4.1813,4.1813,4.1813,4.1813,4.1813,4.188,4.2049,4.2202,4.2286,4.2286,4.2286,4.2557,4.3122,4.3139,4.347,4.4107,4.4276,4.3944,4.3183,4.3792,4.4192,4.4333,4.4333,4.4445,4.4615,4.4615,4.4615,4.4615,4.4615,4.4615,4.4615,4.4615,4.4615,4.4615,4.4615,4.4615,4.4615,4.4615,4.4615,4.4615,4.4615,4.4615,4.4615,4.4615,4.4615,4.4615,4.4615,4.4615,4.4615,4.4615,4.4615,4.4615,4.4615,4.4615,4.4767,4.5094,4.5111,4.5416,4.6097,4.7043,4.769,4.8018,4.8982,4.9114,4.8306,4.8306,4.8306,4.8306,4.8306,4.8306,4.8306,4.8306,4.8306,4.8306,4.8306,4.8306,4.8306,4.8306,4.8306,4.8306,4.8306,4.8306,4.8306,4.8306,4.8306,4.8306,4.8306,4.8306,4.823,4.7937,4.7575,4.7241,4.6977,4.6209,4.5459,4.5485,4.5062,4.4615,4.4615,4.4615,4.4395,4.3582,4.3413,4.3284,4.2895,4.2828,4.2726,4.2354,4.2286,4.2286,4.2286,4.2286,4.2286,4.2286,4.2286,4.2286,4.2286,4.2286,4.2286,4.2286,4.2625,4.2828,4.2828,4.3166,4.3413,4.3413,4.3413,4.3555,4.3961,4.3978,4.4164,4.4615,4.4615,4.4395,4.3978,4.4412,4.4615,4.4615,4.4615,4.4615,4.4615,4.4615,4.4615,4.4615,4.4615,4.4615,4.4615,4.4615,4.4615,4.4615,4.4615,4.4615,4.4615,4.4953,4.4987,4.4987,4.4987,4.4987,4.4987,4.4987,4.4987,4.4987,4.4987,4.4987,4.4987,4.4987,4.4987,4.4987,4.4987,4.4987,4.5229,4.5855,4.5889,4.6397,4.7572,4.838,4.9078,4.9636,5.0399,5.0123,4.8728,4.8728,4.8728,4.8728,4.8728,4.8728,4.8728,4.8581,4.8526,4.8508,4.8361,4.8306,4.8306,4.8306,4.8306,4.8306,4.8306,4.8306,4.8306,4.8306,4.8306,4.8306,4.8306,4.8306,4.8306,4.8306,4.823,4.8055,4.7551,4.6864,4.6143,4.5648,4.5062,4.4615,4.4615,4.4615,4.4615,4.4615,4.4615,4.4401,4.3741,4.3623,4.342,4.2794,4.2675,4.2675,4.2675,4.2675,4.2675,4.2675,4.2675,4.2675,4.2675,4.2675,4.2675,4.2675,4.325,4.3623,4.3623,4.4215,4.4615,4.4615,4.4615,4.4615,4.4615,4.4615,4.4615,4.4615,4.4615,4.4615,4.4615,4.4615,4.4615,4.4615,4.4615,4.4615,4.4615,4.4615,4.4615,4.4615,4.4615,4.4615,4.4615,4.4615,4.4615,4.4615,4.4615,4.4615,4.4615,4.638,4.6481,4.6481,4.6481,4.6481,4.6481,4.6481,4.6481,4.6481,4.6481,4.6481,4.6481,4.6481,4.6481,4.6481,4.6481,4.6481,4.6532,4.6633,4.665,4.6743,4.6944,4.8137,4.8859,4.8915,5.017,5.0692,5.0472,5.0472,5.0472,5.0472,5.0472,5.0472,5.0435,4.9719,4.9427,4.9372,4.8618,4.8306,4.8306,4.8306,4.8306,4.8306,4.8306,4.8306,4.8306,4.8306,4.8306,4.8306,4.8306,4.8306,4.8306,4.8306,4.7937,4.7509,4.7428,4.6566,4.5597,4.552,4.5062,4.4615,4.4615,4.4615,4.4615,4.4615,4.4615,4.4581,4.4479,4.4445,4.4429,4.4327,4.4293,4.4293,4.4293,4.4293,4.4293,4.4293,4.4293,4.4293,4.4293,4.4293,4.4293,4.4293,4.4395,4.4445,4.4445,4.4547,4.4615,4.4615,4.4615,4.4615,4.4615,4.4615,4.4615,4.4615,4.4615,4.4615,4.4615,4.4615,4.4615,4.4615,4.4615,4.4615,4.4615,4.4615,4.4615,4.4615,4.4615,4.4615,4.4615,4.4615,4.4615,4.4615,4.4615,4.4615,4.4615,4.6735,4.6786,4.6786,4.6786,4.6786,4.6786,4.6786,4.6786,4.6786,4.6786,4.6786,4.6786,4.6786,4.6786,4.6786,4.6786,4.6786,4.6972,4.7394,4.7411,4.7772,4.8552,4.9556,5.0261,5.0647,5.1624,5.2142,5.2142,5.1242,5.0584,5.0195,5.0623,5.0802,5.0784,5.0435,5.027,5.0251,4.9866,4.9701,4.9664,4.9205,4.9022,4.8967,4.8489,4.8306,4.8306,4.8306,4.8306,4.8306,4.8306,4.8306,4.8306,4.8306,4.8132,4.7856,4.7509,4.6751,4.5915,4.5597,4.5062,4.4615,4.4615,4.4615,4.4615,4.4615,4.4615,4.4615,4.4615,4.4615,4.4615,4.4615,4.4615,4.4615,4.4615,4.4615,4.4615,4.4615,4.4615,4.4615,4.4615,4.4615,4.4615,4.4615,4.4615,4.4615,4.4615,4.4615,4.4615,4.4615,4.4615,4.4615,4.4615,4.4615,4.4615,4.4615,4.4615,4.4615,4.4615,4.4615,4.4615,4.4615,4.4615,4.4615,4.4615,4.4615,4.4615,4.4615,4.4615,4.4615,4.4615,4.4615,4.4615,4.4615,4.4615,4.4615,4.4615]}]]